<?xml version="1.0" encoding="UTF-8" standalone="no" ?>
<gpx xmlns="http://www.topografix.com/GPX/1/1" xmlns:xsi="http://www.w3.org/2001/XMLSchema-instance" xsi:schemaLocation="http://www.topografix.com/GPX/1/1 http://www.topografix.com/GPX/1/1/gpx.xsd" version="1.1" creator="VisuGPX - https://www.visugpx.com">
  <metadata>
    <name>Douarnenez - Beuzec cap suzin</name>
    <desc><![CDATA[Rando douarnenez audierne via la pointe du raz.
étape (1/4) :  douarnenez - beuzec cap suzin par le sentier des douaniers.]]></desc>
  </metadata>
  <trk>
    <name><![CDATA[Tracé 8 mai 2014 09:19:12]]></name>
    <trkseg>
      <trkpt lat="48.09772" lon="-4.34105">
        <ele>23</ele>
        <time>2014-05-08T07:19:12Z</time>
      </trkpt>
      <trkpt lat="48.09777" lon="-4.34102">
        <ele>13</ele>
        <time>2014-05-08T07:21:03Z</time>
      </trkpt>
      <trkpt lat="48.09782" lon="-4.34091">
        <ele>10</ele>
        <time>2014-05-08T07:21:09Z</time>
      </trkpt>
      <trkpt lat="48.09785" lon="-4.34079">
        <ele>12</ele>
        <time>2014-05-08T07:21:17Z</time>
      </trkpt>
      <trkpt lat="48.09787" lon="-4.34068">
        <ele>9</ele>
        <time>2014-05-08T07:21:23Z</time>
      </trkpt>
      <trkpt lat="48.0979" lon="-4.34057">
        <ele>6</ele>
        <time>2014-05-08T07:21:28Z</time>
      </trkpt>
      <trkpt lat="48.09789" lon="-4.34044">
        <ele>6</ele>
        <time>2014-05-08T07:21:35Z</time>
      </trkpt>
      <trkpt lat="48.09791" lon="-4.34031">
        <ele>5</ele>
        <time>2014-05-08T07:21:42Z</time>
      </trkpt>
      <trkpt lat="48.09792" lon="-4.34018">
        <ele>8</ele>
        <time>2014-05-08T07:21:50Z</time>
      </trkpt>
      <trkpt lat="48.09795" lon="-4.34006">
        <ele>9</ele>
        <time>2014-05-08T07:21:57Z</time>
      </trkpt>
      <trkpt lat="48.098" lon="-4.33995">
        <ele>10</ele>
        <time>2014-05-08T07:22:04Z</time>
      </trkpt>
      <trkpt lat="48.09805" lon="-4.33986">
        <ele>17</ele>
        <time>2014-05-08T07:22:14Z</time>
      </trkpt>
      <trkpt lat="48.09809" lon="-4.33976">
        <ele>16</ele>
        <time>2014-05-08T07:22:19Z</time>
      </trkpt>
      <trkpt lat="48.09815" lon="-4.33966">
        <ele>19</ele>
        <time>2014-05-08T07:22:27Z</time>
      </trkpt>
      <trkpt lat="48.09823" lon="-4.33962">
        <ele>18</ele>
        <time>2014-05-08T07:22:34Z</time>
      </trkpt>
      <trkpt lat="48.09831" lon="-4.33956">
        <ele>14</ele>
        <time>2014-05-08T07:22:42Z</time>
      </trkpt>
      <trkpt lat="48.09838" lon="-4.33951">
        <ele>14</ele>
        <time>2014-05-08T07:22:47Z</time>
      </trkpt>
      <trkpt lat="48.09845" lon="-4.3395">
        <ele>14</ele>
        <time>2014-05-08T07:22:53Z</time>
      </trkpt>
      <trkpt lat="48.09854" lon="-4.33949">
        <ele>14</ele>
        <time>2014-05-08T07:23:01Z</time>
      </trkpt>
      <trkpt lat="48.0986" lon="-4.33955">
        <ele>11</ele>
        <time>2014-05-08T07:23:07Z</time>
      </trkpt>
      <trkpt lat="48.09865" lon="-4.33966">
        <ele>4</ele>
        <time>2014-05-08T07:23:14Z</time>
      </trkpt>
      <trkpt lat="48.09873" lon="-4.33972">
        <ele>7</ele>
        <time>2014-05-08T07:23:20Z</time>
      </trkpt>
      <trkpt lat="48.09878" lon="-4.33979">
        <ele>9</ele>
        <time>2014-05-08T07:23:25Z</time>
      </trkpt>
      <trkpt lat="48.09889" lon="-4.33989">
        <ele>4</ele>
        <time>2014-05-08T07:23:30Z</time>
      </trkpt>
      <trkpt lat="48.09895" lon="-4.33998">
        <ele>6</ele>
        <time>2014-05-08T07:23:37Z</time>
      </trkpt>
      <trkpt lat="48.09903" lon="-4.34004">
        <ele>9</ele>
        <time>2014-05-08T07:23:44Z</time>
      </trkpt>
      <trkpt lat="48.09909" lon="-4.34011">
        <ele>10</ele>
        <time>2014-05-08T07:23:50Z</time>
      </trkpt>
      <trkpt lat="48.09916" lon="-4.34018">
        <ele>11</ele>
        <time>2014-05-08T07:23:55Z</time>
      </trkpt>
      <trkpt lat="48.09922" lon="-4.34026">
        <ele>12</ele>
        <time>2014-05-08T07:24:02Z</time>
      </trkpt>
      <trkpt lat="48.09928" lon="-4.34031">
        <ele>9</ele>
        <time>2014-05-08T07:24:08Z</time>
      </trkpt>
      <trkpt lat="48.09934" lon="-4.34037">
        <ele>9</ele>
        <time>2014-05-08T07:24:14Z</time>
      </trkpt>
      <trkpt lat="48.09941" lon="-4.34046">
        <ele>7</ele>
        <time>2014-05-08T07:24:21Z</time>
      </trkpt>
      <trkpt lat="48.09949" lon="-4.34049">
        <ele>9</ele>
        <time>2014-05-08T07:24:42Z</time>
      </trkpt>
      <trkpt lat="48.09955" lon="-4.34054">
        <ele>10</ele>
        <time>2014-05-08T07:24:46Z</time>
      </trkpt>
      <trkpt lat="48.09968" lon="-4.34063">
        <ele>13</ele>
        <time>2014-05-08T07:24:51Z</time>
      </trkpt>
      <trkpt lat="48.09974" lon="-4.34071">
        <ele>13</ele>
        <time>2014-05-08T07:24:57Z</time>
      </trkpt>
      <trkpt lat="48.09981" lon="-4.34077">
        <ele>9</ele>
        <time>2014-05-08T07:25:02Z</time>
      </trkpt>
      <trkpt lat="48.09987" lon="-4.34083">
        <ele>9</ele>
        <time>2014-05-08T07:25:08Z</time>
      </trkpt>
      <trkpt lat="48.09995" lon="-4.34091">
        <ele>10</ele>
        <time>2014-05-08T07:25:13Z</time>
      </trkpt>
      <trkpt lat="48.10002" lon="-4.34098">
        <ele>14</ele>
        <time>2014-05-08T07:25:22Z</time>
      </trkpt>
      <trkpt lat="48.1001" lon="-4.34098">
        <ele>18</ele>
        <time>2014-05-08T07:25:30Z</time>
      </trkpt>
      <trkpt lat="48.10018" lon="-4.34105">
        <ele>18</ele>
        <time>2014-05-08T07:25:35Z</time>
      </trkpt>
      <trkpt lat="48.10025" lon="-4.34107">
        <ele>21</ele>
        <time>2014-05-08T07:25:40Z</time>
      </trkpt>
      <trkpt lat="48.10032" lon="-4.34112">
        <ele>19</ele>
        <time>2014-05-08T07:25:47Z</time>
      </trkpt>
      <trkpt lat="48.10039" lon="-4.3412">
        <ele>16</ele>
        <time>2014-05-08T07:26:13Z</time>
      </trkpt>
      <trkpt lat="48.10054" lon="-4.34124">
        <ele>18</ele>
        <time>2014-05-08T07:26:18Z</time>
      </trkpt>
      <trkpt lat="48.1005" lon="-4.34133">
        <ele>21</ele>
        <time>2014-05-08T07:26:25Z</time>
      </trkpt>
      <trkpt lat="48.10049" lon="-4.34146">
        <ele>21</ele>
        <time>2014-05-08T07:26:34Z</time>
      </trkpt>
      <trkpt lat="48.10045" lon="-4.34158">
        <ele>24</ele>
        <time>2014-05-08T07:26:41Z</time>
      </trkpt>
      <trkpt lat="48.10042" lon="-4.3417">
        <ele>16</ele>
        <time>2014-05-08T07:26:47Z</time>
      </trkpt>
      <trkpt lat="48.10038" lon="-4.34181">
        <ele>10</ele>
        <time>2014-05-08T07:26:53Z</time>
      </trkpt>
      <trkpt lat="48.10035" lon="-4.34192">
        <ele>11</ele>
        <time>2014-05-08T07:27:00Z</time>
      </trkpt>
      <trkpt lat="48.10033" lon="-4.34201">
        <ele>9</ele>
        <time>2014-05-08T07:27:10Z</time>
      </trkpt>
      <trkpt lat="48.10028" lon="-4.34216">
        <ele>7</ele>
        <time>2014-05-08T07:27:15Z</time>
      </trkpt>
      <trkpt lat="48.10027" lon="-4.34232">
        <ele>6</ele>
        <time>2014-05-08T07:27:20Z</time>
      </trkpt>
      <trkpt lat="48.10023" lon="-4.34243">
        <ele>7</ele>
        <time>2014-05-08T07:27:25Z</time>
      </trkpt>
      <trkpt lat="48.10019" lon="-4.34253">
        <ele>15</ele>
        <time>2014-05-08T07:27:31Z</time>
      </trkpt>
      <trkpt lat="48.1002" lon="-4.34266">
        <ele>13</ele>
        <time>2014-05-08T07:27:38Z</time>
      </trkpt>
      <trkpt lat="48.10022" lon="-4.34278">
        <ele>14</ele>
        <time>2014-05-08T07:28:08Z</time>
      </trkpt>
      <trkpt lat="48.10022" lon="-4.3429">
        <ele>14</ele>
        <time>2014-05-08T07:28:13Z</time>
      </trkpt>
      <trkpt lat="48.10028" lon="-4.34297">
        <ele>15</ele>
        <time>2014-05-08T07:28:18Z</time>
      </trkpt>
      <trkpt lat="48.10036" lon="-4.34302">
        <ele>19</ele>
        <time>2014-05-08T07:28:25Z</time>
      </trkpt>
      <trkpt lat="48.10044" lon="-4.34309">
        <ele>18</ele>
        <time>2014-05-08T07:28:32Z</time>
      </trkpt>
      <trkpt lat="48.1005" lon="-4.34315">
        <ele>19</ele>
        <time>2014-05-08T07:28:39Z</time>
      </trkpt>
      <trkpt lat="48.10063" lon="-4.34309">
        <ele>21</ele>
        <time>2014-05-08T07:28:44Z</time>
      </trkpt>
      <trkpt lat="48.10069" lon="-4.34315">
        <ele>22</ele>
        <time>2014-05-08T07:28:50Z</time>
      </trkpt>
      <trkpt lat="48.10076" lon="-4.34316">
        <ele>25</ele>
        <time>2014-05-08T07:28:55Z</time>
      </trkpt>
      <trkpt lat="48.10084" lon="-4.34322">
        <ele>27</ele>
        <time>2014-05-08T07:29:00Z</time>
      </trkpt>
      <trkpt lat="48.10091" lon="-4.34326">
        <ele>26</ele>
        <time>2014-05-08T07:29:05Z</time>
      </trkpt>
      <trkpt lat="48.10097" lon="-4.34336">
        <ele>26</ele>
        <time>2014-05-08T07:29:12Z</time>
      </trkpt>
      <trkpt lat="48.10099" lon="-4.34348">
        <ele>24</ele>
        <time>2014-05-08T07:29:18Z</time>
      </trkpt>
      <trkpt lat="48.10103" lon="-4.34359">
        <ele>22</ele>
        <time>2014-05-08T07:29:27Z</time>
      </trkpt>
      <trkpt lat="48.10108" lon="-4.34369">
        <ele>25</ele>
        <time>2014-05-08T07:29:33Z</time>
      </trkpt>
      <trkpt lat="48.10106" lon="-4.3438">
        <ele>24</ele>
        <time>2014-05-08T07:29:40Z</time>
      </trkpt>
      <trkpt lat="48.10104" lon="-4.34393">
        <ele>23</ele>
        <time>2014-05-08T07:29:45Z</time>
      </trkpt>
      <trkpt lat="48.10102" lon="-4.34404">
        <ele>22</ele>
        <time>2014-05-08T07:29:51Z</time>
      </trkpt>
      <trkpt lat="48.10099" lon="-4.34416">
        <ele>20</ele>
        <time>2014-05-08T07:29:59Z</time>
      </trkpt>
      <trkpt lat="48.10096" lon="-4.34427">
        <ele>21</ele>
        <time>2014-05-08T07:30:06Z</time>
      </trkpt>
      <trkpt lat="48.10091" lon="-4.34436">
        <ele>21</ele>
        <time>2014-05-08T07:30:12Z</time>
      </trkpt>
      <trkpt lat="48.10086" lon="-4.34444">
        <ele>19</ele>
        <time>2014-05-08T07:30:17Z</time>
      </trkpt>
      <trkpt lat="48.10081" lon="-4.34454">
        <ele>16</ele>
        <time>2014-05-08T07:30:23Z</time>
      </trkpt>
      <trkpt lat="48.10075" lon="-4.34463">
        <ele>15</ele>
        <time>2014-05-08T07:30:29Z</time>
      </trkpt>
      <trkpt lat="48.10071" lon="-4.34472">
        <ele>15</ele>
        <time>2014-05-08T07:30:33Z</time>
      </trkpt>
      <trkpt lat="48.10067" lon="-4.34483">
        <ele>11</ele>
        <time>2014-05-08T07:30:41Z</time>
      </trkpt>
      <trkpt lat="48.10063" lon="-4.34494">
        <ele>12</ele>
        <time>2014-05-08T07:30:45Z</time>
      </trkpt>
      <trkpt lat="48.10062" lon="-4.34503">
        <ele>11</ele>
        <time>2014-05-08T07:30:50Z</time>
      </trkpt>
      <trkpt lat="48.1006" lon="-4.34517">
        <ele>13</ele>
        <time>2014-05-08T07:30:55Z</time>
      </trkpt>
      <trkpt lat="48.10057" lon="-4.34529">
        <ele>12</ele>
        <time>2014-05-08T07:31:05Z</time>
      </trkpt>
      <trkpt lat="48.1006" lon="-4.34539">
        <ele>15</ele>
        <time>2014-05-08T07:31:12Z</time>
      </trkpt>
      <trkpt lat="48.10063" lon="-4.34554">
        <ele>13</ele>
        <time>2014-05-08T07:31:16Z</time>
      </trkpt>
      <trkpt lat="48.10065" lon="-4.34565">
        <ele>10</ele>
        <time>2014-05-08T07:31:22Z</time>
      </trkpt>
      <trkpt lat="48.10065" lon="-4.34577">
        <ele>10</ele>
        <time>2014-05-08T07:31:28Z</time>
      </trkpt>
      <trkpt lat="48.10067" lon="-4.34589">
        <ele>10</ele>
        <time>2014-05-08T07:31:34Z</time>
      </trkpt>
      <trkpt lat="48.10067" lon="-4.346">
        <ele>13</ele>
        <time>2014-05-08T07:31:42Z</time>
      </trkpt>
      <trkpt lat="48.10067" lon="-4.34613">
        <ele>13</ele>
        <time>2014-05-08T07:31:47Z</time>
      </trkpt>
      <trkpt lat="48.10072" lon="-4.34625">
        <ele>13</ele>
        <time>2014-05-08T07:31:54Z</time>
      </trkpt>
      <trkpt lat="48.10068" lon="-4.34637">
        <ele>19</ele>
        <time>2014-05-08T07:32:03Z</time>
      </trkpt>
      <trkpt lat="48.10073" lon="-4.34645">
        <ele>21</ele>
        <time>2014-05-08T07:32:10Z</time>
      </trkpt>
      <trkpt lat="48.10081" lon="-4.34652">
        <ele>22</ele>
        <time>2014-05-08T07:32:14Z</time>
      </trkpt>
      <trkpt lat="48.10088" lon="-4.3466">
        <ele>21</ele>
        <time>2014-05-08T07:32:19Z</time>
      </trkpt>
      <trkpt lat="48.10088" lon="-4.34673">
        <ele>18</ele>
        <time>2014-05-08T07:32:27Z</time>
      </trkpt>
      <trkpt lat="48.10092" lon="-4.34685">
        <ele>16</ele>
        <time>2014-05-08T07:32:32Z</time>
      </trkpt>
      <trkpt lat="48.10094" lon="-4.34698">
        <ele>19</ele>
        <time>2014-05-08T07:32:38Z</time>
      </trkpt>
      <trkpt lat="48.101" lon="-4.34707">
        <ele>19</ele>
        <time>2014-05-08T07:32:45Z</time>
      </trkpt>
      <trkpt lat="48.10109" lon="-4.34708">
        <ele>19</ele>
        <time>2014-05-08T07:32:52Z</time>
      </trkpt>
      <trkpt lat="48.10117" lon="-4.34707">
        <ele>11</ele>
        <time>2014-05-08T07:32:59Z</time>
      </trkpt>
      <trkpt lat="48.10123" lon="-4.34716">
        <ele>10</ele>
        <time>2014-05-08T07:33:05Z</time>
      </trkpt>
      <trkpt lat="48.10128" lon="-4.34727">
        <ele>12</ele>
        <time>2014-05-08T07:33:15Z</time>
      </trkpt>
      <trkpt lat="48.10136" lon="-4.34729">
        <ele>11</ele>
        <time>2014-05-08T07:33:21Z</time>
      </trkpt>
      <trkpt lat="48.10142" lon="-4.34734">
        <ele>13</ele>
        <time>2014-05-08T07:33:29Z</time>
      </trkpt>
      <trkpt lat="48.10149" lon="-4.34737">
        <ele>12</ele>
        <time>2014-05-08T07:33:33Z</time>
      </trkpt>
      <trkpt lat="48.10158" lon="-4.34737">
        <ele>11</ele>
        <time>2014-05-08T07:33:40Z</time>
      </trkpt>
      <trkpt lat="48.10165" lon="-4.34744">
        <ele>14</ele>
        <time>2014-05-08T07:33:49Z</time>
      </trkpt>
      <trkpt lat="48.1017" lon="-4.34754">
        <ele>16</ele>
        <time>2014-05-08T07:33:54Z</time>
      </trkpt>
      <trkpt lat="48.10176" lon="-4.34764">
        <ele>16</ele>
        <time>2014-05-08T07:34:00Z</time>
      </trkpt>
      <trkpt lat="48.10182" lon="-4.34767">
        <ele>16</ele>
        <time>2014-05-08T07:34:06Z</time>
      </trkpt>
      <trkpt lat="48.10191" lon="-4.34771">
        <ele>18</ele>
        <time>2014-05-08T07:34:10Z</time>
      </trkpt>
      <trkpt lat="48.10197" lon="-4.3478">
        <ele>20</ele>
        <time>2014-05-08T07:34:15Z</time>
      </trkpt>
      <trkpt lat="48.10205" lon="-4.34784">
        <ele>18</ele>
        <time>2014-05-08T07:34:22Z</time>
      </trkpt>
      <trkpt lat="48.1021" lon="-4.34795">
        <ele>17</ele>
        <time>2014-05-08T07:34:29Z</time>
      </trkpt>
      <trkpt lat="48.10211" lon="-4.34807">
        <ele>18</ele>
        <time>2014-05-08T07:34:34Z</time>
      </trkpt>
      <trkpt lat="48.10209" lon="-4.34818">
        <ele>22</ele>
        <time>2014-05-08T07:34:38Z</time>
      </trkpt>
      <trkpt lat="48.10211" lon="-4.34829">
        <ele>18</ele>
        <time>2014-05-08T07:34:44Z</time>
      </trkpt>
      <trkpt lat="48.10211" lon="-4.34842">
        <ele>18</ele>
        <time>2014-05-08T07:34:49Z</time>
      </trkpt>
      <trkpt lat="48.10213" lon="-4.34854">
        <ele>22</ele>
        <time>2014-05-08T07:34:55Z</time>
      </trkpt>
      <trkpt lat="48.10216" lon="-4.34864">
        <ele>21</ele>
        <time>2014-05-08T07:35:00Z</time>
      </trkpt>
      <trkpt lat="48.10217" lon="-4.34877">
        <ele>19</ele>
        <time>2014-05-08T07:35:07Z</time>
      </trkpt>
      <trkpt lat="48.10216" lon="-4.34889">
        <ele>18</ele>
        <time>2014-05-08T07:35:13Z</time>
      </trkpt>
      <trkpt lat="48.10212" lon="-4.34901">
        <ele>15</ele>
        <time>2014-05-08T07:35:22Z</time>
      </trkpt>
      <trkpt lat="48.10215" lon="-4.34912">
        <ele>15</ele>
        <time>2014-05-08T07:35:29Z</time>
      </trkpt>
      <trkpt lat="48.10214" lon="-4.34924">
        <ele>15</ele>
        <time>2014-05-08T07:35:35Z</time>
      </trkpt>
      <trkpt lat="48.10212" lon="-4.34937">
        <ele>15</ele>
        <time>2014-05-08T07:35:41Z</time>
      </trkpt>
      <trkpt lat="48.1021" lon="-4.3495">
        <ele>14</ele>
        <time>2014-05-08T07:35:47Z</time>
      </trkpt>
      <trkpt lat="48.10208" lon="-4.34961">
        <ele>14</ele>
        <time>2014-05-08T07:35:53Z</time>
      </trkpt>
      <trkpt lat="48.10208" lon="-4.34974">
        <ele>14</ele>
        <time>2014-05-08T07:35:59Z</time>
      </trkpt>
      <trkpt lat="48.10208" lon="-4.34987">
        <ele>12</ele>
        <time>2014-05-08T07:36:05Z</time>
      </trkpt>
      <trkpt lat="48.10206" lon="-4.34999">
        <ele>12</ele>
        <time>2014-05-08T07:36:17Z</time>
      </trkpt>
      <trkpt lat="48.10207" lon="-4.35012">
        <ele>12</ele>
        <time>2014-05-08T07:36:21Z</time>
      </trkpt>
      <trkpt lat="48.10208" lon="-4.35025">
        <ele>10</ele>
        <time>2014-05-08T07:36:28Z</time>
      </trkpt>
      <trkpt lat="48.10208" lon="-4.35039">
        <ele>10</ele>
        <time>2014-05-08T07:36:33Z</time>
      </trkpt>
      <trkpt lat="48.10209" lon="-4.3505">
        <ele>11</ele>
        <time>2014-05-08T07:36:39Z</time>
      </trkpt>
      <trkpt lat="48.10213" lon="-4.35059">
        <ele>12</ele>
        <time>2014-05-08T07:36:44Z</time>
      </trkpt>
      <trkpt lat="48.10214" lon="-4.35071">
        <ele>14</ele>
        <time>2014-05-08T07:36:49Z</time>
      </trkpt>
      <trkpt lat="48.10216" lon="-4.35083">
        <ele>15</ele>
        <time>2014-05-08T07:36:55Z</time>
      </trkpt>
      <trkpt lat="48.10218" lon="-4.35094">
        <ele>16</ele>
        <time>2014-05-08T07:37:01Z</time>
      </trkpt>
      <trkpt lat="48.10218" lon="-4.35106">
        <ele>15</ele>
        <time>2014-05-08T07:37:07Z</time>
      </trkpt>
      <trkpt lat="48.10218" lon="-4.35118">
        <ele>16</ele>
        <time>2014-05-08T07:37:13Z</time>
      </trkpt>
      <trkpt lat="48.10216" lon="-4.35131">
        <ele>14</ele>
        <time>2014-05-08T07:37:20Z</time>
      </trkpt>
      <trkpt lat="48.10215" lon="-4.35142">
        <ele>13</ele>
        <time>2014-05-08T07:37:25Z</time>
      </trkpt>
      <trkpt lat="48.10211" lon="-4.35154">
        <ele>13</ele>
        <time>2014-05-08T07:37:32Z</time>
      </trkpt>
      <trkpt lat="48.10206" lon="-4.35169">
        <ele>14</ele>
        <time>2014-05-08T07:37:36Z</time>
      </trkpt>
      <trkpt lat="48.10207" lon="-4.35182">
        <ele>16</ele>
        <time>2014-05-08T07:37:42Z</time>
      </trkpt>
      <trkpt lat="48.10209" lon="-4.35194">
        <ele>15</ele>
        <time>2014-05-08T07:37:48Z</time>
      </trkpt>
      <trkpt lat="48.1021" lon="-4.35207">
        <ele>14</ele>
        <time>2014-05-08T07:37:55Z</time>
      </trkpt>
      <trkpt lat="48.10209" lon="-4.3522">
        <ele>14</ele>
        <time>2014-05-08T07:38:03Z</time>
      </trkpt>
      <trkpt lat="48.10209" lon="-4.35231">
        <ele>15</ele>
        <time>2014-05-08T07:38:08Z</time>
      </trkpt>
      <trkpt lat="48.10212" lon="-4.35243">
        <ele>14</ele>
        <time>2014-05-08T07:38:15Z</time>
      </trkpt>
      <trkpt lat="48.10217" lon="-4.35254">
        <ele>10</ele>
        <time>2014-05-08T07:38:21Z</time>
      </trkpt>
      <trkpt lat="48.10221" lon="-4.35266">
        <ele>10</ele>
        <time>2014-05-08T07:38:28Z</time>
      </trkpt>
      <trkpt lat="48.10225" lon="-4.35275">
        <ele>12</ele>
        <time>2014-05-08T07:38:35Z</time>
      </trkpt>
      <trkpt lat="48.10233" lon="-4.35282">
        <ele>13</ele>
        <time>2014-05-08T07:38:41Z</time>
      </trkpt>
      <trkpt lat="48.10239" lon="-4.35289">
        <ele>13</ele>
        <time>2014-05-08T07:38:47Z</time>
      </trkpt>
      <trkpt lat="48.10245" lon="-4.35297">
        <ele>13</ele>
        <time>2014-05-08T07:38:52Z</time>
      </trkpt>
      <trkpt lat="48.10253" lon="-4.35301">
        <ele>9</ele>
        <time>2014-05-08T07:38:59Z</time>
      </trkpt>
      <trkpt lat="48.10259" lon="-4.35307">
        <ele>13</ele>
        <time>2014-05-08T07:39:06Z</time>
      </trkpt>
      <trkpt lat="48.10266" lon="-4.35317">
        <ele>14</ele>
        <time>2014-05-08T07:39:12Z</time>
      </trkpt>
      <trkpt lat="48.10268" lon="-4.35328">
        <ele>12</ele>
        <time>2014-05-08T07:39:17Z</time>
      </trkpt>
      <trkpt lat="48.10271" lon="-4.35341">
        <ele>13</ele>
        <time>2014-05-08T07:39:23Z</time>
      </trkpt>
      <trkpt lat="48.10274" lon="-4.35352">
        <ele>14</ele>
        <time>2014-05-08T07:39:30Z</time>
      </trkpt>
      <trkpt lat="48.10277" lon="-4.35364">
        <ele>17</ele>
        <time>2014-05-08T07:41:06Z</time>
      </trkpt>
      <trkpt lat="48.10277" lon="-4.35375">
        <ele>15</ele>
        <time>2014-05-08T07:41:20Z</time>
      </trkpt>
      <trkpt lat="48.10279" lon="-4.35387">
        <ele>15</ele>
        <time>2014-05-08T07:41:25Z</time>
      </trkpt>
      <trkpt lat="48.10281" lon="-4.35398">
        <ele>14</ele>
        <time>2014-05-08T07:41:30Z</time>
      </trkpt>
      <trkpt lat="48.10285" lon="-4.3541">
        <ele>13</ele>
        <time>2014-05-08T07:41:37Z</time>
      </trkpt>
      <trkpt lat="48.10289" lon="-4.3542">
        <ele>11</ele>
        <time>2014-05-08T07:41:43Z</time>
      </trkpt>
      <trkpt lat="48.10295" lon="-4.35427">
        <ele>11</ele>
        <time>2014-05-08T07:41:48Z</time>
      </trkpt>
      <trkpt lat="48.103" lon="-4.35438">
        <ele>11</ele>
        <time>2014-05-08T07:41:54Z</time>
      </trkpt>
      <trkpt lat="48.10304" lon="-4.3545">
        <ele>8</ele>
        <time>2014-05-08T07:42:01Z</time>
      </trkpt>
      <trkpt lat="48.10313" lon="-4.35449">
        <ele>8</ele>
        <time>2014-05-08T07:42:07Z</time>
      </trkpt>
      <trkpt lat="48.10323" lon="-4.3546">
        <ele>9</ele>
        <time>2014-05-08T07:42:11Z</time>
      </trkpt>
      <trkpt lat="48.10329" lon="-4.35467">
        <ele>6</ele>
        <time>2014-05-08T07:42:18Z</time>
      </trkpt>
      <trkpt lat="48.10337" lon="-4.35469">
        <ele>4</ele>
        <time>2014-05-08T07:42:25Z</time>
      </trkpt>
      <trkpt lat="48.10343" lon="-4.35476">
        <ele>1</ele>
        <time>2014-05-08T07:42:30Z</time>
      </trkpt>
      <trkpt lat="48.10352" lon="-4.35478">
        <ele>4.4</ele>
        <time>2014-05-08T07:42:35Z</time>
      </trkpt>
      <trkpt lat="48.10359" lon="-4.35482">
        <ele>3.7</ele>
        <time>2014-05-08T07:42:41Z</time>
      </trkpt>
      <trkpt lat="48.10367" lon="-4.35486">
        <ele>3</ele>
        <time>2014-05-08T07:42:49Z</time>
      </trkpt>
      <trkpt lat="48.10373" lon="-4.35494">
        <ele>7</ele>
        <time>2014-05-08T07:42:54Z</time>
      </trkpt>
      <trkpt lat="48.1038" lon="-4.35502">
        <ele>5</ele>
        <time>2014-05-08T07:42:59Z</time>
      </trkpt>
      <trkpt lat="48.10384" lon="-4.35511">
        <ele>2</ele>
        <time>2014-05-08T07:43:03Z</time>
      </trkpt>
      <trkpt lat="48.10391" lon="-4.35519">
        <ele>3</ele>
        <time>2014-05-08T07:43:10Z</time>
      </trkpt>
      <trkpt lat="48.10399" lon="-4.35519">
        <ele>7</ele>
        <time>2014-05-08T07:43:16Z</time>
      </trkpt>
      <trkpt lat="48.10405" lon="-4.35529">
        <ele>5</ele>
        <time>2014-05-08T07:43:22Z</time>
      </trkpt>
      <trkpt lat="48.10409" lon="-4.3554">
        <ele>7</ele>
        <time>2014-05-08T07:43:29Z</time>
      </trkpt>
      <trkpt lat="48.10404" lon="-4.35548">
        <ele>8</ele>
        <time>2014-05-08T07:43:53Z</time>
      </trkpt>
      <trkpt lat="48.10401" lon="-4.3556">
        <ele>7</ele>
        <time>2014-05-08T07:44:01Z</time>
      </trkpt>
      <trkpt lat="48.10409" lon="-4.35566">
        <ele>13</ele>
        <time>2014-05-08T07:44:08Z</time>
      </trkpt>
      <trkpt lat="48.10416" lon="-4.35571">
        <ele>14</ele>
        <time>2014-05-08T07:44:14Z</time>
      </trkpt>
      <trkpt lat="48.10409" lon="-4.35561">
        <ele>12</ele>
        <time>2014-05-08T07:44:28Z</time>
      </trkpt>
      <trkpt lat="48.10403" lon="-4.35569">
        <ele>7</ele>
        <time>2014-05-08T07:44:43Z</time>
      </trkpt>
      <trkpt lat="48.10394" lon="-4.35571">
        <ele>10</ele>
        <time>2014-05-08T07:45:15Z</time>
      </trkpt>
      <trkpt lat="48.10391" lon="-4.35583">
        <ele>10</ele>
        <time>2014-05-08T07:45:22Z</time>
      </trkpt>
      <trkpt lat="48.10389" lon="-4.35596">
        <ele>14</ele>
        <time>2014-05-08T07:45:44Z</time>
      </trkpt>
      <trkpt lat="48.10392" lon="-4.35605">
        <ele>15</ele>
        <time>2014-05-08T07:47:52Z</time>
      </trkpt>
      <trkpt lat="48.10396" lon="-4.35615">
        <ele>19</ele>
        <time>2014-05-08T07:47:57Z</time>
      </trkpt>
      <trkpt lat="48.10402" lon="-4.35623">
        <ele>21</ele>
        <time>2014-05-08T07:48:04Z</time>
      </trkpt>
      <trkpt lat="48.10407" lon="-4.35638">
        <ele>22</ele>
        <time>2014-05-08T07:48:08Z</time>
      </trkpt>
      <trkpt lat="48.10412" lon="-4.35646">
        <ele>20</ele>
        <time>2014-05-08T07:48:12Z</time>
      </trkpt>
      <trkpt lat="48.10417" lon="-4.35655">
        <ele>19</ele>
        <time>2014-05-08T07:48:18Z</time>
      </trkpt>
      <trkpt lat="48.10424" lon="-4.3566">
        <ele>18</ele>
        <time>2014-05-08T07:48:24Z</time>
      </trkpt>
      <trkpt lat="48.10431" lon="-4.35667">
        <ele>22</ele>
        <time>2014-05-08T07:48:30Z</time>
      </trkpt>
      <trkpt lat="48.10436" lon="-4.35674">
        <ele>21</ele>
        <time>2014-05-08T07:48:34Z</time>
      </trkpt>
      <trkpt lat="48.10439" lon="-4.35688">
        <ele>23</ele>
        <time>2014-05-08T07:48:39Z</time>
      </trkpt>
      <trkpt lat="48.10445" lon="-4.35697">
        <ele>24</ele>
        <time>2014-05-08T07:48:45Z</time>
      </trkpt>
      <trkpt lat="48.10452" lon="-4.35704">
        <ele>30</ele>
        <time>2014-05-08T07:48:53Z</time>
      </trkpt>
      <trkpt lat="48.10458" lon="-4.35713">
        <ele>34</ele>
        <time>2014-05-08T07:48:59Z</time>
      </trkpt>
      <trkpt lat="48.10465" lon="-4.3572">
        <ele>32</ele>
        <time>2014-05-08T07:49:05Z</time>
      </trkpt>
      <trkpt lat="48.10471" lon="-4.35729">
        <ele>35</ele>
        <time>2014-05-08T07:49:11Z</time>
      </trkpt>
      <trkpt lat="48.10475" lon="-4.35739">
        <ele>33</ele>
        <time>2014-05-08T07:49:16Z</time>
      </trkpt>
      <trkpt lat="48.10482" lon="-4.35745">
        <ele>33</ele>
        <time>2014-05-08T07:49:22Z</time>
      </trkpt>
      <trkpt lat="48.10486" lon="-4.35756">
        <ele>31</ele>
        <time>2014-05-08T07:49:28Z</time>
      </trkpt>
      <trkpt lat="48.10487" lon="-4.35767">
        <ele>33</ele>
        <time>2014-05-08T07:49:34Z</time>
      </trkpt>
      <trkpt lat="48.10484" lon="-4.35779">
        <ele>34</ele>
        <time>2014-05-08T07:49:42Z</time>
      </trkpt>
      <trkpt lat="48.10479" lon="-4.3579">
        <ele>33</ele>
        <time>2014-05-08T07:49:48Z</time>
      </trkpt>
      <trkpt lat="48.10473" lon="-4.358">
        <ele>26</ele>
        <time>2014-05-08T07:49:56Z</time>
      </trkpt>
      <trkpt lat="48.10478" lon="-4.3581">
        <ele>26</ele>
        <time>2014-05-08T07:50:01Z</time>
      </trkpt>
      <trkpt lat="48.10481" lon="-4.35832">
        <ele>28</ele>
        <time>2014-05-08T07:50:06Z</time>
      </trkpt>
      <trkpt lat="48.10489" lon="-4.35839">
        <ele>25</ele>
        <time>2014-05-08T07:50:12Z</time>
      </trkpt>
      <trkpt lat="48.10492" lon="-4.35848">
        <ele>22</ele>
        <time>2014-05-08T07:50:20Z</time>
      </trkpt>
      <trkpt lat="48.10497" lon="-4.35856">
        <ele>20</ele>
        <time>2014-05-08T07:50:25Z</time>
      </trkpt>
      <trkpt lat="48.105" lon="-4.35869">
        <ele>23</ele>
        <time>2014-05-08T07:50:31Z</time>
      </trkpt>
      <trkpt lat="48.10503" lon="-4.3588">
        <ele>32</ele>
        <time>2014-05-08T07:50:38Z</time>
      </trkpt>
      <trkpt lat="48.10507" lon="-4.35891">
        <ele>31</ele>
        <time>2014-05-08T07:50:45Z</time>
      </trkpt>
      <trkpt lat="48.10513" lon="-4.35898">
        <ele>30</ele>
        <time>2014-05-08T07:50:50Z</time>
      </trkpt>
      <trkpt lat="48.10521" lon="-4.35904">
        <ele>26</ele>
        <time>2014-05-08T07:50:56Z</time>
      </trkpt>
      <trkpt lat="48.10525" lon="-4.35914">
        <ele>24</ele>
        <time>2014-05-08T07:51:02Z</time>
      </trkpt>
      <trkpt lat="48.10531" lon="-4.35925">
        <ele>23</ele>
        <time>2014-05-08T07:51:08Z</time>
      </trkpt>
      <trkpt lat="48.10536" lon="-4.35934">
        <ele>19</ele>
        <time>2014-05-08T07:51:14Z</time>
      </trkpt>
      <trkpt lat="48.10541" lon="-4.35943">
        <ele>21</ele>
        <time>2014-05-08T07:51:20Z</time>
      </trkpt>
      <trkpt lat="48.10548" lon="-4.3595">
        <ele>19</ele>
        <time>2014-05-08T07:51:25Z</time>
      </trkpt>
      <trkpt lat="48.10553" lon="-4.3596">
        <ele>17</ele>
        <time>2014-05-08T07:51:32Z</time>
      </trkpt>
      <trkpt lat="48.10561" lon="-4.35964">
        <ele>14</ele>
        <time>2014-05-08T07:51:42Z</time>
      </trkpt>
      <trkpt lat="48.10572" lon="-4.35961">
        <ele>12</ele>
        <time>2014-05-08T07:51:47Z</time>
      </trkpt>
      <trkpt lat="48.10579" lon="-4.35967">
        <ele>13</ele>
        <time>2014-05-08T07:51:53Z</time>
      </trkpt>
      <trkpt lat="48.10587" lon="-4.35968">
        <ele>14</ele>
        <time>2014-05-08T07:51:59Z</time>
      </trkpt>
      <trkpt lat="48.10594" lon="-4.35961">
        <ele>15</ele>
        <time>2014-05-08T07:52:06Z</time>
      </trkpt>
      <trkpt lat="48.10603" lon="-4.35961">
        <ele>16</ele>
        <time>2014-05-08T07:52:14Z</time>
      </trkpt>
      <trkpt lat="48.10611" lon="-4.3596">
        <ele>14</ele>
        <time>2014-05-08T07:52:24Z</time>
      </trkpt>
      <trkpt lat="48.10619" lon="-4.35955">
        <ele>15</ele>
        <time>2014-05-08T07:52:34Z</time>
      </trkpt>
      <trkpt lat="48.10627" lon="-4.35953">
        <ele>19</ele>
        <time>2014-05-08T07:52:49Z</time>
      </trkpt>
      <trkpt lat="48.10631" lon="-4.35964">
        <ele>24</ele>
        <time>2014-05-08T07:52:57Z</time>
      </trkpt>
      <trkpt lat="48.10636" lon="-4.35974">
        <ele>25</ele>
        <time>2014-05-08T07:53:02Z</time>
      </trkpt>
      <trkpt lat="48.1064" lon="-4.35985">
        <ele>23</ele>
        <time>2014-05-08T07:53:09Z</time>
      </trkpt>
      <trkpt lat="48.10644" lon="-4.35997">
        <ele>27</ele>
        <time>2014-05-08T07:53:14Z</time>
      </trkpt>
      <trkpt lat="48.10646" lon="-4.36007">
        <ele>31</ele>
        <time>2014-05-08T07:53:21Z</time>
      </trkpt>
      <trkpt lat="48.1065" lon="-4.36017">
        <ele>28</ele>
        <time>2014-05-08T07:53:26Z</time>
      </trkpt>
      <trkpt lat="48.10649" lon="-4.3603">
        <ele>30</ele>
        <time>2014-05-08T07:53:31Z</time>
      </trkpt>
      <trkpt lat="48.10647" lon="-4.36043">
        <ele>29</ele>
        <time>2014-05-08T07:53:39Z</time>
      </trkpt>
      <trkpt lat="48.10651" lon="-4.36055">
        <ele>25</ele>
        <time>2014-05-08T07:53:49Z</time>
      </trkpt>
      <trkpt lat="48.10659" lon="-4.36061">
        <ele>23</ele>
        <time>2014-05-08T07:54:07Z</time>
      </trkpt>
      <trkpt lat="48.10664" lon="-4.36068">
        <ele>27</ele>
        <time>2014-05-08T07:54:19Z</time>
      </trkpt>
      <trkpt lat="48.10666" lon="-4.3608">
        <ele>25</ele>
        <time>2014-05-08T07:54:42Z</time>
      </trkpt>
      <trkpt lat="48.1067" lon="-4.36092">
        <ele>28</ele>
        <time>2014-05-08T07:54:47Z</time>
      </trkpt>
      <trkpt lat="48.10676" lon="-4.36101">
        <ele>32</ele>
        <time>2014-05-08T07:54:52Z</time>
      </trkpt>
      <trkpt lat="48.10683" lon="-4.36104">
        <ele>25</ele>
        <time>2014-05-08T07:55:26Z</time>
      </trkpt>
      <trkpt lat="48.10697" lon="-4.36113">
        <ele>22</ele>
        <time>2014-05-08T07:55:30Z</time>
      </trkpt>
      <trkpt lat="48.10708" lon="-4.36118">
        <ele>22</ele>
        <time>2014-05-08T07:55:34Z</time>
      </trkpt>
      <trkpt lat="48.10719" lon="-4.36122">
        <ele>22</ele>
        <time>2014-05-08T07:55:39Z</time>
      </trkpt>
      <trkpt lat="48.10725" lon="-4.36128">
        <ele>19</ele>
        <time>2014-05-08T07:55:49Z</time>
      </trkpt>
      <trkpt lat="48.10732" lon="-4.36134">
        <ele>20</ele>
        <time>2014-05-08T07:55:54Z</time>
      </trkpt>
      <trkpt lat="48.10741" lon="-4.36136">
        <ele>17</ele>
        <time>2014-05-08T07:56:02Z</time>
      </trkpt>
      <trkpt lat="48.10749" lon="-4.36132">
        <ele>21</ele>
        <time>2014-05-08T07:56:08Z</time>
      </trkpt>
      <trkpt lat="48.10756" lon="-4.36135">
        <ele>19</ele>
        <time>2014-05-08T07:56:15Z</time>
      </trkpt>
      <trkpt lat="48.10761" lon="-4.3614">
        <ele>18</ele>
        <time>2014-05-08T07:56:22Z</time>
      </trkpt>
      <trkpt lat="48.10767" lon="-4.3615">
        <ele>18</ele>
        <time>2014-05-08T07:56:27Z</time>
      </trkpt>
      <trkpt lat="48.10773" lon="-4.36156">
        <ele>19</ele>
        <time>2014-05-08T07:56:33Z</time>
      </trkpt>
      <trkpt lat="48.10778" lon="-4.36161">
        <ele>20</ele>
        <time>2014-05-08T07:56:40Z</time>
      </trkpt>
      <trkpt lat="48.10787" lon="-4.36161">
        <ele>23</ele>
        <time>2014-05-08T07:56:44Z</time>
      </trkpt>
      <trkpt lat="48.10795" lon="-4.36161">
        <ele>25</ele>
        <time>2014-05-08T07:56:50Z</time>
      </trkpt>
      <trkpt lat="48.10803" lon="-4.3616">
        <ele>27</ele>
        <time>2014-05-08T07:56:54Z</time>
      </trkpt>
      <trkpt lat="48.1081" lon="-4.36161">
        <ele>27</ele>
        <time>2014-05-08T07:57:02Z</time>
      </trkpt>
      <trkpt lat="48.10818" lon="-4.36167">
        <ele>30</ele>
        <time>2014-05-08T07:57:07Z</time>
      </trkpt>
      <trkpt lat="48.10824" lon="-4.36172">
        <ele>25</ele>
        <time>2014-05-08T07:57:12Z</time>
      </trkpt>
      <trkpt lat="48.10832" lon="-4.36177">
        <ele>23</ele>
        <time>2014-05-08T07:57:18Z</time>
      </trkpt>
      <trkpt lat="48.1084" lon="-4.36179">
        <ele>22</ele>
        <time>2014-05-08T07:57:27Z</time>
      </trkpt>
      <trkpt lat="48.10844" lon="-4.36186">
        <ele>17</ele>
        <time>2014-05-08T07:57:33Z</time>
      </trkpt>
      <trkpt lat="48.10851" lon="-4.36194">
        <ele>17</ele>
        <time>2014-05-08T07:57:38Z</time>
      </trkpt>
      <trkpt lat="48.10859" lon="-4.362">
        <ele>18</ele>
        <time>2014-05-08T07:57:43Z</time>
      </trkpt>
      <trkpt lat="48.10866" lon="-4.36203">
        <ele>15</ele>
        <time>2014-05-08T07:57:49Z</time>
      </trkpt>
      <trkpt lat="48.10875" lon="-4.36202">
        <ele>10</ele>
        <time>2014-05-08T07:58:10Z</time>
      </trkpt>
      <trkpt lat="48.10883" lon="-4.36205">
        <ele>12</ele>
        <time>2014-05-08T07:58:46Z</time>
      </trkpt>
      <trkpt lat="48.10891" lon="-4.36211">
        <ele>17</ele>
        <time>2014-05-08T08:00:40Z</time>
      </trkpt>
      <trkpt lat="48.10897" lon="-4.36218">
        <ele>16</ele>
        <time>2014-05-08T08:00:48Z</time>
      </trkpt>
      <trkpt lat="48.10902" lon="-4.36229">
        <ele>19</ele>
        <time>2014-05-08T08:00:58Z</time>
      </trkpt>
      <trkpt lat="48.10906" lon="-4.3624">
        <ele>18</ele>
        <time>2014-05-08T08:01:05Z</time>
      </trkpt>
      <trkpt lat="48.10909" lon="-4.36251">
        <ele>17</ele>
        <time>2014-05-08T08:01:12Z</time>
      </trkpt>
      <trkpt lat="48.10908" lon="-4.36263">
        <ele>22</ele>
        <time>2014-05-08T08:01:18Z</time>
      </trkpt>
      <trkpt lat="48.10908" lon="-4.36276">
        <ele>22</ele>
        <time>2014-05-08T08:01:26Z</time>
      </trkpt>
      <trkpt lat="48.10911" lon="-4.36287">
        <ele>20</ele>
        <time>2014-05-08T08:01:32Z</time>
      </trkpt>
      <trkpt lat="48.10911" lon="-4.363">
        <ele>21</ele>
        <time>2014-05-08T08:01:40Z</time>
      </trkpt>
      <trkpt lat="48.10905" lon="-4.36308">
        <ele>31</ele>
        <time>2014-05-08T08:02:00Z</time>
      </trkpt>
      <trkpt lat="48.10901" lon="-4.36317">
        <ele>27</ele>
        <time>2014-05-08T08:02:10Z</time>
      </trkpt>
      <trkpt lat="48.10904" lon="-4.3633">
        <ele>27</ele>
        <time>2014-05-08T08:02:17Z</time>
      </trkpt>
      <trkpt lat="48.10904" lon="-4.36341">
        <ele>25</ele>
        <time>2014-05-08T08:02:23Z</time>
      </trkpt>
      <trkpt lat="48.10906" lon="-4.36352">
        <ele>28</ele>
        <time>2014-05-08T08:02:29Z</time>
      </trkpt>
      <trkpt lat="48.10903" lon="-4.36364">
        <ele>24</ele>
        <time>2014-05-08T08:02:37Z</time>
      </trkpt>
      <trkpt lat="48.109" lon="-4.36375">
        <ele>28</ele>
        <time>2014-05-08T08:02:45Z</time>
      </trkpt>
      <trkpt lat="48.10892" lon="-4.36377">
        <ele>28</ele>
        <time>2014-05-08T08:02:58Z</time>
      </trkpt>
      <trkpt lat="48.10885" lon="-4.36385">
        <ele>24</ele>
        <time>2014-05-08T08:03:07Z</time>
      </trkpt>
      <trkpt lat="48.10879" lon="-4.36392">
        <ele>26</ele>
        <time>2014-05-08T08:03:24Z</time>
      </trkpt>
      <trkpt lat="48.10876" lon="-4.36403">
        <ele>24</ele>
        <time>2014-05-08T08:03:34Z</time>
      </trkpt>
      <trkpt lat="48.10877" lon="-4.36417">
        <ele>28</ele>
        <time>2014-05-08T08:03:42Z</time>
      </trkpt>
      <trkpt lat="48.10874" lon="-4.36428">
        <ele>24</ele>
        <time>2014-05-08T08:03:56Z</time>
      </trkpt>
      <trkpt lat="48.10876" lon="-4.3644">
        <ele>23</ele>
        <time>2014-05-08T08:04:06Z</time>
      </trkpt>
      <trkpt lat="48.10882" lon="-4.36449">
        <ele>19</ele>
        <time>2014-05-08T08:04:18Z</time>
      </trkpt>
      <trkpt lat="48.10883" lon="-4.36461">
        <ele>18</ele>
        <time>2014-05-08T08:04:22Z</time>
      </trkpt>
      <trkpt lat="48.10885" lon="-4.36472">
        <ele>24</ele>
        <time>2014-05-08T08:04:43Z</time>
      </trkpt>
      <trkpt lat="48.10882" lon="-4.36483">
        <ele>21</ele>
        <time>2014-05-08T08:04:47Z</time>
      </trkpt>
      <trkpt lat="48.10878" lon="-4.36494">
        <ele>23</ele>
        <time>2014-05-08T08:04:52Z</time>
      </trkpt>
      <trkpt lat="48.10879" lon="-4.36507">
        <ele>23</ele>
        <time>2014-05-08T08:04:57Z</time>
      </trkpt>
      <trkpt lat="48.1088" lon="-4.3652">
        <ele>25</ele>
        <time>2014-05-08T08:05:02Z</time>
      </trkpt>
      <trkpt lat="48.10879" lon="-4.36533">
        <ele>24</ele>
        <time>2014-05-08T08:05:10Z</time>
      </trkpt>
      <trkpt lat="48.10876" lon="-4.36545">
        <ele>27</ele>
        <time>2014-05-08T08:05:17Z</time>
      </trkpt>
      <trkpt lat="48.10882" lon="-4.36555">
        <ele>27</ele>
        <time>2014-05-08T08:05:30Z</time>
      </trkpt>
      <trkpt lat="48.10885" lon="-4.36565">
        <ele>28</ele>
        <time>2014-05-08T08:05:41Z</time>
      </trkpt>
      <trkpt lat="48.10893" lon="-4.36572">
        <ele>29</ele>
        <time>2014-05-08T08:05:47Z</time>
      </trkpt>
      <trkpt lat="48.10894" lon="-4.36584">
        <ele>26</ele>
        <time>2014-05-08T08:05:53Z</time>
      </trkpt>
      <trkpt lat="48.10895" lon="-4.36597">
        <ele>17</ele>
        <time>2014-05-08T08:06:01Z</time>
      </trkpt>
      <trkpt lat="48.10898" lon="-4.36608">
        <ele>16</ele>
        <time>2014-05-08T08:06:08Z</time>
      </trkpt>
      <trkpt lat="48.10902" lon="-4.3662">
        <ele>14</ele>
        <time>2014-05-08T08:06:18Z</time>
      </trkpt>
      <trkpt lat="48.10907" lon="-4.3663">
        <ele>15</ele>
        <time>2014-05-08T08:06:25Z</time>
      </trkpt>
      <trkpt lat="48.10911" lon="-4.36637">
        <ele>16</ele>
        <time>2014-05-08T08:06:32Z</time>
      </trkpt>
      <trkpt lat="48.10918" lon="-4.3665">
        <ele>18</ele>
        <time>2014-05-08T08:06:37Z</time>
      </trkpt>
      <trkpt lat="48.10924" lon="-4.36657">
        <ele>15</ele>
        <time>2014-05-08T08:06:42Z</time>
      </trkpt>
      <trkpt lat="48.10927" lon="-4.36668">
        <ele>14</ele>
        <time>2014-05-08T08:06:50Z</time>
      </trkpt>
      <trkpt lat="48.10929" lon="-4.36681">
        <ele>18</ele>
        <time>2014-05-08T08:07:00Z</time>
      </trkpt>
      <trkpt lat="48.10924" lon="-4.36692">
        <ele>17</ele>
        <time>2014-05-08T08:07:04Z</time>
      </trkpt>
      <trkpt lat="48.1093" lon="-4.36699">
        <ele>19</ele>
        <time>2014-05-08T08:07:14Z</time>
      </trkpt>
      <trkpt lat="48.10934" lon="-4.36708">
        <ele>20</ele>
        <time>2014-05-08T08:07:19Z</time>
      </trkpt>
      <trkpt lat="48.1094" lon="-4.36719">
        <ele>14</ele>
        <time>2014-05-08T08:07:24Z</time>
      </trkpt>
      <trkpt lat="48.10943" lon="-4.3673">
        <ele>12</ele>
        <time>2014-05-08T08:07:29Z</time>
      </trkpt>
      <trkpt lat="48.10943" lon="-4.36741">
        <ele>9</ele>
        <time>2014-05-08T08:07:34Z</time>
      </trkpt>
      <trkpt lat="48.1094" lon="-4.36753">
        <ele>9</ele>
        <time>2014-05-08T08:07:42Z</time>
      </trkpt>
      <trkpt lat="48.10931" lon="-4.36759">
        <ele>9</ele>
        <time>2014-05-08T08:07:47Z</time>
      </trkpt>
      <trkpt lat="48.10935" lon="-4.3677">
        <ele>14</ele>
        <time>2014-05-08T08:07:59Z</time>
      </trkpt>
      <trkpt lat="48.1094" lon="-4.36781">
        <ele>19</ele>
        <time>2014-05-08T08:08:05Z</time>
      </trkpt>
      <trkpt lat="48.10945" lon="-4.36789">
        <ele>17</ele>
        <time>2014-05-08T08:08:12Z</time>
      </trkpt>
      <trkpt lat="48.10948" lon="-4.36802">
        <ele>15</ele>
        <time>2014-05-08T08:08:18Z</time>
      </trkpt>
      <trkpt lat="48.10951" lon="-4.36814">
        <ele>14</ele>
        <time>2014-05-08T08:08:25Z</time>
      </trkpt>
      <trkpt lat="48.10955" lon="-4.36819">
        <ele>15</ele>
        <time>2014-05-08T08:08:29Z</time>
      </trkpt>
      <trkpt lat="48.10961" lon="-4.36827">
        <ele>16</ele>
        <time>2014-05-08T08:08:34Z</time>
      </trkpt>
      <trkpt lat="48.10968" lon="-4.36836">
        <ele>10</ele>
        <time>2014-05-08T08:08:42Z</time>
      </trkpt>
      <trkpt lat="48.10976" lon="-4.36841">
        <ele>12</ele>
        <time>2014-05-08T08:08:50Z</time>
      </trkpt>
      <trkpt lat="48.10976" lon="-4.36854">
        <ele>14</ele>
        <time>2014-05-08T08:08:56Z</time>
      </trkpt>
      <trkpt lat="48.10974" lon="-4.36867">
        <ele>15</ele>
        <time>2014-05-08T08:09:05Z</time>
      </trkpt>
      <trkpt lat="48.1097" lon="-4.36879">
        <ele>14</ele>
        <time>2014-05-08T08:09:11Z</time>
      </trkpt>
      <trkpt lat="48.10973" lon="-4.3689">
        <ele>11</ele>
        <time>2014-05-08T08:09:21Z</time>
      </trkpt>
      <trkpt lat="48.10973" lon="-4.36902">
        <ele>12</ele>
        <time>2014-05-08T08:09:25Z</time>
      </trkpt>
      <trkpt lat="48.10967" lon="-4.36913">
        <ele>10</ele>
        <time>2014-05-08T08:09:32Z</time>
      </trkpt>
      <trkpt lat="48.10964" lon="-4.36924">
        <ele>13</ele>
        <time>2014-05-08T08:09:42Z</time>
      </trkpt>
      <trkpt lat="48.10955" lon="-4.36924">
        <ele>19</ele>
        <time>2014-05-08T08:12:09Z</time>
      </trkpt>
      <trkpt lat="48.10948" lon="-4.36923">
        <ele>19</ele>
        <time>2014-05-08T08:12:22Z</time>
      </trkpt>
      <trkpt lat="48.10943" lon="-4.36933">
        <ele>21</ele>
        <time>2014-05-08T08:12:38Z</time>
      </trkpt>
      <trkpt lat="48.10942" lon="-4.36945">
        <ele>21</ele>
        <time>2014-05-08T08:12:44Z</time>
      </trkpt>
      <trkpt lat="48.1094" lon="-4.36957">
        <ele>22</ele>
        <time>2014-05-08T08:12:49Z</time>
      </trkpt>
      <trkpt lat="48.10935" lon="-4.36968">
        <ele>28</ele>
        <time>2014-05-08T08:12:55Z</time>
      </trkpt>
      <trkpt lat="48.10933" lon="-4.36981">
        <ele>22</ele>
        <time>2014-05-08T08:13:07Z</time>
      </trkpt>
      <trkpt lat="48.10936" lon="-4.36993">
        <ele>22</ele>
        <time>2014-05-08T08:13:18Z</time>
      </trkpt>
      <trkpt lat="48.1094" lon="-4.37005">
        <ele>23</ele>
        <time>2014-05-08T08:13:24Z</time>
      </trkpt>
      <trkpt lat="48.10943" lon="-4.37016">
        <ele>23</ele>
        <time>2014-05-08T08:13:30Z</time>
      </trkpt>
      <trkpt lat="48.10949" lon="-4.37023">
        <ele>22</ele>
        <time>2014-05-08T08:13:35Z</time>
      </trkpt>
      <trkpt lat="48.10954" lon="-4.37031">
        <ele>19</ele>
        <time>2014-05-08T08:13:42Z</time>
      </trkpt>
      <trkpt lat="48.10959" lon="-4.37042">
        <ele>17</ele>
        <time>2014-05-08T08:13:48Z</time>
      </trkpt>
      <trkpt lat="48.10961" lon="-4.37051">
        <ele>19</ele>
        <time>2014-05-08T08:13:53Z</time>
      </trkpt>
      <trkpt lat="48.10967" lon="-4.37062">
        <ele>20</ele>
        <time>2014-05-08T08:13:58Z</time>
      </trkpt>
      <trkpt lat="48.10974" lon="-4.37072">
        <ele>23</ele>
        <time>2014-05-08T08:14:07Z</time>
      </trkpt>
      <trkpt lat="48.10982" lon="-4.37076">
        <ele>21</ele>
        <time>2014-05-08T08:14:26Z</time>
      </trkpt>
      <trkpt lat="48.1099" lon="-4.37076">
        <ele>22</ele>
        <time>2014-05-08T08:14:30Z</time>
      </trkpt>
      <trkpt lat="48.1099" lon="-4.37088">
        <ele>16</ele>
        <time>2014-05-08T08:14:38Z</time>
      </trkpt>
      <trkpt lat="48.10987" lon="-4.371">
        <ele>19</ele>
        <time>2014-05-08T08:14:44Z</time>
      </trkpt>
      <trkpt lat="48.10984" lon="-4.37112">
        <ele>19</ele>
        <time>2014-05-08T08:14:52Z</time>
      </trkpt>
      <trkpt lat="48.10982" lon="-4.37125">
        <ele>21</ele>
        <time>2014-05-08T08:15:04Z</time>
      </trkpt>
      <trkpt lat="48.10979" lon="-4.37138">
        <ele>17</ele>
        <time>2014-05-08T08:15:17Z</time>
      </trkpt>
      <trkpt lat="48.1098" lon="-4.37151">
        <ele>13</ele>
        <time>2014-05-08T08:15:25Z</time>
      </trkpt>
      <trkpt lat="48.10982" lon="-4.37162">
        <ele>9</ele>
        <time>2014-05-08T08:15:31Z</time>
      </trkpt>
      <trkpt lat="48.10984" lon="-4.37173">
        <ele>8</ele>
        <time>2014-05-08T08:15:35Z</time>
      </trkpt>
      <trkpt lat="48.10989" lon="-4.37183">
        <ele>8</ele>
        <time>2014-05-08T08:15:42Z</time>
      </trkpt>
      <trkpt lat="48.10991" lon="-4.37196">
        <ele>19</ele>
        <time>2014-05-08T08:15:55Z</time>
      </trkpt>
      <trkpt lat="48.10994" lon="-4.37208">
        <ele>20</ele>
        <time>2014-05-08T08:16:24Z</time>
      </trkpt>
      <trkpt lat="48.10991" lon="-4.37221">
        <ele>32</ele>
        <time>2014-05-08T08:19:04Z</time>
      </trkpt>
      <trkpt lat="48.10991" lon="-4.37234">
        <ele>29</ele>
        <time>2014-05-08T08:19:22Z</time>
      </trkpt>
      <trkpt lat="48.10996" lon="-4.37244">
        <ele>26</ele>
        <time>2014-05-08T08:19:37Z</time>
      </trkpt>
      <trkpt lat="48.10999" lon="-4.37256">
        <ele>24</ele>
        <time>2014-05-08T08:19:43Z</time>
      </trkpt>
      <trkpt lat="48.11001" lon="-4.37268">
        <ele>20</ele>
        <time>2014-05-08T08:19:52Z</time>
      </trkpt>
      <trkpt lat="48.10996" lon="-4.37279">
        <ele>22</ele>
        <time>2014-05-08T08:19:57Z</time>
      </trkpt>
      <trkpt lat="48.10992" lon="-4.3729">
        <ele>29</ele>
        <time>2014-05-08T08:20:08Z</time>
      </trkpt>
      <trkpt lat="48.10993" lon="-4.37302">
        <ele>26</ele>
        <time>2014-05-08T08:20:16Z</time>
      </trkpt>
      <trkpt lat="48.10994" lon="-4.37315">
        <ele>27</ele>
        <time>2014-05-08T08:20:23Z</time>
      </trkpt>
      <trkpt lat="48.1099" lon="-4.37326">
        <ele>30</ele>
        <time>2014-05-08T08:20:32Z</time>
      </trkpt>
      <trkpt lat="48.1099" lon="-4.37339">
        <ele>26</ele>
        <time>2014-05-08T08:20:40Z</time>
      </trkpt>
      <trkpt lat="48.10988" lon="-4.3735">
        <ele>31</ele>
        <time>2014-05-08T08:20:49Z</time>
      </trkpt>
      <trkpt lat="48.10979" lon="-4.37352">
        <ele>35</ele>
        <time>2014-05-08T08:21:01Z</time>
      </trkpt>
      <trkpt lat="48.10972" lon="-4.37361">
        <ele>35</ele>
        <time>2014-05-08T08:21:16Z</time>
      </trkpt>
      <trkpt lat="48.10972" lon="-4.37374">
        <ele>34</ele>
        <time>2014-05-08T08:21:26Z</time>
      </trkpt>
      <trkpt lat="48.10974" lon="-4.37386">
        <ele>36</ele>
        <time>2014-05-08T08:21:32Z</time>
      </trkpt>
      <trkpt lat="48.10977" lon="-4.37397">
        <ele>33</ele>
        <time>2014-05-08T08:21:39Z</time>
      </trkpt>
      <trkpt lat="48.10977" lon="-4.3741">
        <ele>32</ele>
        <time>2014-05-08T08:21:46Z</time>
      </trkpt>
      <trkpt lat="48.10975" lon="-4.37422">
        <ele>31</ele>
        <time>2014-05-08T08:21:52Z</time>
      </trkpt>
      <trkpt lat="48.1097" lon="-4.37434">
        <ele>32</ele>
        <time>2014-05-08T08:21:59Z</time>
      </trkpt>
      <trkpt lat="48.10963" lon="-4.37442">
        <ele>34</ele>
        <time>2014-05-08T08:22:07Z</time>
      </trkpt>
      <trkpt lat="48.10961" lon="-4.37454">
        <ele>35</ele>
        <time>2014-05-08T08:22:13Z</time>
      </trkpt>
      <trkpt lat="48.10957" lon="-4.37464">
        <ele>34</ele>
        <time>2014-05-08T08:23:16Z</time>
      </trkpt>
      <trkpt lat="48.1095" lon="-4.3747">
        <ele>36</ele>
        <time>2014-05-08T08:23:22Z</time>
      </trkpt>
      <trkpt lat="48.10941" lon="-4.37469">
        <ele>38</ele>
        <time>2014-05-08T08:23:34Z</time>
      </trkpt>
      <trkpt lat="48.10932" lon="-4.37472">
        <ele>30</ele>
        <time>2014-05-08T08:23:48Z</time>
      </trkpt>
      <trkpt lat="48.10924" lon="-4.37473">
        <ele>27</ele>
        <time>2014-05-08T08:24:03Z</time>
      </trkpt>
      <trkpt lat="48.10916" lon="-4.37476">
        <ele>27</ele>
        <time>2014-05-08T08:24:08Z</time>
      </trkpt>
      <trkpt lat="48.10909" lon="-4.37479">
        <ele>28</ele>
        <time>2014-05-08T08:24:16Z</time>
      </trkpt>
      <trkpt lat="48.10901" lon="-4.37484">
        <ele>31</ele>
        <time>2014-05-08T08:24:21Z</time>
      </trkpt>
      <trkpt lat="48.10893" lon="-4.37489">
        <ele>30</ele>
        <time>2014-05-08T08:24:26Z</time>
      </trkpt>
      <trkpt lat="48.10886" lon="-4.37494">
        <ele>26</ele>
        <time>2014-05-08T08:24:34Z</time>
      </trkpt>
      <trkpt lat="48.10878" lon="-4.37497">
        <ele>22</ele>
        <time>2014-05-08T08:24:39Z</time>
      </trkpt>
      <trkpt lat="48.10871" lon="-4.37505">
        <ele>22</ele>
        <time>2014-05-08T08:24:46Z</time>
      </trkpt>
      <trkpt lat="48.10864" lon="-4.37512">
        <ele>25</ele>
        <time>2014-05-08T08:24:54Z</time>
      </trkpt>
      <trkpt lat="48.10855" lon="-4.3751">
        <ele>20</ele>
        <time>2014-05-08T08:25:09Z</time>
      </trkpt>
      <trkpt lat="48.10849" lon="-4.37517">
        <ele>25</ele>
        <time>2014-05-08T08:25:23Z</time>
      </trkpt>
      <trkpt lat="48.10841" lon="-4.37523">
        <ele>31</ele>
        <time>2014-05-08T08:25:38Z</time>
      </trkpt>
      <trkpt lat="48.10833" lon="-4.37527">
        <ele>31</ele>
        <time>2014-05-08T08:25:46Z</time>
      </trkpt>
      <trkpt lat="48.10829" lon="-4.37538">
        <ele>31</ele>
        <time>2014-05-08T08:25:54Z</time>
      </trkpt>
      <trkpt lat="48.10822" lon="-4.37544">
        <ele>37</ele>
        <time>2014-05-08T08:26:02Z</time>
      </trkpt>
      <trkpt lat="48.10816" lon="-4.37554">
        <ele>40</ele>
        <time>2014-05-08T08:26:12Z</time>
      </trkpt>
      <trkpt lat="48.10809" lon="-4.37562">
        <ele>40</ele>
        <time>2014-05-08T08:26:21Z</time>
      </trkpt>
      <trkpt lat="48.10811" lon="-4.37573">
        <ele>39</ele>
        <time>2014-05-08T08:26:27Z</time>
      </trkpt>
      <trkpt lat="48.10812" lon="-4.37586">
        <ele>40</ele>
        <time>2014-05-08T08:26:35Z</time>
      </trkpt>
      <trkpt lat="48.10811" lon="-4.37596">
        <ele>39</ele>
        <time>2014-05-08T08:26:41Z</time>
      </trkpt>
      <trkpt lat="48.1081" lon="-4.37609">
        <ele>37</ele>
        <time>2014-05-08T08:26:47Z</time>
      </trkpt>
      <trkpt lat="48.10809" lon="-4.37621">
        <ele>38</ele>
        <time>2014-05-08T08:26:52Z</time>
      </trkpt>
      <trkpt lat="48.10808" lon="-4.37634">
        <ele>40</ele>
        <time>2014-05-08T08:27:00Z</time>
      </trkpt>
      <trkpt lat="48.10806" lon="-4.37645">
        <ele>38</ele>
        <time>2014-05-08T08:27:07Z</time>
      </trkpt>
      <trkpt lat="48.10807" lon="-4.37656">
        <ele>40</ele>
        <time>2014-05-08T08:27:12Z</time>
      </trkpt>
      <trkpt lat="48.10808" lon="-4.37669">
        <ele>33</ele>
        <time>2014-05-08T08:27:22Z</time>
      </trkpt>
      <trkpt lat="48.10804" lon="-4.3768">
        <ele>35</ele>
        <time>2014-05-08T08:27:28Z</time>
      </trkpt>
      <trkpt lat="48.10801" lon="-4.37693">
        <ele>37</ele>
        <time>2014-05-08T08:27:34Z</time>
      </trkpt>
      <trkpt lat="48.10797" lon="-4.37704">
        <ele>43</ele>
        <time>2014-05-08T08:27:41Z</time>
      </trkpt>
      <trkpt lat="48.10793" lon="-4.37716">
        <ele>43</ele>
        <time>2014-05-08T08:27:47Z</time>
      </trkpt>
      <trkpt lat="48.10789" lon="-4.37726">
        <ele>40</ele>
        <time>2014-05-08T08:27:53Z</time>
      </trkpt>
      <trkpt lat="48.10784" lon="-4.37738">
        <ele>36</ele>
        <time>2014-05-08T08:28:14Z</time>
      </trkpt>
      <trkpt lat="48.10778" lon="-4.37742">
        <ele>37</ele>
        <time>2014-05-08T08:28:22Z</time>
      </trkpt>
      <trkpt lat="48.10777" lon="-4.37755">
        <ele>42</ele>
        <time>2014-05-08T08:28:30Z</time>
      </trkpt>
      <trkpt lat="48.10778" lon="-4.37767">
        <ele>44</ele>
        <time>2014-05-08T08:28:36Z</time>
      </trkpt>
      <trkpt lat="48.1078" lon="-4.3778">
        <ele>46</ele>
        <time>2014-05-08T08:28:43Z</time>
      </trkpt>
      <trkpt lat="48.10778" lon="-4.37793">
        <ele>43</ele>
        <time>2014-05-08T08:28:54Z</time>
      </trkpt>
      <trkpt lat="48.10771" lon="-4.37796">
        <ele>44</ele>
        <time>2014-05-08T08:29:07Z</time>
      </trkpt>
      <trkpt lat="48.10763" lon="-4.37799">
        <ele>44</ele>
        <time>2014-05-08T08:29:15Z</time>
      </trkpt>
      <trkpt lat="48.10755" lon="-4.37806">
        <ele>47</ele>
        <time>2014-05-08T08:29:25Z</time>
      </trkpt>
      <trkpt lat="48.10749" lon="-4.37815">
        <ele>49</ele>
        <time>2014-05-08T08:29:32Z</time>
      </trkpt>
      <trkpt lat="48.10743" lon="-4.37824">
        <ele>49</ele>
        <time>2014-05-08T08:29:39Z</time>
      </trkpt>
      <trkpt lat="48.10741" lon="-4.37836">
        <ele>43</ele>
        <time>2014-05-08T08:30:01Z</time>
      </trkpt>
      <trkpt lat="48.10736" lon="-4.37843">
        <ele>42</ele>
        <time>2014-05-08T08:30:06Z</time>
      </trkpt>
      <trkpt lat="48.10729" lon="-4.37851">
        <ele>45</ele>
        <time>2014-05-08T08:30:12Z</time>
      </trkpt>
      <trkpt lat="48.10724" lon="-4.37861">
        <ele>46</ele>
        <time>2014-05-08T08:30:21Z</time>
      </trkpt>
      <trkpt lat="48.10729" lon="-4.37872">
        <ele>45</ele>
        <time>2014-05-08T08:30:37Z</time>
      </trkpt>
      <trkpt lat="48.10736" lon="-4.37881">
        <ele>47</ele>
        <time>2014-05-08T08:30:45Z</time>
      </trkpt>
      <trkpt lat="48.10741" lon="-4.3789">
        <ele>47</ele>
        <time>2014-05-08T08:30:53Z</time>
      </trkpt>
      <trkpt lat="48.10746" lon="-4.37901">
        <ele>39</ele>
        <time>2014-05-08T08:31:19Z</time>
      </trkpt>
      <trkpt lat="48.10749" lon="-4.37913">
        <ele>38</ele>
        <time>2014-05-08T08:31:29Z</time>
      </trkpt>
      <trkpt lat="48.10751" lon="-4.37925">
        <ele>37</ele>
        <time>2014-05-08T08:31:34Z</time>
      </trkpt>
      <trkpt lat="48.10759" lon="-4.37929">
        <ele>35</ele>
        <time>2014-05-08T08:31:39Z</time>
      </trkpt>
      <trkpt lat="48.10764" lon="-4.37939">
        <ele>32</ele>
        <time>2014-05-08T08:31:44Z</time>
      </trkpt>
      <trkpt lat="48.10762" lon="-4.37951">
        <ele>28</ele>
        <time>2014-05-08T08:31:50Z</time>
      </trkpt>
      <trkpt lat="48.1076" lon="-4.37963">
        <ele>25</ele>
        <time>2014-05-08T08:31:58Z</time>
      </trkpt>
      <trkpt lat="48.10756" lon="-4.37975">
        <ele>25</ele>
        <time>2014-05-08T08:32:05Z</time>
      </trkpt>
      <trkpt lat="48.10751" lon="-4.37984">
        <ele>27</ele>
        <time>2014-05-08T08:32:11Z</time>
      </trkpt>
      <trkpt lat="48.10745" lon="-4.37993">
        <ele>30</ele>
        <time>2014-05-08T08:32:17Z</time>
      </trkpt>
      <trkpt lat="48.10738" lon="-4.37999">
        <ele>31</ele>
        <time>2014-05-08T08:32:24Z</time>
      </trkpt>
      <trkpt lat="48.10732" lon="-4.38003">
        <ele>32</ele>
        <time>2014-05-08T08:32:30Z</time>
      </trkpt>
      <trkpt lat="48.10725" lon="-4.38013">
        <ele>35</ele>
        <time>2014-05-08T08:32:35Z</time>
      </trkpt>
      <trkpt lat="48.1072" lon="-4.3802">
        <ele>35</ele>
        <time>2014-05-08T08:32:39Z</time>
      </trkpt>
      <trkpt lat="48.10717" lon="-4.38032">
        <ele>36</ele>
        <time>2014-05-08T08:32:48Z</time>
      </trkpt>
      <trkpt lat="48.10716" lon="-4.38044">
        <ele>34</ele>
        <time>2014-05-08T08:32:54Z</time>
      </trkpt>
      <trkpt lat="48.10714" lon="-4.38057">
        <ele>37</ele>
        <time>2014-05-08T08:33:09Z</time>
      </trkpt>
      <trkpt lat="48.10711" lon="-4.38068">
        <ele>36</ele>
        <time>2014-05-08T08:33:18Z</time>
      </trkpt>
      <trkpt lat="48.10707" lon="-4.38077">
        <ele>36</ele>
        <time>2014-05-08T08:33:26Z</time>
      </trkpt>
      <trkpt lat="48.10702" lon="-4.38083">
        <ele>36</ele>
        <time>2014-05-08T08:33:30Z</time>
      </trkpt>
      <trkpt lat="48.10699" lon="-4.38092">
        <ele>34</ele>
        <time>2014-05-08T08:33:34Z</time>
      </trkpt>
      <trkpt lat="48.10693" lon="-4.38101">
        <ele>34</ele>
        <time>2014-05-08T08:33:38Z</time>
      </trkpt>
      <trkpt lat="48.1069" lon="-4.38113">
        <ele>32</ele>
        <time>2014-05-08T08:33:47Z</time>
      </trkpt>
      <trkpt lat="48.10683" lon="-4.38118">
        <ele>33</ele>
        <time>2014-05-08T08:33:55Z</time>
      </trkpt>
      <trkpt lat="48.10675" lon="-4.38124">
        <ele>28</ele>
        <time>2014-05-08T08:34:13Z</time>
      </trkpt>
      <trkpt lat="48.10671" lon="-4.38132">
        <ele>28</ele>
        <time>2014-05-08T08:34:19Z</time>
      </trkpt>
      <trkpt lat="48.10663" lon="-4.38139">
        <ele>29</ele>
        <time>2014-05-08T08:34:23Z</time>
      </trkpt>
      <trkpt lat="48.10655" lon="-4.38145">
        <ele>28</ele>
        <time>2014-05-08T08:34:29Z</time>
      </trkpt>
      <trkpt lat="48.10649" lon="-4.38154">
        <ele>30</ele>
        <time>2014-05-08T08:34:38Z</time>
      </trkpt>
      <trkpt lat="48.10643" lon="-4.38167">
        <ele>29</ele>
        <time>2014-05-08T08:34:43Z</time>
      </trkpt>
      <trkpt lat="48.10637" lon="-4.38176">
        <ele>28</ele>
        <time>2014-05-08T08:34:50Z</time>
      </trkpt>
      <trkpt lat="48.10634" lon="-4.38186">
        <ele>27</ele>
        <time>2014-05-08T08:34:59Z</time>
      </trkpt>
      <trkpt lat="48.10626" lon="-4.38192">
        <ele>29</ele>
        <time>2014-05-08T08:35:04Z</time>
      </trkpt>
      <trkpt lat="48.10622" lon="-4.38204">
        <ele>33</ele>
        <time>2014-05-08T08:35:10Z</time>
      </trkpt>
      <trkpt lat="48.10615" lon="-4.38212">
        <ele>34</ele>
        <time>2014-05-08T08:35:17Z</time>
      </trkpt>
      <trkpt lat="48.10611" lon="-4.38224">
        <ele>33</ele>
        <time>2014-05-08T08:35:27Z</time>
      </trkpt>
      <trkpt lat="48.10606" lon="-4.38234">
        <ele>34</ele>
        <time>2014-05-08T08:35:36Z</time>
      </trkpt>
      <trkpt lat="48.10601" lon="-4.38245">
        <ele>36</ele>
        <time>2014-05-08T08:35:44Z</time>
      </trkpt>
      <trkpt lat="48.10595" lon="-4.38254">
        <ele>33</ele>
        <time>2014-05-08T08:35:54Z</time>
      </trkpt>
      <trkpt lat="48.10588" lon="-4.38262">
        <ele>33</ele>
        <time>2014-05-08T08:36:01Z</time>
      </trkpt>
      <trkpt lat="48.10582" lon="-4.38269">
        <ele>33</ele>
        <time>2014-05-08T08:36:07Z</time>
      </trkpt>
      <trkpt lat="48.10577" lon="-4.38279">
        <ele>31</ele>
        <time>2014-05-08T08:36:16Z</time>
      </trkpt>
      <trkpt lat="48.10571" lon="-4.38288">
        <ele>28</ele>
        <time>2014-05-08T08:36:25Z</time>
      </trkpt>
      <trkpt lat="48.10571" lon="-4.38301">
        <ele>29</ele>
        <time>2014-05-08T08:36:35Z</time>
      </trkpt>
      <trkpt lat="48.10569" lon="-4.38314">
        <ele>33</ele>
        <time>2014-05-08T08:36:45Z</time>
      </trkpt>
      <trkpt lat="48.10569" lon="-4.38326">
        <ele>40</ele>
        <time>2014-05-08T08:36:54Z</time>
      </trkpt>
      <trkpt lat="48.10565" lon="-4.38338">
        <ele>39</ele>
        <time>2014-05-08T08:37:08Z</time>
      </trkpt>
      <trkpt lat="48.10569" lon="-4.38349">
        <ele>39</ele>
        <time>2014-05-08T08:37:22Z</time>
      </trkpt>
      <trkpt lat="48.10563" lon="-4.38357">
        <ele>35</ele>
        <time>2014-05-08T08:37:34Z</time>
      </trkpt>
      <trkpt lat="48.10559" lon="-4.38368">
        <ele>36</ele>
        <time>2014-05-08T08:37:41Z</time>
      </trkpt>
      <trkpt lat="48.10557" lon="-4.3838">
        <ele>37</ele>
        <time>2014-05-08T08:37:46Z</time>
      </trkpt>
      <trkpt lat="48.10556" lon="-4.38391">
        <ele>39</ele>
        <time>2014-05-08T08:37:52Z</time>
      </trkpt>
      <trkpt lat="48.10558" lon="-4.38402">
        <ele>39</ele>
        <time>2014-05-08T08:37:59Z</time>
      </trkpt>
      <trkpt lat="48.10557" lon="-4.38415">
        <ele>35</ele>
        <time>2014-05-08T08:38:06Z</time>
      </trkpt>
      <trkpt lat="48.10555" lon="-4.38428">
        <ele>32</ele>
        <time>2014-05-08T08:38:15Z</time>
      </trkpt>
      <trkpt lat="48.1055" lon="-4.38438">
        <ele>34</ele>
        <time>2014-05-08T08:38:20Z</time>
      </trkpt>
      <trkpt lat="48.10546" lon="-4.3845">
        <ele>32</ele>
        <time>2014-05-08T08:38:29Z</time>
      </trkpt>
      <trkpt lat="48.10543" lon="-4.38462">
        <ele>32</ele>
        <time>2014-05-08T08:38:38Z</time>
      </trkpt>
      <trkpt lat="48.10538" lon="-4.38472">
        <ele>29</ele>
        <time>2014-05-08T08:38:44Z</time>
      </trkpt>
      <trkpt lat="48.10535" lon="-4.38482">
        <ele>31</ele>
        <time>2014-05-08T08:38:49Z</time>
      </trkpt>
      <trkpt lat="48.10534" lon="-4.38495">
        <ele>29</ele>
        <time>2014-05-08T08:38:58Z</time>
      </trkpt>
      <trkpt lat="48.10532" lon="-4.38507">
        <ele>23</ele>
        <time>2014-05-08T08:39:06Z</time>
      </trkpt>
      <trkpt lat="48.10529" lon="-4.38517">
        <ele>23</ele>
        <time>2014-05-08T08:39:12Z</time>
      </trkpt>
      <trkpt lat="48.10527" lon="-4.38528">
        <ele>23</ele>
        <time>2014-05-08T08:39:17Z</time>
      </trkpt>
      <trkpt lat="48.10524" lon="-4.38541">
        <ele>26</ele>
        <time>2014-05-08T08:39:22Z</time>
      </trkpt>
      <trkpt lat="48.10519" lon="-4.38552">
        <ele>29</ele>
        <time>2014-05-08T08:39:27Z</time>
      </trkpt>
      <trkpt lat="48.10516" lon="-4.38563">
        <ele>29</ele>
        <time>2014-05-08T08:39:33Z</time>
      </trkpt>
      <trkpt lat="48.10511" lon="-4.38574">
        <ele>30</ele>
        <time>2014-05-08T08:39:39Z</time>
      </trkpt>
      <trkpt lat="48.10508" lon="-4.38584">
        <ele>30</ele>
        <time>2014-05-08T08:39:44Z</time>
      </trkpt>
      <trkpt lat="48.10508" lon="-4.38596">
        <ele>30</ele>
        <time>2014-05-08T08:39:50Z</time>
      </trkpt>
      <trkpt lat="48.10506" lon="-4.38608">
        <ele>35</ele>
        <time>2014-05-08T08:39:57Z</time>
      </trkpt>
      <trkpt lat="48.10508" lon="-4.3862">
        <ele>31</ele>
        <time>2014-05-08T08:40:05Z</time>
      </trkpt>
      <trkpt lat="48.10516" lon="-4.38626">
        <ele>30</ele>
        <time>2014-05-08T08:40:12Z</time>
      </trkpt>
      <trkpt lat="48.10512" lon="-4.38639">
        <ele>29</ele>
        <time>2014-05-08T08:41:06Z</time>
      </trkpt>
      <trkpt lat="48.1052" lon="-4.38646">
        <ele>28</ele>
        <time>2014-05-08T08:41:11Z</time>
      </trkpt>
      <trkpt lat="48.10518" lon="-4.38656">
        <ele>31</ele>
        <time>2014-05-08T08:42:02Z</time>
      </trkpt>
      <trkpt lat="48.10524" lon="-4.38665">
        <ele>31</ele>
        <time>2014-05-08T08:42:07Z</time>
      </trkpt>
      <trkpt lat="48.10521" lon="-4.38675">
        <ele>32</ele>
        <time>2014-05-08T08:42:13Z</time>
      </trkpt>
      <trkpt lat="48.10514" lon="-4.3868">
        <ele>36</ele>
        <time>2014-05-08T08:42:24Z</time>
      </trkpt>
      <trkpt lat="48.10506" lon="-4.38689">
        <ele>35</ele>
        <time>2014-05-08T08:42:29Z</time>
      </trkpt>
      <trkpt lat="48.105" lon="-4.38693">
        <ele>35</ele>
        <time>2014-05-08T08:42:33Z</time>
      </trkpt>
      <trkpt lat="48.10494" lon="-4.38702">
        <ele>34</ele>
        <time>2014-05-08T08:42:41Z</time>
      </trkpt>
      <trkpt lat="48.1049" lon="-4.38713">
        <ele>34</ele>
        <time>2014-05-08T08:43:01Z</time>
      </trkpt>
      <trkpt lat="48.10486" lon="-4.38725">
        <ele>37</ele>
        <time>2014-05-08T08:43:23Z</time>
      </trkpt>
      <trkpt lat="48.10485" lon="-4.38737">
        <ele>34</ele>
        <time>2014-05-08T08:43:52Z</time>
      </trkpt>
      <trkpt lat="48.10488" lon="-4.38749">
        <ele>34</ele>
        <time>2014-05-08T08:44:06Z</time>
      </trkpt>
      <trkpt lat="48.10488" lon="-4.38762">
        <ele>28</ele>
        <time>2014-05-08T08:44:16Z</time>
      </trkpt>
      <trkpt lat="48.1049" lon="-4.38774">
        <ele>19</ele>
        <time>2014-05-08T08:44:27Z</time>
      </trkpt>
      <trkpt lat="48.10489" lon="-4.38786">
        <ele>21</ele>
        <time>2014-05-08T08:44:41Z</time>
      </trkpt>
      <trkpt lat="48.10484" lon="-4.38797">
        <ele>21</ele>
        <time>2014-05-08T08:44:55Z</time>
      </trkpt>
      <trkpt lat="48.10482" lon="-4.38807">
        <ele>18</ele>
        <time>2014-05-08T08:45:01Z</time>
      </trkpt>
      <trkpt lat="48.10474" lon="-4.38818">
        <ele>19</ele>
        <time>2014-05-08T08:45:05Z</time>
      </trkpt>
      <trkpt lat="48.10476" lon="-4.38829">
        <ele>20</ele>
        <time>2014-05-08T08:45:09Z</time>
      </trkpt>
      <trkpt lat="48.10479" lon="-4.38842">
        <ele>19</ele>
        <time>2014-05-08T08:45:15Z</time>
      </trkpt>
      <trkpt lat="48.10476" lon="-4.38854">
        <ele>18</ele>
        <time>2014-05-08T08:45:22Z</time>
      </trkpt>
      <trkpt lat="48.10474" lon="-4.38865">
        <ele>20</ele>
        <time>2014-05-08T08:45:28Z</time>
      </trkpt>
      <trkpt lat="48.1048" lon="-4.38876">
        <ele>23</ele>
        <time>2014-05-08T08:45:33Z</time>
      </trkpt>
      <trkpt lat="48.1048" lon="-4.38889">
        <ele>20</ele>
        <time>2014-05-08T08:45:42Z</time>
      </trkpt>
      <trkpt lat="48.10477" lon="-4.389">
        <ele>19</ele>
        <time>2014-05-08T08:45:49Z</time>
      </trkpt>
      <trkpt lat="48.10471" lon="-4.3891">
        <ele>20</ele>
        <time>2014-05-08T08:46:03Z</time>
      </trkpt>
      <trkpt lat="48.10469" lon="-4.38922">
        <ele>18</ele>
        <time>2014-05-08T08:46:11Z</time>
      </trkpt>
      <trkpt lat="48.10463" lon="-4.38931">
        <ele>19</ele>
        <time>2014-05-08T08:46:17Z</time>
      </trkpt>
      <trkpt lat="48.10461" lon="-4.38943">
        <ele>20</ele>
        <time>2014-05-08T08:46:23Z</time>
      </trkpt>
      <trkpt lat="48.10453" lon="-4.38951">
        <ele>19</ele>
        <time>2014-05-08T08:46:28Z</time>
      </trkpt>
      <trkpt lat="48.10453" lon="-4.38963">
        <ele>20</ele>
        <time>2014-05-08T08:46:35Z</time>
      </trkpt>
      <trkpt lat="48.10448" lon="-4.38975">
        <ele>23</ele>
        <time>2014-05-08T08:46:39Z</time>
      </trkpt>
      <trkpt lat="48.10444" lon="-4.38987">
        <ele>19</ele>
        <time>2014-05-08T08:46:48Z</time>
      </trkpt>
      <trkpt lat="48.10449" lon="-4.38998">
        <ele>6</ele>
        <time>2014-05-08T08:46:59Z</time>
      </trkpt>
      <trkpt lat="48.10445" lon="-4.39011">
        <ele>5</ele>
        <time>2014-05-08T08:47:12Z</time>
      </trkpt>
      <trkpt lat="48.10447" lon="-4.39023">
        <ele>5</ele>
        <time>2014-05-08T08:47:35Z</time>
      </trkpt>
      <trkpt lat="48.1045" lon="-4.39037">
        <ele>7</ele>
        <time>2014-05-08T08:47:39Z</time>
      </trkpt>
      <trkpt lat="48.10449" lon="-4.3905">
        <ele>12</ele>
        <time>2014-05-08T08:47:46Z</time>
      </trkpt>
      <trkpt lat="48.10445" lon="-4.39062">
        <ele>16</ele>
        <time>2014-05-08T08:47:56Z</time>
      </trkpt>
      <trkpt lat="48.10448" lon="-4.39072">
        <ele>22</ele>
        <time>2014-05-08T08:48:36Z</time>
      </trkpt>
      <trkpt lat="48.10452" lon="-4.39084">
        <ele>25</ele>
        <time>2014-05-08T08:48:41Z</time>
      </trkpt>
      <trkpt lat="48.10455" lon="-4.39095">
        <ele>27</ele>
        <time>2014-05-08T08:48:50Z</time>
      </trkpt>
      <trkpt lat="48.10462" lon="-4.391">
        <ele>26</ele>
        <time>2014-05-08T08:49:01Z</time>
      </trkpt>
      <trkpt lat="48.10456" lon="-4.3911">
        <ele>32</ele>
        <time>2014-05-08T09:00:12Z</time>
      </trkpt>
      <trkpt lat="48.10449" lon="-4.39117">
        <ele>34</ele>
        <time>2014-05-08T09:00:26Z</time>
      </trkpt>
      <trkpt lat="48.10445" lon="-4.39128">
        <ele>35</ele>
        <time>2014-05-08T09:00:36Z</time>
      </trkpt>
      <trkpt lat="48.10441" lon="-4.3914">
        <ele>42</ele>
        <time>2014-05-08T09:00:50Z</time>
      </trkpt>
      <trkpt lat="48.10438" lon="-4.39151">
        <ele>45</ele>
        <time>2014-05-08T09:00:57Z</time>
      </trkpt>
      <trkpt lat="48.1043" lon="-4.39157">
        <ele>44</ele>
        <time>2014-05-08T09:01:02Z</time>
      </trkpt>
      <trkpt lat="48.10431" lon="-4.39169">
        <ele>44</ele>
        <time>2014-05-08T09:01:16Z</time>
      </trkpt>
      <trkpt lat="48.10426" lon="-4.39181">
        <ele>44</ele>
        <time>2014-05-08T09:01:21Z</time>
      </trkpt>
      <trkpt lat="48.10417" lon="-4.39187">
        <ele>40</ele>
        <time>2014-05-08T09:01:26Z</time>
      </trkpt>
      <trkpt lat="48.10417" lon="-4.392">
        <ele>41</ele>
        <time>2014-05-08T09:01:31Z</time>
      </trkpt>
      <trkpt lat="48.10421" lon="-4.39213">
        <ele>43</ele>
        <time>2014-05-08T09:01:36Z</time>
      </trkpt>
      <trkpt lat="48.10423" lon="-4.39225">
        <ele>44</ele>
        <time>2014-05-08T09:01:46Z</time>
      </trkpt>
      <trkpt lat="48.1042" lon="-4.39237">
        <ele>41</ele>
        <time>2014-05-08T09:01:52Z</time>
      </trkpt>
      <trkpt lat="48.10416" lon="-4.39248">
        <ele>35</ele>
        <time>2014-05-08T09:01:58Z</time>
      </trkpt>
      <trkpt lat="48.10418" lon="-4.39261">
        <ele>35</ele>
        <time>2014-05-08T09:02:04Z</time>
      </trkpt>
      <trkpt lat="48.1042" lon="-4.39274">
        <ele>36</ele>
        <time>2014-05-08T09:02:08Z</time>
      </trkpt>
      <trkpt lat="48.1041" lon="-4.39278">
        <ele>34</ele>
        <time>2014-05-08T09:02:13Z</time>
      </trkpt>
      <trkpt lat="48.10415" lon="-4.39288">
        <ele>27</ele>
        <time>2014-05-08T09:02:27Z</time>
      </trkpt>
      <trkpt lat="48.1041" lon="-4.39298">
        <ele>23</ele>
        <time>2014-05-08T09:02:32Z</time>
      </trkpt>
      <trkpt lat="48.10413" lon="-4.39308">
        <ele>27</ele>
        <time>2014-05-08T09:02:38Z</time>
      </trkpt>
      <trkpt lat="48.10415" lon="-4.39319">
        <ele>30</ele>
        <time>2014-05-08T09:02:43Z</time>
      </trkpt>
      <trkpt lat="48.10415" lon="-4.39332">
        <ele>31</ele>
        <time>2014-05-08T09:02:48Z</time>
      </trkpt>
      <trkpt lat="48.10409" lon="-4.39339">
        <ele>30</ele>
        <time>2014-05-08T09:03:02Z</time>
      </trkpt>
      <trkpt lat="48.10402" lon="-4.3935">
        <ele>32</ele>
        <time>2014-05-08T09:03:06Z</time>
      </trkpt>
      <trkpt lat="48.104" lon="-4.3936">
        <ele>36</ele>
        <time>2014-05-08T09:03:14Z</time>
      </trkpt>
      <trkpt lat="48.10393" lon="-4.39367">
        <ele>35</ele>
        <time>2014-05-08T09:03:21Z</time>
      </trkpt>
      <trkpt lat="48.10388" lon="-4.39376">
        <ele>33</ele>
        <time>2014-05-08T09:03:27Z</time>
      </trkpt>
      <trkpt lat="48.10386" lon="-4.39389">
        <ele>25</ele>
        <time>2014-05-08T09:03:33Z</time>
      </trkpt>
      <trkpt lat="48.1038" lon="-4.39398">
        <ele>25</ele>
        <time>2014-05-08T09:03:39Z</time>
      </trkpt>
      <trkpt lat="48.10382" lon="-4.39415">
        <ele>28</ele>
        <time>2014-05-08T09:03:44Z</time>
      </trkpt>
      <trkpt lat="48.10386" lon="-4.39427">
        <ele>32</ele>
        <time>2014-05-08T09:03:55Z</time>
      </trkpt>
      <trkpt lat="48.10388" lon="-4.39439">
        <ele>30</ele>
        <time>2014-05-08T09:04:06Z</time>
      </trkpt>
      <trkpt lat="48.10391" lon="-4.39445">
        <ele>34</ele>
        <time>2014-05-08T09:04:12Z</time>
      </trkpt>
      <trkpt lat="48.10398" lon="-4.39454">
        <ele>39</ele>
        <time>2014-05-08T09:04:16Z</time>
      </trkpt>
      <trkpt lat="48.10402" lon="-4.39465">
        <ele>41</ele>
        <time>2014-05-08T09:04:22Z</time>
      </trkpt>
      <trkpt lat="48.10405" lon="-4.39477">
        <ele>39</ele>
        <time>2014-05-08T09:04:28Z</time>
      </trkpt>
      <trkpt lat="48.10405" lon="-4.39488">
        <ele>40</ele>
        <time>2014-05-08T09:04:35Z</time>
      </trkpt>
      <trkpt lat="48.10404" lon="-4.395">
        <ele>41</ele>
        <time>2014-05-08T09:04:40Z</time>
      </trkpt>
      <trkpt lat="48.1041" lon="-4.39505">
        <ele>44</ele>
        <time>2014-05-08T09:04:46Z</time>
      </trkpt>
      <trkpt lat="48.10412" lon="-4.39516">
        <ele>43</ele>
        <time>2014-05-08T09:04:52Z</time>
      </trkpt>
      <trkpt lat="48.10419" lon="-4.3953">
        <ele>45</ele>
        <time>2014-05-08T09:04:57Z</time>
      </trkpt>
      <trkpt lat="48.10421" lon="-4.39539">
        <ele>49</ele>
        <time>2014-05-08T09:05:10Z</time>
      </trkpt>
      <trkpt lat="48.10422" lon="-4.39553">
        <ele>53</ele>
        <time>2014-05-08T09:05:15Z</time>
      </trkpt>
      <trkpt lat="48.10431" lon="-4.39564">
        <ele>55</ele>
        <time>2014-05-08T09:05:19Z</time>
      </trkpt>
      <trkpt lat="48.1044" lon="-4.39572">
        <ele>56</ele>
        <time>2014-05-08T09:05:23Z</time>
      </trkpt>
      <trkpt lat="48.10436" lon="-4.39583">
        <ele>47</ele>
        <time>2014-05-08T09:05:30Z</time>
      </trkpt>
      <trkpt lat="48.10441" lon="-4.39594">
        <ele>37</ele>
        <time>2014-05-08T09:05:40Z</time>
      </trkpt>
      <trkpt lat="48.10447" lon="-4.39601">
        <ele>36</ele>
        <time>2014-05-08T09:05:47Z</time>
      </trkpt>
      <trkpt lat="48.10445" lon="-4.39611">
        <ele>33</ele>
        <time>2014-05-08T09:05:55Z</time>
      </trkpt>
      <trkpt lat="48.10439" lon="-4.3962">
        <ele>31</ele>
        <time>2014-05-08T09:06:01Z</time>
      </trkpt>
      <trkpt lat="48.10436" lon="-4.39631">
        <ele>26</ele>
        <time>2014-05-08T09:06:21Z</time>
      </trkpt>
      <trkpt lat="48.1043" lon="-4.39637">
        <ele>27</ele>
        <time>2014-05-08T09:06:25Z</time>
      </trkpt>
      <trkpt lat="48.10424" lon="-4.39646">
        <ele>28</ele>
        <time>2014-05-08T09:06:34Z</time>
      </trkpt>
      <trkpt lat="48.10428" lon="-4.39657">
        <ele>34</ele>
        <time>2014-05-08T09:06:42Z</time>
      </trkpt>
      <trkpt lat="48.10435" lon="-4.39663">
        <ele>37</ele>
        <time>2014-05-08T09:06:46Z</time>
      </trkpt>
      <trkpt lat="48.10443" lon="-4.39672">
        <ele>43</ele>
        <time>2014-05-08T09:06:51Z</time>
      </trkpt>
      <trkpt lat="48.10449" lon="-4.39681">
        <ele>44</ele>
        <time>2014-05-08T09:07:14Z</time>
      </trkpt>
      <trkpt lat="48.10454" lon="-4.39688">
        <ele>44</ele>
        <time>2014-05-08T09:07:23Z</time>
      </trkpt>
      <trkpt lat="48.10456" lon="-4.39701">
        <ele>43</ele>
        <time>2014-05-08T09:07:28Z</time>
      </trkpt>
      <trkpt lat="48.10454" lon="-4.39718">
        <ele>41</ele>
        <time>2014-05-08T09:07:33Z</time>
      </trkpt>
      <trkpt lat="48.1046" lon="-4.39728">
        <ele>43</ele>
        <time>2014-05-08T09:07:37Z</time>
      </trkpt>
      <trkpt lat="48.10473" lon="-4.39741">
        <ele>45</ele>
        <time>2014-05-08T09:07:42Z</time>
      </trkpt>
      <trkpt lat="48.10481" lon="-4.39753">
        <ele>46</ele>
        <time>2014-05-08T09:07:46Z</time>
      </trkpt>
      <trkpt lat="48.10485" lon="-4.39764">
        <ele>47</ele>
        <time>2014-05-08T09:07:52Z</time>
      </trkpt>
      <trkpt lat="48.10485" lon="-4.39776">
        <ele>43</ele>
        <time>2014-05-08T09:07:58Z</time>
      </trkpt>
      <trkpt lat="48.1048" lon="-4.3978">
        <ele>35</ele>
        <time>2014-05-08T09:08:02Z</time>
      </trkpt>
      <trkpt lat="48.10466" lon="-4.39782">
        <ele>24</ele>
        <time>2014-05-08T09:08:07Z</time>
      </trkpt>
      <trkpt lat="48.1046" lon="-4.39792">
        <ele>19</ele>
        <time>2014-05-08T09:08:17Z</time>
      </trkpt>
      <trkpt lat="48.10458" lon="-4.39804">
        <ele>17</ele>
        <time>2014-05-08T09:08:24Z</time>
      </trkpt>
      <trkpt lat="48.10454" lon="-4.39815">
        <ele>18</ele>
        <time>2014-05-08T09:08:34Z</time>
      </trkpt>
      <trkpt lat="48.10445" lon="-4.39818">
        <ele>14</ele>
        <time>2014-05-08T09:08:41Z</time>
      </trkpt>
      <trkpt lat="48.10449" lon="-4.3983">
        <ele>16</ele>
        <time>2014-05-08T09:08:46Z</time>
      </trkpt>
      <trkpt lat="48.1045" lon="-4.39841">
        <ele>16</ele>
        <time>2014-05-08T09:08:52Z</time>
      </trkpt>
      <trkpt lat="48.10456" lon="-4.39854">
        <ele>18</ele>
        <time>2014-05-08T09:08:57Z</time>
      </trkpt>
      <trkpt lat="48.10455" lon="-4.39866">
        <ele>17</ele>
        <time>2014-05-08T09:09:06Z</time>
      </trkpt>
      <trkpt lat="48.10456" lon="-4.39876">
        <ele>18</ele>
        <time>2014-05-08T09:09:14Z</time>
      </trkpt>
      <trkpt lat="48.1046" lon="-4.39888">
        <ele>15</ele>
        <time>2014-05-08T09:09:19Z</time>
      </trkpt>
      <trkpt lat="48.10464" lon="-4.39895">
        <ele>15</ele>
        <time>2014-05-08T09:09:23Z</time>
      </trkpt>
      <trkpt lat="48.1048" lon="-4.39907">
        <ele>23</ele>
        <time>2014-05-08T09:09:28Z</time>
      </trkpt>
      <trkpt lat="48.1048" lon="-4.3992">
        <ele>17</ele>
        <time>2014-05-08T09:09:39Z</time>
      </trkpt>
      <trkpt lat="48.10482" lon="-4.39931">
        <ele>16</ele>
        <time>2014-05-08T09:09:45Z</time>
      </trkpt>
      <trkpt lat="48.10489" lon="-4.39939">
        <ele>13</ele>
        <time>2014-05-08T09:09:54Z</time>
      </trkpt>
      <trkpt lat="48.10495" lon="-4.39949">
        <ele>13</ele>
        <time>2014-05-08T09:10:00Z</time>
      </trkpt>
      <trkpt lat="48.10501" lon="-4.39959">
        <ele>13</ele>
        <time>2014-05-08T09:10:05Z</time>
      </trkpt>
      <trkpt lat="48.10506" lon="-4.39969">
        <ele>11</ele>
        <time>2014-05-08T09:10:11Z</time>
      </trkpt>
      <trkpt lat="48.1051" lon="-4.39981">
        <ele>11</ele>
        <time>2014-05-08T09:10:18Z</time>
      </trkpt>
      <trkpt lat="48.10511" lon="-4.39994">
        <ele>7</ele>
        <time>2014-05-08T09:10:29Z</time>
      </trkpt>
      <trkpt lat="48.10516" lon="-4.40005">
        <ele>7</ele>
        <time>2014-05-08T09:10:37Z</time>
      </trkpt>
      <trkpt lat="48.10516" lon="-4.40018">
        <ele>8</ele>
        <time>2014-05-08T09:10:46Z</time>
      </trkpt>
      <trkpt lat="48.10516" lon="-4.4003">
        <ele>13</ele>
        <time>2014-05-08T09:10:55Z</time>
      </trkpt>
      <trkpt lat="48.10511" lon="-4.40041">
        <ele>12</ele>
        <time>2014-05-08T09:11:06Z</time>
      </trkpt>
      <trkpt lat="48.1051" lon="-4.40054">
        <ele>13</ele>
        <time>2014-05-08T09:11:21Z</time>
      </trkpt>
      <trkpt lat="48.10508" lon="-4.40067">
        <ele>14</ele>
        <time>2014-05-08T09:11:28Z</time>
      </trkpt>
      <trkpt lat="48.10508" lon="-4.40079">
        <ele>14</ele>
        <time>2014-05-08T09:11:44Z</time>
      </trkpt>
      <trkpt lat="48.10509" lon="-4.40091">
        <ele>16</ele>
        <time>2014-05-08T09:11:51Z</time>
      </trkpt>
      <trkpt lat="48.10516" lon="-4.40099">
        <ele>18</ele>
        <time>2014-05-08T09:11:57Z</time>
      </trkpt>
      <trkpt lat="48.10508" lon="-4.40111">
        <ele>18</ele>
        <time>2014-05-08T09:12:02Z</time>
      </trkpt>
      <trkpt lat="48.10504" lon="-4.40122">
        <ele>20</ele>
        <time>2014-05-08T09:12:12Z</time>
      </trkpt>
      <trkpt lat="48.10498" lon="-4.40132">
        <ele>19</ele>
        <time>2014-05-08T09:12:25Z</time>
      </trkpt>
      <trkpt lat="48.10491" lon="-4.40136">
        <ele>17</ele>
        <time>2014-05-08T09:12:34Z</time>
      </trkpt>
      <trkpt lat="48.10487" lon="-4.40148">
        <ele>17</ele>
        <time>2014-05-08T09:12:44Z</time>
      </trkpt>
      <trkpt lat="48.10494" lon="-4.40157">
        <ele>15</ele>
        <time>2014-05-08T09:12:54Z</time>
      </trkpt>
      <trkpt lat="48.10498" lon="-4.40168">
        <ele>17</ele>
        <time>2014-05-08T09:13:02Z</time>
      </trkpt>
      <trkpt lat="48.10503" lon="-4.40179">
        <ele>20</ele>
        <time>2014-05-08T09:13:11Z</time>
      </trkpt>
      <trkpt lat="48.10507" lon="-4.4019">
        <ele>25</ele>
        <time>2014-05-08T09:13:19Z</time>
      </trkpt>
      <trkpt lat="48.1051" lon="-4.40202">
        <ele>24</ele>
        <time>2014-05-08T09:13:29Z</time>
      </trkpt>
      <trkpt lat="48.10516" lon="-4.40212">
        <ele>29</ele>
        <time>2014-05-08T09:13:34Z</time>
      </trkpt>
      <trkpt lat="48.1052" lon="-4.40221">
        <ele>30</ele>
        <time>2014-05-08T09:13:39Z</time>
      </trkpt>
      <trkpt lat="48.10519" lon="-4.40234">
        <ele>29</ele>
        <time>2014-05-08T09:13:46Z</time>
      </trkpt>
      <trkpt lat="48.10523" lon="-4.40245">
        <ele>28</ele>
        <time>2014-05-08T09:13:55Z</time>
      </trkpt>
      <trkpt lat="48.10523" lon="-4.40257">
        <ele>26</ele>
        <time>2014-05-08T09:14:02Z</time>
      </trkpt>
      <trkpt lat="48.1053" lon="-4.40265">
        <ele>28</ele>
        <time>2014-05-08T09:14:08Z</time>
      </trkpt>
      <trkpt lat="48.10535" lon="-4.40275">
        <ele>29</ele>
        <time>2014-05-08T09:14:13Z</time>
      </trkpt>
      <trkpt lat="48.10536" lon="-4.40288">
        <ele>28</ele>
        <time>2014-05-08T09:14:18Z</time>
      </trkpt>
      <trkpt lat="48.10528" lon="-4.40295">
        <ele>25</ele>
        <time>2014-05-08T09:14:26Z</time>
      </trkpt>
      <trkpt lat="48.10531" lon="-4.40307">
        <ele>29</ele>
        <time>2014-05-08T09:14:34Z</time>
      </trkpt>
      <trkpt lat="48.10529" lon="-4.4032">
        <ele>26</ele>
        <time>2014-05-08T09:14:45Z</time>
      </trkpt>
      <trkpt lat="48.10533" lon="-4.40332">
        <ele>25</ele>
        <time>2014-05-08T09:14:51Z</time>
      </trkpt>
      <trkpt lat="48.10534" lon="-4.40343">
        <ele>20</ele>
        <time>2014-05-08T09:14:59Z</time>
      </trkpt>
      <trkpt lat="48.10535" lon="-4.40355">
        <ele>21</ele>
        <time>2014-05-08T09:15:04Z</time>
      </trkpt>
      <trkpt lat="48.10533" lon="-4.40366">
        <ele>21</ele>
        <time>2014-05-08T09:15:13Z</time>
      </trkpt>
      <trkpt lat="48.10531" lon="-4.40379">
        <ele>21</ele>
        <time>2014-05-08T09:15:32Z</time>
      </trkpt>
      <trkpt lat="48.1053" lon="-4.4039">
        <ele>21</ele>
        <time>2014-05-08T09:15:52Z</time>
      </trkpt>
      <trkpt lat="48.10523" lon="-4.40397">
        <ele>18</ele>
        <time>2014-05-08T09:16:00Z</time>
      </trkpt>
      <trkpt lat="48.10515" lon="-4.40399">
        <ele>19</ele>
        <time>2014-05-08T09:16:06Z</time>
      </trkpt>
      <trkpt lat="48.10507" lon="-4.40402">
        <ele>19</ele>
        <time>2014-05-08T09:16:22Z</time>
      </trkpt>
      <trkpt lat="48.10498" lon="-4.40401">
        <ele>19</ele>
        <time>2014-05-08T09:16:28Z</time>
      </trkpt>
      <trkpt lat="48.1049" lon="-4.40399">
        <ele>15</ele>
        <time>2014-05-08T09:16:37Z</time>
      </trkpt>
      <trkpt lat="48.10482" lon="-4.40403">
        <ele>17</ele>
        <time>2014-05-08T09:16:49Z</time>
      </trkpt>
      <trkpt lat="48.10474" lon="-4.40408">
        <ele>20</ele>
        <time>2014-05-08T09:16:57Z</time>
      </trkpt>
      <trkpt lat="48.10466" lon="-4.40412">
        <ele>21</ele>
        <time>2014-05-08T09:17:04Z</time>
      </trkpt>
      <trkpt lat="48.10457" lon="-4.40414">
        <ele>22</ele>
        <time>2014-05-08T09:17:13Z</time>
      </trkpt>
      <trkpt lat="48.10449" lon="-4.40414">
        <ele>21</ele>
        <time>2014-05-08T09:17:19Z</time>
      </trkpt>
      <trkpt lat="48.1044" lon="-4.40413">
        <ele>21</ele>
        <time>2014-05-08T09:17:26Z</time>
      </trkpt>
      <trkpt lat="48.10432" lon="-4.40415">
        <ele>18</ele>
        <time>2014-05-08T09:17:35Z</time>
      </trkpt>
      <trkpt lat="48.10423" lon="-4.40419">
        <ele>17</ele>
        <time>2014-05-08T09:17:40Z</time>
      </trkpt>
      <trkpt lat="48.10418" lon="-4.40421">
        <ele>17</ele>
        <time>2014-05-08T09:17:51Z</time>
      </trkpt>
      <trkpt lat="48.10399" lon="-4.40421">
        <ele>12</ele>
        <time>2014-05-08T09:17:56Z</time>
      </trkpt>
      <trkpt lat="48.1039" lon="-4.40426">
        <ele>9</ele>
        <time>2014-05-08T09:18:01Z</time>
      </trkpt>
      <trkpt lat="48.10382" lon="-4.40426">
        <ele>9</ele>
        <time>2014-05-08T09:18:06Z</time>
      </trkpt>
      <trkpt lat="48.10374" lon="-4.40428">
        <ele>7</ele>
        <time>2014-05-08T09:18:17Z</time>
      </trkpt>
      <trkpt lat="48.10368" lon="-4.40436">
        <ele>5</ele>
        <time>2014-05-08T09:18:43Z</time>
      </trkpt>
      <trkpt lat="48.10366" lon="-4.40449">
        <ele>6</ele>
        <time>2014-05-08T09:18:49Z</time>
      </trkpt>
      <trkpt lat="48.10362" lon="-4.40459">
        <ele>4</ele>
        <time>2014-05-08T09:18:56Z</time>
      </trkpt>
      <trkpt lat="48.10361" lon="-4.40471">
        <ele>7</ele>
        <time>2014-05-08T09:19:03Z</time>
      </trkpt>
      <trkpt lat="48.10356" lon="-4.4048">
        <ele>5</ele>
        <time>2014-05-08T09:19:09Z</time>
      </trkpt>
      <trkpt lat="48.10355" lon="-4.40493">
        <ele>4</ele>
        <time>2014-05-08T09:19:17Z</time>
      </trkpt>
      <trkpt lat="48.10358" lon="-4.40504">
        <ele>6</ele>
        <time>2014-05-08T09:19:25Z</time>
      </trkpt>
      <trkpt lat="48.10355" lon="-4.40515">
        <ele>7</ele>
        <time>2014-05-08T09:19:31Z</time>
      </trkpt>
      <trkpt lat="48.10357" lon="-4.40527">
        <ele>7</ele>
        <time>2014-05-08T09:19:36Z</time>
      </trkpt>
      <trkpt lat="48.10355" lon="-4.40538">
        <ele>6</ele>
        <time>2014-05-08T09:19:43Z</time>
      </trkpt>
      <trkpt lat="48.10353" lon="-4.4055">
        <ele>8</ele>
        <time>2014-05-08T09:19:47Z</time>
      </trkpt>
      <trkpt lat="48.10357" lon="-4.40561">
        <ele>10</ele>
        <time>2014-05-08T09:19:54Z</time>
      </trkpt>
      <trkpt lat="48.10354" lon="-4.40573">
        <ele>9</ele>
        <time>2014-05-08T09:20:02Z</time>
      </trkpt>
      <trkpt lat="48.10351" lon="-4.40584">
        <ele>11</ele>
        <time>2014-05-08T09:20:07Z</time>
      </trkpt>
      <trkpt lat="48.10345" lon="-4.40594">
        <ele>10</ele>
        <time>2014-05-08T09:20:15Z</time>
      </trkpt>
      <trkpt lat="48.10347" lon="-4.40607">
        <ele>13</ele>
        <time>2014-05-08T09:20:20Z</time>
      </trkpt>
      <trkpt lat="48.10344" lon="-4.40618">
        <ele>6</ele>
        <time>2014-05-08T09:20:29Z</time>
      </trkpt>
      <trkpt lat="48.10344" lon="-4.40629">
        <ele>6</ele>
        <time>2014-05-08T09:20:34Z</time>
      </trkpt>
      <trkpt lat="48.10344" lon="-4.40642">
        <ele>8</ele>
        <time>2014-05-08T09:20:43Z</time>
      </trkpt>
      <trkpt lat="48.10339" lon="-4.40651">
        <ele>6</ele>
        <time>2014-05-08T09:20:48Z</time>
      </trkpt>
      <trkpt lat="48.10337" lon="-4.40662">
        <ele>6</ele>
        <time>2014-05-08T09:20:54Z</time>
      </trkpt>
      <trkpt lat="48.10342" lon="-4.40675">
        <ele>9</ele>
        <time>2014-05-08T09:20:59Z</time>
      </trkpt>
      <trkpt lat="48.10336" lon="-4.40681">
        <ele>16</ele>
        <time>2014-05-08T09:21:09Z</time>
      </trkpt>
      <trkpt lat="48.10328" lon="-4.40682">
        <ele>18</ele>
        <time>2014-05-08T09:21:14Z</time>
      </trkpt>
      <trkpt lat="48.10322" lon="-4.40688">
        <ele>19</ele>
        <time>2014-05-08T09:21:19Z</time>
      </trkpt>
      <trkpt lat="48.10313" lon="-4.40689">
        <ele>20</ele>
        <time>2014-05-08T09:21:23Z</time>
      </trkpt>
      <trkpt lat="48.10317" lon="-4.40699">
        <ele>21</ele>
        <time>2014-05-08T09:21:38Z</time>
      </trkpt>
      <trkpt lat="48.10327" lon="-4.40698">
        <ele>19</ele>
        <time>2014-05-08T09:21:42Z</time>
      </trkpt>
      <trkpt lat="48.10332" lon="-4.40707">
        <ele>19</ele>
        <time>2014-05-08T09:21:48Z</time>
      </trkpt>
      <trkpt lat="48.10339" lon="-4.40715">
        <ele>17</ele>
        <time>2014-05-08T09:21:52Z</time>
      </trkpt>
      <trkpt lat="48.10346" lon="-4.40712">
        <ele>17</ele>
        <time>2014-05-08T09:21:57Z</time>
      </trkpt>
      <trkpt lat="48.10354" lon="-4.40709">
        <ele>15</ele>
        <time>2014-05-08T09:22:02Z</time>
      </trkpt>
      <trkpt lat="48.10362" lon="-4.40709">
        <ele>14</ele>
        <time>2014-05-08T09:22:07Z</time>
      </trkpt>
      <trkpt lat="48.1037" lon="-4.40702">
        <ele>10</ele>
        <time>2014-05-08T09:22:17Z</time>
      </trkpt>
      <trkpt lat="48.10376" lon="-4.40697">
        <ele>13</ele>
        <time>2014-05-08T09:22:29Z</time>
      </trkpt>
      <trkpt lat="48.10387" lon="-4.40685">
        <ele>18</ele>
        <time>2014-05-08T09:22:34Z</time>
      </trkpt>
      <trkpt lat="48.10395" lon="-4.40688">
        <ele>16</ele>
        <time>2014-05-08T09:22:45Z</time>
      </trkpt>
      <trkpt lat="48.10402" lon="-4.40696">
        <ele>14</ele>
        <time>2014-05-08T09:22:55Z</time>
      </trkpt>
      <trkpt lat="48.10414" lon="-4.40711">
        <ele>11</ele>
        <time>2014-05-08T09:23:00Z</time>
      </trkpt>
      <trkpt lat="48.10417" lon="-4.40721">
        <ele>5</ele>
        <time>2014-05-08T09:23:31Z</time>
      </trkpt>
      <trkpt lat="48.10421" lon="-4.40732">
        <ele>6</ele>
        <time>2014-05-08T09:23:39Z</time>
      </trkpt>
      <trkpt lat="48.10419" lon="-4.40745">
        <ele>8</ele>
        <time>2014-05-08T09:23:47Z</time>
      </trkpt>
      <trkpt lat="48.10418" lon="-4.40758">
        <ele>9</ele>
        <time>2014-05-08T09:23:52Z</time>
      </trkpt>
      <trkpt lat="48.10425" lon="-4.40766">
        <ele>7</ele>
        <time>2014-05-08T09:23:58Z</time>
      </trkpt>
      <trkpt lat="48.10431" lon="-4.40775">
        <ele>11</ele>
        <time>2014-05-08T09:24:05Z</time>
      </trkpt>
      <trkpt lat="48.1044" lon="-4.40782">
        <ele>13</ele>
        <time>2014-05-08T09:24:10Z</time>
      </trkpt>
      <trkpt lat="48.10443" lon="-4.40794">
        <ele>7</ele>
        <time>2014-05-08T09:24:18Z</time>
      </trkpt>
      <trkpt lat="48.10444" lon="-4.40807">
        <ele>8</ele>
        <time>2014-05-08T09:24:26Z</time>
      </trkpt>
      <trkpt lat="48.10441" lon="-4.40819">
        <ele>16</ele>
        <time>2014-05-08T09:24:40Z</time>
      </trkpt>
      <trkpt lat="48.10447" lon="-4.40828">
        <ele>18</ele>
        <time>2014-05-08T09:24:55Z</time>
      </trkpt>
      <trkpt lat="48.10456" lon="-4.40836">
        <ele>18</ele>
        <time>2014-05-08T09:25:00Z</time>
      </trkpt>
      <trkpt lat="48.10463" lon="-4.40843">
        <ele>23</ele>
        <time>2014-05-08T09:25:07Z</time>
      </trkpt>
      <trkpt lat="48.1047" lon="-4.40851">
        <ele>21</ele>
        <time>2014-05-08T09:25:13Z</time>
      </trkpt>
      <trkpt lat="48.10475" lon="-4.40862">
        <ele>15</ele>
        <time>2014-05-08T09:25:19Z</time>
      </trkpt>
      <trkpt lat="48.10482" lon="-4.4087">
        <ele>8</ele>
        <time>2014-05-08T09:25:29Z</time>
      </trkpt>
      <trkpt lat="48.10488" lon="-4.40877">
        <ele>8</ele>
        <time>2014-05-08T09:25:35Z</time>
      </trkpt>
      <trkpt lat="48.10494" lon="-4.40885">
        <ele>6</ele>
        <time>2014-05-08T09:25:42Z</time>
      </trkpt>
      <trkpt lat="48.10501" lon="-4.40893">
        <ele>2</ele>
        <time>2014-05-08T09:25:48Z</time>
      </trkpt>
      <trkpt lat="48.10508" lon="-4.40901">
        <ele>6</ele>
        <time>2014-05-08T09:25:59Z</time>
      </trkpt>
      <trkpt lat="48.10515" lon="-4.40909">
        <ele>12</ele>
        <time>2014-05-08T09:26:04Z</time>
      </trkpt>
      <trkpt lat="48.10522" lon="-4.40916">
        <ele>15</ele>
        <time>2014-05-08T09:26:10Z</time>
      </trkpt>
      <trkpt lat="48.10529" lon="-4.40921">
        <ele>15</ele>
        <time>2014-05-08T09:26:17Z</time>
      </trkpt>
      <trkpt lat="48.10535" lon="-4.40926">
        <ele>11</ele>
        <time>2014-05-08T09:26:30Z</time>
      </trkpt>
      <trkpt lat="48.10543" lon="-4.40934">
        <ele>10</ele>
        <time>2014-05-08T09:26:34Z</time>
      </trkpt>
      <trkpt lat="48.1055" lon="-4.4094">
        <ele>9</ele>
        <time>2014-05-08T09:26:39Z</time>
      </trkpt>
      <trkpt lat="48.10556" lon="-4.40951">
        <ele>5</ele>
        <time>2014-05-08T09:26:47Z</time>
      </trkpt>
      <trkpt lat="48.1056" lon="-4.40963">
        <ele>5</ele>
        <time>2014-05-08T09:27:13Z</time>
      </trkpt>
      <trkpt lat="48.1056" lon="-4.40976">
        <ele>6</ele>
        <time>2014-05-08T09:27:21Z</time>
      </trkpt>
      <trkpt lat="48.10564" lon="-4.40987">
        <ele>5</ele>
        <time>2014-05-08T09:27:31Z</time>
      </trkpt>
      <trkpt lat="48.10567" lon="-4.40997">
        <ele>8</ele>
        <time>2014-05-08T09:27:39Z</time>
      </trkpt>
      <trkpt lat="48.1057" lon="-4.41009">
        <ele>3</ele>
        <time>2014-05-08T09:27:50Z</time>
      </trkpt>
      <trkpt lat="48.10577" lon="-4.41017">
        <ele>6</ele>
        <time>2014-05-08T09:27:55Z</time>
      </trkpt>
      <trkpt lat="48.10585" lon="-4.41021">
        <ele>6</ele>
        <time>2014-05-08T09:28:01Z</time>
      </trkpt>
      <trkpt lat="48.10591" lon="-4.41029">
        <ele>6</ele>
        <time>2014-05-08T09:28:08Z</time>
      </trkpt>
      <trkpt lat="48.10598" lon="-4.41035">
        <ele>9</ele>
        <time>2014-05-08T09:28:14Z</time>
      </trkpt>
      <trkpt lat="48.10604" lon="-4.41045">
        <ele>9</ele>
        <time>2014-05-08T09:28:22Z</time>
      </trkpt>
      <trkpt lat="48.1061" lon="-4.41053">
        <ele>10</ele>
        <time>2014-05-08T09:28:30Z</time>
      </trkpt>
      <trkpt lat="48.10611" lon="-4.41065">
        <ele>10</ele>
        <time>2014-05-08T09:28:46Z</time>
      </trkpt>
      <trkpt lat="48.10609" lon="-4.41077">
        <ele>7</ele>
        <time>2014-05-08T09:28:55Z</time>
      </trkpt>
      <trkpt lat="48.10609" lon="-4.41087">
        <ele>8</ele>
        <time>2014-05-08T09:29:06Z</time>
      </trkpt>
      <trkpt lat="48.10608" lon="-4.41099">
        <ele>3</ele>
        <time>2014-05-08T09:29:12Z</time>
      </trkpt>
      <trkpt lat="48.10608" lon="-4.41112">
        <ele>1</ele>
        <time>2014-05-08T09:29:22Z</time>
      </trkpt>
      <trkpt lat="48.10614" lon="-4.41122">
        <ele>6</ele>
        <time>2014-05-08T09:29:34Z</time>
      </trkpt>
      <trkpt lat="48.10618" lon="-4.41133">
        <ele>9</ele>
        <time>2014-05-08T09:29:45Z</time>
      </trkpt>
      <trkpt lat="48.10621" lon="-4.41143">
        <ele>9</ele>
        <time>2014-05-08T09:29:58Z</time>
      </trkpt>
      <trkpt lat="48.1062" lon="-4.41154">
        <ele>6</ele>
        <time>2014-05-08T09:30:08Z</time>
      </trkpt>
      <trkpt lat="48.10624" lon="-4.41162">
        <ele>7</ele>
        <time>2014-05-08T09:30:15Z</time>
      </trkpt>
      <trkpt lat="48.1063" lon="-4.41173">
        <ele>5</ele>
        <time>2014-05-08T09:30:20Z</time>
      </trkpt>
      <trkpt lat="48.10636" lon="-4.41182">
        <ele>6</ele>
        <time>2014-05-08T09:30:25Z</time>
      </trkpt>
      <trkpt lat="48.10632" lon="-4.41193">
        <ele>1</ele>
        <time>2014-05-08T09:30:35Z</time>
      </trkpt>
      <trkpt lat="48.10634" lon="-4.41204">
        <ele>5</ele>
        <time>2014-05-08T09:30:45Z</time>
      </trkpt>
      <trkpt lat="48.10636" lon="-4.41216">
        <ele>8</ele>
        <time>2014-05-08T09:30:54Z</time>
      </trkpt>
      <trkpt lat="48.10644" lon="-4.41229">
        <ele>13</ele>
        <time>2014-05-08T09:30:59Z</time>
      </trkpt>
      <trkpt lat="48.10644" lon="-4.41242">
        <ele>12</ele>
        <time>2014-05-08T09:31:08Z</time>
      </trkpt>
      <trkpt lat="48.10648" lon="-4.41254">
        <ele>9</ele>
        <time>2014-05-08T09:31:16Z</time>
      </trkpt>
      <trkpt lat="48.10653" lon="-4.41263">
        <ele>11</ele>
        <time>2014-05-08T09:31:21Z</time>
      </trkpt>
      <trkpt lat="48.10656" lon="-4.41274">
        <ele>12</ele>
        <time>2014-05-08T09:31:26Z</time>
      </trkpt>
      <trkpt lat="48.10662" lon="-4.41285">
        <ele>11</ele>
        <time>2014-05-08T09:31:33Z</time>
      </trkpt>
      <trkpt lat="48.10662" lon="-4.41298">
        <ele>15</ele>
        <time>2014-05-08T09:39:46Z</time>
      </trkpt>
      <trkpt lat="48.1066" lon="-4.4131">
        <ele>16</ele>
        <time>2014-05-08T09:39:54Z</time>
      </trkpt>
      <trkpt lat="48.10656" lon="-4.41321">
        <ele>19</ele>
        <time>2014-05-08T09:40:01Z</time>
      </trkpt>
      <trkpt lat="48.10656" lon="-4.41333">
        <ele>24</ele>
        <time>2014-05-08T09:40:09Z</time>
      </trkpt>
      <trkpt lat="48.10649" lon="-4.41335">
        <ele>21</ele>
        <time>2014-05-08T09:40:13Z</time>
      </trkpt>
      <trkpt lat="48.10646" lon="-4.41345">
        <ele>25</ele>
        <time>2014-05-08T09:40:21Z</time>
      </trkpt>
      <trkpt lat="48.10646" lon="-4.41356">
        <ele>30</ele>
        <time>2014-05-08T09:40:27Z</time>
      </trkpt>
      <trkpt lat="48.10643" lon="-4.41367">
        <ele>26</ele>
        <time>2014-05-08T09:40:31Z</time>
      </trkpt>
      <trkpt lat="48.10639" lon="-4.41378">
        <ele>24</ele>
        <time>2014-05-08T09:40:36Z</time>
      </trkpt>
      <trkpt lat="48.10633" lon="-4.41388">
        <ele>23</ele>
        <time>2014-05-08T09:40:46Z</time>
      </trkpt>
      <trkpt lat="48.10626" lon="-4.41394">
        <ele>20</ele>
        <time>2014-05-08T09:40:54Z</time>
      </trkpt>
      <trkpt lat="48.10626" lon="-4.41407">
        <ele>19</ele>
        <time>2014-05-08T09:41:01Z</time>
      </trkpt>
      <trkpt lat="48.10627" lon="-4.41419">
        <ele>17</ele>
        <time>2014-05-08T09:41:09Z</time>
      </trkpt>
      <trkpt lat="48.1063" lon="-4.41432">
        <ele>17</ele>
        <time>2014-05-08T09:41:18Z</time>
      </trkpt>
      <trkpt lat="48.10633" lon="-4.41444">
        <ele>17</ele>
        <time>2014-05-08T09:41:25Z</time>
      </trkpt>
      <trkpt lat="48.10641" lon="-4.41452">
        <ele>22</ele>
        <time>2014-05-08T09:41:29Z</time>
      </trkpt>
      <trkpt lat="48.10648" lon="-4.41458">
        <ele>16</ele>
        <time>2014-05-08T09:41:39Z</time>
      </trkpt>
      <trkpt lat="48.10647" lon="-4.4147">
        <ele>12</ele>
        <time>2014-05-08T09:41:51Z</time>
      </trkpt>
      <trkpt lat="48.10644" lon="-4.41477">
        <ele>12</ele>
        <time>2014-05-08T09:42:02Z</time>
      </trkpt>
      <trkpt lat="48.10639" lon="-4.41487">
        <ele>14</ele>
        <time>2014-05-08T09:42:07Z</time>
      </trkpt>
      <trkpt lat="48.10633" lon="-4.41495">
        <ele>19</ele>
        <time>2014-05-08T09:42:33Z</time>
      </trkpt>
      <trkpt lat="48.10632" lon="-4.41509">
        <ele>21</ele>
        <time>2014-05-08T09:42:43Z</time>
      </trkpt>
      <trkpt lat="48.10627" lon="-4.4152">
        <ele>23</ele>
        <time>2014-05-08T09:43:01Z</time>
      </trkpt>
      <trkpt lat="48.10623" lon="-4.41532">
        <ele>23</ele>
        <time>2014-05-08T09:43:05Z</time>
      </trkpt>
      <trkpt lat="48.1062" lon="-4.41544">
        <ele>23</ele>
        <time>2014-05-08T09:43:13Z</time>
      </trkpt>
      <trkpt lat="48.10613" lon="-4.41559">
        <ele>21</ele>
        <time>2014-05-08T09:43:18Z</time>
      </trkpt>
      <trkpt lat="48.10611" lon="-4.4157">
        <ele>28</ele>
        <time>2014-05-08T09:43:32Z</time>
      </trkpt>
      <trkpt lat="48.10607" lon="-4.41581">
        <ele>28</ele>
        <time>2014-05-08T09:43:40Z</time>
      </trkpt>
      <trkpt lat="48.10602" lon="-4.41591">
        <ele>30</ele>
        <time>2014-05-08T09:43:49Z</time>
      </trkpt>
      <trkpt lat="48.10604" lon="-4.41603">
        <ele>38</ele>
        <time>2014-05-08T09:44:00Z</time>
      </trkpt>
      <trkpt lat="48.106" lon="-4.41614">
        <ele>40</ele>
        <time>2014-05-08T09:44:19Z</time>
      </trkpt>
      <trkpt lat="48.10597" lon="-4.41626">
        <ele>44</ele>
        <time>2014-05-08T09:44:40Z</time>
      </trkpt>
      <trkpt lat="48.10599" lon="-4.41638">
        <ele>40</ele>
        <time>2014-05-08T09:44:48Z</time>
      </trkpt>
      <trkpt lat="48.10594" lon="-4.41649">
        <ele>39</ele>
        <time>2014-05-08T09:44:55Z</time>
      </trkpt>
      <trkpt lat="48.10595" lon="-4.41661">
        <ele>41</ele>
        <time>2014-05-08T09:45:05Z</time>
      </trkpt>
      <trkpt lat="48.10588" lon="-4.41668">
        <ele>40</ele>
        <time>2014-05-08T09:45:10Z</time>
      </trkpt>
      <trkpt lat="48.1058" lon="-4.41673">
        <ele>45</ele>
        <time>2014-05-08T09:45:17Z</time>
      </trkpt>
      <trkpt lat="48.10572" lon="-4.4167">
        <ele>43</ele>
        <time>2014-05-08T09:45:24Z</time>
      </trkpt>
      <trkpt lat="48.10563" lon="-4.41672">
        <ele>44</ele>
        <time>2014-05-08T09:45:33Z</time>
      </trkpt>
      <trkpt lat="48.10554" lon="-4.4167">
        <ele>51</ele>
        <time>2014-05-08T09:45:42Z</time>
      </trkpt>
      <trkpt lat="48.10548" lon="-4.41679">
        <ele>52</ele>
        <time>2014-05-08T09:45:49Z</time>
      </trkpt>
      <trkpt lat="48.10545" lon="-4.41689">
        <ele>51</ele>
        <time>2014-05-08T09:45:57Z</time>
      </trkpt>
      <trkpt lat="48.10542" lon="-4.417">
        <ele>53</ele>
        <time>2014-05-08T09:46:02Z</time>
      </trkpt>
      <trkpt lat="48.10542" lon="-4.41713">
        <ele>52</ele>
        <time>2014-05-08T09:46:08Z</time>
      </trkpt>
      <trkpt lat="48.10537" lon="-4.41723">
        <ele>53</ele>
        <time>2014-05-08T09:46:16Z</time>
      </trkpt>
      <trkpt lat="48.10539" lon="-4.4173">
        <ele>52</ele>
        <time>2014-05-08T09:46:20Z</time>
      </trkpt>
      <trkpt lat="48.1054" lon="-4.41749">
        <ele>54</ele>
        <time>2014-05-08T09:46:24Z</time>
      </trkpt>
      <trkpt lat="48.10541" lon="-4.4176">
        <ele>50</ele>
        <time>2014-05-08T09:46:30Z</time>
      </trkpt>
      <trkpt lat="48.10547" lon="-4.41771">
        <ele>45</ele>
        <time>2014-05-08T09:46:38Z</time>
      </trkpt>
      <trkpt lat="48.10547" lon="-4.41782">
        <ele>45</ele>
        <time>2014-05-08T09:46:42Z</time>
      </trkpt>
      <trkpt lat="48.10547" lon="-4.41793">
        <ele>43</ele>
        <time>2014-05-08T09:46:47Z</time>
      </trkpt>
      <trkpt lat="48.1055" lon="-4.41806">
        <ele>40</ele>
        <time>2014-05-08T09:46:54Z</time>
      </trkpt>
      <trkpt lat="48.10551" lon="-4.41818">
        <ele>36</ele>
        <time>2014-05-08T09:47:05Z</time>
      </trkpt>
      <trkpt lat="48.10549" lon="-4.4183">
        <ele>38</ele>
        <time>2014-05-08T09:47:25Z</time>
      </trkpt>
      <trkpt lat="48.10551" lon="-4.41818">
        <ele>40</ele>
        <time>2014-05-08T09:47:57Z</time>
      </trkpt>
      <trkpt lat="48.10557" lon="-4.41823">
        <ele>36</ele>
        <time>2014-05-08T09:48:14Z</time>
      </trkpt>
      <trkpt lat="48.10549" lon="-4.41826">
        <ele>41</ele>
        <time>2014-05-08T09:53:21Z</time>
      </trkpt>
      <trkpt lat="48.10541" lon="-4.4183">
        <ele>44</ele>
        <time>2014-05-08T09:53:29Z</time>
      </trkpt>
      <trkpt lat="48.10533" lon="-4.41836">
        <ele>45</ele>
        <time>2014-05-08T09:53:35Z</time>
      </trkpt>
      <trkpt lat="48.10526" lon="-4.41841">
        <ele>48</ele>
        <time>2014-05-08T09:53:42Z</time>
      </trkpt>
      <trkpt lat="48.10522" lon="-4.41851">
        <ele>48</ele>
        <time>2014-05-08T09:53:47Z</time>
      </trkpt>
      <trkpt lat="48.10518" lon="-4.41862">
        <ele>51</ele>
        <time>2014-05-08T09:53:54Z</time>
      </trkpt>
      <trkpt lat="48.1051" lon="-4.41868">
        <ele>51</ele>
        <time>2014-05-08T09:53:58Z</time>
      </trkpt>
      <trkpt lat="48.10505" lon="-4.4188">
        <ele>47</ele>
        <time>2014-05-08T09:54:03Z</time>
      </trkpt>
      <trkpt lat="48.10498" lon="-4.41887">
        <ele>47</ele>
        <time>2014-05-08T09:54:09Z</time>
      </trkpt>
      <trkpt lat="48.1049" lon="-4.41894">
        <ele>47</ele>
        <time>2014-05-08T09:54:22Z</time>
      </trkpt>
      <trkpt lat="48.10485" lon="-4.41904">
        <ele>51</ele>
        <time>2014-05-08T09:54:28Z</time>
      </trkpt>
      <trkpt lat="48.10478" lon="-4.41909">
        <ele>51</ele>
        <time>2014-05-08T09:54:35Z</time>
      </trkpt>
      <trkpt lat="48.10474" lon="-4.4192">
        <ele>43</ele>
        <time>2014-05-08T09:54:45Z</time>
      </trkpt>
      <trkpt lat="48.10468" lon="-4.41929">
        <ele>44</ele>
        <time>2014-05-08T09:54:52Z</time>
      </trkpt>
      <trkpt lat="48.10464" lon="-4.4194">
        <ele>36</ele>
        <time>2014-05-08T09:55:00Z</time>
      </trkpt>
      <trkpt lat="48.1047" lon="-4.41949">
        <ele>37</ele>
        <time>2014-05-08T09:55:07Z</time>
      </trkpt>
      <trkpt lat="48.10478" lon="-4.41952">
        <ele>37</ele>
        <time>2014-05-08T09:55:13Z</time>
      </trkpt>
      <trkpt lat="48.10486" lon="-4.41959">
        <ele>34</ele>
        <time>2014-05-08T09:55:30Z</time>
      </trkpt>
      <trkpt lat="48.1049" lon="-4.4197">
        <ele>27</ele>
        <time>2014-05-08T09:55:40Z</time>
      </trkpt>
      <trkpt lat="48.10492" lon="-4.41982">
        <ele>22</ele>
        <time>2014-05-08T09:55:46Z</time>
      </trkpt>
      <trkpt lat="48.10498" lon="-4.41989">
        <ele>17</ele>
        <time>2014-05-08T09:55:52Z</time>
      </trkpt>
      <trkpt lat="48.10504" lon="-4.41999">
        <ele>18</ele>
        <time>2014-05-08T09:55:58Z</time>
      </trkpt>
      <trkpt lat="48.10507" lon="-4.42012">
        <ele>17</ele>
        <time>2014-05-08T09:56:06Z</time>
      </trkpt>
      <trkpt lat="48.10511" lon="-4.42023">
        <ele>21</ele>
        <time>2014-05-08T09:56:22Z</time>
      </trkpt>
      <trkpt lat="48.10504" lon="-4.42031">
        <ele>22</ele>
        <time>2014-05-08T09:56:33Z</time>
      </trkpt>
      <trkpt lat="48.10499" lon="-4.42041">
        <ele>22</ele>
        <time>2014-05-08T09:56:41Z</time>
      </trkpt>
      <trkpt lat="48.10493" lon="-4.42048">
        <ele>21</ele>
        <time>2014-05-08T09:56:47Z</time>
      </trkpt>
      <trkpt lat="48.10484" lon="-4.4205">
        <ele>14</ele>
        <time>2014-05-08T09:56:54Z</time>
      </trkpt>
      <trkpt lat="48.10476" lon="-4.42053">
        <ele>18</ele>
        <time>2014-05-08T09:57:00Z</time>
      </trkpt>
      <trkpt lat="48.10468" lon="-4.4205">
        <ele>19</ele>
        <time>2014-05-08T09:57:08Z</time>
      </trkpt>
      <trkpt lat="48.1046" lon="-4.42051">
        <ele>25</ele>
        <time>2014-05-08T09:57:23Z</time>
      </trkpt>
      <trkpt lat="48.10451" lon="-4.42052">
        <ele>24</ele>
        <time>2014-05-08T09:57:30Z</time>
      </trkpt>
      <trkpt lat="48.10444" lon="-4.42056">
        <ele>35</ele>
        <time>2014-05-08T09:57:44Z</time>
      </trkpt>
      <trkpt lat="48.10439" lon="-4.42065">
        <ele>36</ele>
        <time>2014-05-08T09:57:53Z</time>
      </trkpt>
      <trkpt lat="48.10431" lon="-4.42072">
        <ele>38</ele>
        <time>2014-05-08T09:58:03Z</time>
      </trkpt>
      <trkpt lat="48.10425" lon="-4.4208">
        <ele>39</ele>
        <time>2014-05-08T09:58:15Z</time>
      </trkpt>
      <trkpt lat="48.1042" lon="-4.42091">
        <ele>38</ele>
        <time>2014-05-08T09:58:25Z</time>
      </trkpt>
      <trkpt lat="48.10414" lon="-4.42098">
        <ele>36</ele>
        <time>2014-05-08T09:58:33Z</time>
      </trkpt>
      <trkpt lat="48.10408" lon="-4.42107">
        <ele>33</ele>
        <time>2014-05-08T09:58:42Z</time>
      </trkpt>
      <trkpt lat="48.104" lon="-4.42111">
        <ele>32</ele>
        <time>2014-05-08T09:58:48Z</time>
      </trkpt>
      <trkpt lat="48.10392" lon="-4.4211">
        <ele>31</ele>
        <time>2014-05-08T09:58:57Z</time>
      </trkpt>
      <trkpt lat="48.10383" lon="-4.42114">
        <ele>32</ele>
        <time>2014-05-08T09:59:04Z</time>
      </trkpt>
      <trkpt lat="48.10378" lon="-4.42121">
        <ele>36</ele>
        <time>2014-05-08T09:59:08Z</time>
      </trkpt>
      <trkpt lat="48.10371" lon="-4.42125">
        <ele>37</ele>
        <time>2014-05-08T09:59:13Z</time>
      </trkpt>
      <trkpt lat="48.10363" lon="-4.42127">
        <ele>36</ele>
        <time>2014-05-08T09:59:22Z</time>
      </trkpt>
      <trkpt lat="48.10357" lon="-4.42134">
        <ele>32</ele>
        <time>2014-05-08T09:59:29Z</time>
      </trkpt>
      <trkpt lat="48.10356" lon="-4.42146">
        <ele>28</ele>
        <time>2014-05-08T09:59:41Z</time>
      </trkpt>
      <trkpt lat="48.10353" lon="-4.42159">
        <ele>32</ele>
        <time>2014-05-08T09:59:58Z</time>
      </trkpt>
      <trkpt lat="48.1035" lon="-4.4217">
        <ele>33</ele>
        <time>2014-05-08T10:00:04Z</time>
      </trkpt>
      <trkpt lat="48.10346" lon="-4.42179">
        <ele>33</ele>
        <time>2014-05-08T10:00:10Z</time>
      </trkpt>
      <trkpt lat="48.10342" lon="-4.42194">
        <ele>32</ele>
        <time>2014-05-08T10:00:14Z</time>
      </trkpt>
      <trkpt lat="48.10342" lon="-4.42204">
        <ele>32</ele>
        <time>2014-05-08T10:00:19Z</time>
      </trkpt>
      <trkpt lat="48.10337" lon="-4.42214">
        <ele>33</ele>
        <time>2014-05-08T10:00:26Z</time>
      </trkpt>
      <trkpt lat="48.10329" lon="-4.42213">
        <ele>34</ele>
        <time>2014-05-08T10:00:39Z</time>
      </trkpt>
      <trkpt lat="48.10323" lon="-4.42222">
        <ele>35</ele>
        <time>2014-05-08T10:00:52Z</time>
      </trkpt>
      <trkpt lat="48.10321" lon="-4.42233">
        <ele>34</ele>
        <time>2014-05-08T10:01:00Z</time>
      </trkpt>
      <trkpt lat="48.10319" lon="-4.42246">
        <ele>37</ele>
        <time>2014-05-08T10:01:10Z</time>
      </trkpt>
      <trkpt lat="48.10311" lon="-4.42247">
        <ele>35</ele>
        <time>2014-05-08T10:01:18Z</time>
      </trkpt>
      <trkpt lat="48.10308" lon="-4.4226">
        <ele>29</ele>
        <time>2014-05-08T10:01:32Z</time>
      </trkpt>
      <trkpt lat="48.103" lon="-4.42262">
        <ele>32</ele>
        <time>2014-05-08T10:01:42Z</time>
      </trkpt>
      <trkpt lat="48.10292" lon="-4.42264">
        <ele>30</ele>
        <time>2014-05-08T10:01:50Z</time>
      </trkpt>
      <trkpt lat="48.10283" lon="-4.42266">
        <ele>29</ele>
        <time>2014-05-08T10:01:55Z</time>
      </trkpt>
      <trkpt lat="48.10281" lon="-4.42278">
        <ele>26</ele>
        <time>2014-05-08T10:02:04Z</time>
      </trkpt>
      <trkpt lat="48.10278" lon="-4.4229">
        <ele>25</ele>
        <time>2014-05-08T10:02:30Z</time>
      </trkpt>
      <trkpt lat="48.10274" lon="-4.42301">
        <ele>25</ele>
        <time>2014-05-08T10:02:38Z</time>
      </trkpt>
      <trkpt lat="48.10268" lon="-4.42312">
        <ele>24</ele>
        <time>2014-05-08T10:02:46Z</time>
      </trkpt>
      <trkpt lat="48.1026" lon="-4.42311">
        <ele>25</ele>
        <time>2014-05-08T10:03:05Z</time>
      </trkpt>
      <trkpt lat="48.10251" lon="-4.42309">
        <ele>22</ele>
        <time>2014-05-08T10:03:14Z</time>
      </trkpt>
      <trkpt lat="48.10242" lon="-4.42304">
        <ele>22</ele>
        <time>2014-05-08T10:03:18Z</time>
      </trkpt>
      <trkpt lat="48.10233" lon="-4.42303">
        <ele>21</ele>
        <time>2014-05-08T10:03:32Z</time>
      </trkpt>
      <trkpt lat="48.10226" lon="-4.42296">
        <ele>21</ele>
        <time>2014-05-08T10:03:48Z</time>
      </trkpt>
      <trkpt lat="48.1022" lon="-4.42289">
        <ele>20</ele>
        <time>2014-05-08T10:03:54Z</time>
      </trkpt>
      <trkpt lat="48.10216" lon="-4.42277">
        <ele>22</ele>
        <time>2014-05-08T10:04:02Z</time>
      </trkpt>
      <trkpt lat="48.10212" lon="-4.42266">
        <ele>21</ele>
        <time>2014-05-08T10:04:14Z</time>
      </trkpt>
      <trkpt lat="48.10205" lon="-4.42261">
        <ele>22</ele>
        <time>2014-05-08T10:04:19Z</time>
      </trkpt>
      <trkpt lat="48.10197" lon="-4.42258">
        <ele>22</ele>
        <time>2014-05-08T10:04:26Z</time>
      </trkpt>
      <trkpt lat="48.1019" lon="-4.42253">
        <ele>22</ele>
        <time>2014-05-08T10:04:32Z</time>
      </trkpt>
      <trkpt lat="48.10183" lon="-4.42253">
        <ele>23</ele>
        <time>2014-05-08T10:04:36Z</time>
      </trkpt>
      <trkpt lat="48.10174" lon="-4.42252">
        <ele>22</ele>
        <time>2014-05-08T10:04:41Z</time>
      </trkpt>
      <trkpt lat="48.10165" lon="-4.42253">
        <ele>20</ele>
        <time>2014-05-08T10:04:46Z</time>
      </trkpt>
      <trkpt lat="48.10158" lon="-4.42259">
        <ele>19</ele>
        <time>2014-05-08T10:04:52Z</time>
      </trkpt>
      <trkpt lat="48.10152" lon="-4.42267">
        <ele>17</ele>
        <time>2014-05-08T10:05:02Z</time>
      </trkpt>
      <trkpt lat="48.10152" lon="-4.4228">
        <ele>19</ele>
        <time>2014-05-08T10:05:12Z</time>
      </trkpt>
      <trkpt lat="48.10149" lon="-4.42292">
        <ele>19</ele>
        <time>2014-05-08T10:05:18Z</time>
      </trkpt>
      <trkpt lat="48.10145" lon="-4.42304">
        <ele>19</ele>
        <time>2014-05-08T10:05:28Z</time>
      </trkpt>
      <trkpt lat="48.1014" lon="-4.42313">
        <ele>19</ele>
        <time>2014-05-08T10:05:38Z</time>
      </trkpt>
      <trkpt lat="48.10131" lon="-4.4231">
        <ele>16</ele>
        <time>2014-05-08T10:05:50Z</time>
      </trkpt>
      <trkpt lat="48.10123" lon="-4.42313">
        <ele>15</ele>
        <time>2014-05-08T10:05:56Z</time>
      </trkpt>
      <trkpt lat="48.10115" lon="-4.42312">
        <ele>15</ele>
        <time>2014-05-08T10:06:01Z</time>
      </trkpt>
      <trkpt lat="48.10108" lon="-4.4231">
        <ele>16</ele>
        <time>2014-05-08T10:06:06Z</time>
      </trkpt>
      <trkpt lat="48.10099" lon="-4.42311">
        <ele>16</ele>
        <time>2014-05-08T10:06:11Z</time>
      </trkpt>
      <trkpt lat="48.10091" lon="-4.4231">
        <ele>14</ele>
        <time>2014-05-08T10:06:17Z</time>
      </trkpt>
      <trkpt lat="48.10083" lon="-4.42313">
        <ele>14</ele>
        <time>2014-05-08T10:06:24Z</time>
      </trkpt>
      <trkpt lat="48.10075" lon="-4.42313">
        <ele>13</ele>
        <time>2014-05-08T10:06:29Z</time>
      </trkpt>
      <trkpt lat="48.10069" lon="-4.42305">
        <ele>13</ele>
        <time>2014-05-08T10:06:36Z</time>
      </trkpt>
      <trkpt lat="48.10062" lon="-4.42298">
        <ele>12</ele>
        <time>2014-05-08T10:06:44Z</time>
      </trkpt>
      <trkpt lat="48.10055" lon="-4.42291">
        <ele>10</ele>
        <time>2014-05-08T10:06:49Z</time>
      </trkpt>
      <trkpt lat="48.10047" lon="-4.42289">
        <ele>10</ele>
        <time>2014-05-08T10:06:58Z</time>
      </trkpt>
      <trkpt lat="48.10039" lon="-4.42287">
        <ele>10</ele>
        <time>2014-05-08T10:07:02Z</time>
      </trkpt>
      <trkpt lat="48.10032" lon="-4.42292">
        <ele>10</ele>
        <time>2014-05-08T10:07:08Z</time>
      </trkpt>
      <trkpt lat="48.10025" lon="-4.42292">
        <ele>10</ele>
        <time>2014-05-08T10:07:15Z</time>
      </trkpt>
      <trkpt lat="48.10016" lon="-4.42293">
        <ele>9</ele>
        <time>2014-05-08T10:07:22Z</time>
      </trkpt>
      <trkpt lat="48.10007" lon="-4.42295">
        <ele>9</ele>
        <time>2014-05-08T10:07:37Z</time>
      </trkpt>
      <trkpt lat="48.09999" lon="-4.42298">
        <ele>7</ele>
        <time>2014-05-08T10:07:49Z</time>
      </trkpt>
      <trkpt lat="48.09992" lon="-4.42295">
        <ele>5</ele>
        <time>2014-05-08T10:08:38Z</time>
      </trkpt>
      <trkpt lat="48.09984" lon="-4.42296">
        <ele>10</ele>
        <time>2014-05-08T10:08:46Z</time>
      </trkpt>
      <trkpt lat="48.09982" lon="-4.42309">
        <ele>11</ele>
        <time>2014-05-08T10:08:54Z</time>
      </trkpt>
      <trkpt lat="48.09985" lon="-4.42322">
        <ele>11</ele>
        <time>2014-05-08T10:09:04Z</time>
      </trkpt>
      <trkpt lat="48.09986" lon="-4.42334">
        <ele>12</ele>
        <time>2014-05-08T10:09:15Z</time>
      </trkpt>
      <trkpt lat="48.09988" lon="-4.42346">
        <ele>13</ele>
        <time>2014-05-08T10:09:21Z</time>
      </trkpt>
      <trkpt lat="48.09994" lon="-4.42354">
        <ele>17</ele>
        <time>2014-05-08T10:09:28Z</time>
      </trkpt>
      <trkpt lat="48.1" lon="-4.42363">
        <ele>18</ele>
        <time>2014-05-08T10:09:33Z</time>
      </trkpt>
      <trkpt lat="48.09996" lon="-4.42373">
        <ele>19</ele>
        <time>2014-05-08T10:09:41Z</time>
      </trkpt>
      <trkpt lat="48.09994" lon="-4.42384">
        <ele>24</ele>
        <time>2014-05-08T10:10:02Z</time>
      </trkpt>
      <trkpt lat="48.09992" lon="-4.42393">
        <ele>22</ele>
        <time>2014-05-08T10:10:06Z</time>
      </trkpt>
      <trkpt lat="48.09995" lon="-4.42405">
        <ele>24</ele>
        <time>2014-05-08T10:10:11Z</time>
      </trkpt>
      <trkpt lat="48.09988" lon="-4.42413">
        <ele>26</ele>
        <time>2014-05-08T10:12:41Z</time>
      </trkpt>
      <trkpt lat="48.09986" lon="-4.42424">
        <ele>20</ele>
        <time>2014-05-08T10:12:45Z</time>
      </trkpt>
      <trkpt lat="48.09982" lon="-4.42435">
        <ele>18</ele>
        <time>2014-05-08T10:12:51Z</time>
      </trkpt>
      <trkpt lat="48.09976" lon="-4.42443">
        <ele>15</ele>
        <time>2014-05-08T10:13:06Z</time>
      </trkpt>
      <trkpt lat="48.0997" lon="-4.4245">
        <ele>13</ele>
        <time>2014-05-08T10:13:13Z</time>
      </trkpt>
      <trkpt lat="48.09968" lon="-4.42463">
        <ele>14</ele>
        <time>2014-05-08T10:13:19Z</time>
      </trkpt>
      <trkpt lat="48.09964" lon="-4.42475">
        <ele>14</ele>
        <time>2014-05-08T10:13:26Z</time>
      </trkpt>
      <trkpt lat="48.09957" lon="-4.42481">
        <ele>13</ele>
        <time>2014-05-08T10:13:36Z</time>
      </trkpt>
      <trkpt lat="48.09949" lon="-4.42482">
        <ele>15</ele>
        <time>2014-05-08T10:13:46Z</time>
      </trkpt>
      <trkpt lat="48.09952" lon="-4.42493">
        <ele>19</ele>
        <time>2014-05-08T10:14:11Z</time>
      </trkpt>
      <trkpt lat="48.0996" lon="-4.42499">
        <ele>20</ele>
        <time>2014-05-08T10:14:20Z</time>
      </trkpt>
      <trkpt lat="48.09965" lon="-4.42507">
        <ele>21</ele>
        <time>2014-05-08T10:14:28Z</time>
      </trkpt>
      <trkpt lat="48.09971" lon="-4.42517">
        <ele>22</ele>
        <time>2014-05-08T10:14:32Z</time>
      </trkpt>
      <trkpt lat="48.09978" lon="-4.42523">
        <ele>20</ele>
        <time>2014-05-08T10:14:42Z</time>
      </trkpt>
      <trkpt lat="48.09985" lon="-4.4253">
        <ele>25</ele>
        <time>2014-05-08T10:14:51Z</time>
      </trkpt>
      <trkpt lat="48.09981" lon="-4.42542">
        <ele>19</ele>
        <time>2014-05-08T10:15:06Z</time>
      </trkpt>
      <trkpt lat="48.09978" lon="-4.42551">
        <ele>17</ele>
        <time>2014-05-08T10:15:15Z</time>
      </trkpt>
      <trkpt lat="48.09973" lon="-4.42562">
        <ele>16</ele>
        <time>2014-05-08T10:15:20Z</time>
      </trkpt>
      <trkpt lat="48.09967" lon="-4.42566">
        <ele>16</ele>
        <time>2014-05-08T10:15:24Z</time>
      </trkpt>
      <trkpt lat="48.0996" lon="-4.42574">
        <ele>15</ele>
        <time>2014-05-08T10:15:31Z</time>
      </trkpt>
      <trkpt lat="48.09957" lon="-4.42584">
        <ele>19</ele>
        <time>2014-05-08T10:15:38Z</time>
      </trkpt>
      <trkpt lat="48.09949" lon="-4.42588">
        <ele>19</ele>
        <time>2014-05-08T10:15:48Z</time>
      </trkpt>
      <trkpt lat="48.09942" lon="-4.42595">
        <ele>18</ele>
        <time>2014-05-08T10:16:10Z</time>
      </trkpt>
      <trkpt lat="48.09946" lon="-4.42606">
        <ele>18</ele>
        <time>2014-05-08T10:16:23Z</time>
      </trkpt>
      <trkpt lat="48.0995" lon="-4.42616">
        <ele>17</ele>
        <time>2014-05-08T10:16:30Z</time>
      </trkpt>
      <trkpt lat="48.09956" lon="-4.42626">
        <ele>19</ele>
        <time>2014-05-08T10:16:37Z</time>
      </trkpt>
      <trkpt lat="48.09961" lon="-4.42634">
        <ele>20</ele>
        <time>2014-05-08T10:16:43Z</time>
      </trkpt>
      <trkpt lat="48.09963" lon="-4.42646">
        <ele>20</ele>
        <time>2014-05-08T10:16:49Z</time>
      </trkpt>
      <trkpt lat="48.0997" lon="-4.42654">
        <ele>21</ele>
        <time>2014-05-08T10:17:00Z</time>
      </trkpt>
      <trkpt lat="48.09967" lon="-4.42664">
        <ele>22</ele>
        <time>2014-05-08T10:17:19Z</time>
      </trkpt>
      <trkpt lat="48.09965" lon="-4.42674">
        <ele>22</ele>
        <time>2014-05-08T10:17:25Z</time>
      </trkpt>
      <trkpt lat="48.09963" lon="-4.42689">
        <ele>25</ele>
        <time>2014-05-08T10:17:29Z</time>
      </trkpt>
      <trkpt lat="48.09966" lon="-4.427">
        <ele>27</ele>
        <time>2014-05-08T10:17:34Z</time>
      </trkpt>
      <trkpt lat="48.09968" lon="-4.42712">
        <ele>25</ele>
        <time>2014-05-08T10:17:38Z</time>
      </trkpt>
      <trkpt lat="48.09973" lon="-4.42723">
        <ele>27</ele>
        <time>2014-05-08T10:17:43Z</time>
      </trkpt>
      <trkpt lat="48.09978" lon="-4.42731">
        <ele>28</ele>
        <time>2014-05-08T10:17:50Z</time>
      </trkpt>
      <trkpt lat="48.09987" lon="-4.42733">
        <ele>19</ele>
        <time>2014-05-08T10:17:58Z</time>
      </trkpt>
      <trkpt lat="48.09992" lon="-4.42743">
        <ele>18</ele>
        <time>2014-05-08T10:18:14Z</time>
      </trkpt>
      <trkpt lat="48.09996" lon="-4.42754">
        <ele>18</ele>
        <time>2014-05-08T10:18:26Z</time>
      </trkpt>
      <trkpt lat="48.09995" lon="-4.42767">
        <ele>17</ele>
        <time>2014-05-08T10:18:43Z</time>
      </trkpt>
      <trkpt lat="48.09996" lon="-4.42779">
        <ele>17</ele>
        <time>2014-05-08T10:18:48Z</time>
      </trkpt>
      <trkpt lat="48.09991" lon="-4.4279">
        <ele>15</ele>
        <time>2014-05-08T10:18:52Z</time>
      </trkpt>
      <trkpt lat="48.09986" lon="-4.428">
        <ele>15</ele>
        <time>2014-05-08T10:18:57Z</time>
      </trkpt>
      <trkpt lat="48.09984" lon="-4.4281">
        <ele>16</ele>
        <time>2014-05-08T10:19:18Z</time>
      </trkpt>
      <trkpt lat="48.09983" lon="-4.42823">
        <ele>15</ele>
        <time>2014-05-08T10:19:23Z</time>
      </trkpt>
      <trkpt lat="48.09985" lon="-4.42833">
        <ele>12</ele>
        <time>2014-05-08T10:19:57Z</time>
      </trkpt>
      <trkpt lat="48.09996" lon="-4.42841">
        <ele>12</ele>
        <time>2014-05-08T10:20:01Z</time>
      </trkpt>
      <trkpt lat="48.10003" lon="-4.42848">
        <ele>16</ele>
        <time>2014-05-08T10:20:07Z</time>
      </trkpt>
      <trkpt lat="48.09998" lon="-4.42856">
        <ele>17</ele>
        <time>2014-05-08T10:20:18Z</time>
      </trkpt>
      <trkpt lat="48.09992" lon="-4.42865">
        <ele>22</ele>
        <time>2014-05-08T10:20:34Z</time>
      </trkpt>
      <trkpt lat="48.09984" lon="-4.42871">
        <ele>23</ele>
        <time>2014-05-08T10:20:41Z</time>
      </trkpt>
      <trkpt lat="48.09978" lon="-4.4288">
        <ele>21</ele>
        <time>2014-05-08T10:20:52Z</time>
      </trkpt>
      <trkpt lat="48.09973" lon="-4.42889">
        <ele>20</ele>
        <time>2014-05-08T10:21:03Z</time>
      </trkpt>
      <trkpt lat="48.09965" lon="-4.42884">
        <ele>19</ele>
        <time>2014-05-08T10:21:15Z</time>
      </trkpt>
      <trkpt lat="48.09956" lon="-4.42885">
        <ele>23</ele>
        <time>2014-05-08T10:21:24Z</time>
      </trkpt>
      <trkpt lat="48.09948" lon="-4.42888">
        <ele>22</ele>
        <time>2014-05-08T10:21:36Z</time>
      </trkpt>
      <trkpt lat="48.09943" lon="-4.42895">
        <ele>21</ele>
        <time>2014-05-08T10:22:32Z</time>
      </trkpt>
      <trkpt lat="48.09938" lon="-4.42907">
        <ele>22</ele>
        <time>2014-05-08T10:22:37Z</time>
      </trkpt>
      <trkpt lat="48.09935" lon="-4.42922">
        <ele>23</ele>
        <time>2014-05-08T10:22:41Z</time>
      </trkpt>
      <trkpt lat="48.09934" lon="-4.42933">
        <ele>23</ele>
        <time>2014-05-08T10:22:49Z</time>
      </trkpt>
      <trkpt lat="48.09927" lon="-4.42938">
        <ele>22</ele>
        <time>2014-05-08T10:22:55Z</time>
      </trkpt>
      <trkpt lat="48.09922" lon="-4.42946">
        <ele>24</ele>
        <time>2014-05-08T10:23:31Z</time>
      </trkpt>
      <trkpt lat="48.09911" lon="-4.4295">
        <ele>23</ele>
        <time>2014-05-08T10:23:36Z</time>
      </trkpt>
      <trkpt lat="48.09904" lon="-4.42956">
        <ele>26</ele>
        <time>2014-05-08T10:23:42Z</time>
      </trkpt>
      <trkpt lat="48.09897" lon="-4.42958">
        <ele>25</ele>
        <time>2014-05-08T10:23:47Z</time>
      </trkpt>
      <trkpt lat="48.09891" lon="-4.42966">
        <ele>26</ele>
        <time>2014-05-08T10:23:53Z</time>
      </trkpt>
      <trkpt lat="48.09888" lon="-4.42977">
        <ele>31</ele>
        <time>2014-05-08T10:24:00Z</time>
      </trkpt>
      <trkpt lat="48.09882" lon="-4.42985">
        <ele>39</ele>
        <time>2014-05-08T10:24:19Z</time>
      </trkpt>
      <trkpt lat="48.09877" lon="-4.42996">
        <ele>42</ele>
        <time>2014-05-08T10:24:37Z</time>
      </trkpt>
      <trkpt lat="48.09869" lon="-4.43002">
        <ele>50</ele>
        <time>2014-05-08T10:24:48Z</time>
      </trkpt>
      <trkpt lat="48.09862" lon="-4.43009">
        <ele>47</ele>
        <time>2014-05-08T10:24:56Z</time>
      </trkpt>
      <trkpt lat="48.09857" lon="-4.43018">
        <ele>47</ele>
        <time>2014-05-08T10:25:00Z</time>
      </trkpt>
      <trkpt lat="48.09854" lon="-4.43029">
        <ele>42</ele>
        <time>2014-05-08T10:25:09Z</time>
      </trkpt>
      <trkpt lat="48.09848" lon="-4.4304">
        <ele>40</ele>
        <time>2014-05-08T10:25:26Z</time>
      </trkpt>
      <trkpt lat="48.09846" lon="-4.43051">
        <ele>39</ele>
        <time>2014-05-08T10:25:31Z</time>
      </trkpt>
      <trkpt lat="48.09846" lon="-4.43063">
        <ele>37</ele>
        <time>2014-05-08T10:25:39Z</time>
      </trkpt>
      <trkpt lat="48.09838" lon="-4.4307">
        <ele>34</ele>
        <time>2014-05-08T10:25:49Z</time>
      </trkpt>
      <trkpt lat="48.09831" lon="-4.43076">
        <ele>30</ele>
        <time>2014-05-08T10:26:00Z</time>
      </trkpt>
      <trkpt lat="48.09825" lon="-4.43086">
        <ele>30</ele>
        <time>2014-05-08T10:26:09Z</time>
      </trkpt>
      <trkpt lat="48.09819" lon="-4.43091">
        <ele>33</ele>
        <time>2014-05-08T10:26:19Z</time>
      </trkpt>
      <trkpt lat="48.09814" lon="-4.43101">
        <ele>37</ele>
        <time>2014-05-08T10:26:24Z</time>
      </trkpt>
      <trkpt lat="48.09805" lon="-4.43099">
        <ele>32</ele>
        <time>2014-05-08T10:26:38Z</time>
      </trkpt>
      <trkpt lat="48.09796" lon="-4.43097">
        <ele>33</ele>
        <time>2014-05-08T10:26:50Z</time>
      </trkpt>
      <trkpt lat="48.09788" lon="-4.43096">
        <ele>34</ele>
        <time>2014-05-08T10:27:02Z</time>
      </trkpt>
      <trkpt lat="48.09779" lon="-4.43094">
        <ele>35</ele>
        <time>2014-05-08T10:27:14Z</time>
      </trkpt>
      <trkpt lat="48.09772" lon="-4.43102">
        <ele>46</ele>
        <time>2014-05-08T10:27:39Z</time>
      </trkpt>
      <trkpt lat="48.09764" lon="-4.43104">
        <ele>46</ele>
        <time>2014-05-08T10:27:45Z</time>
      </trkpt>
      <trkpt lat="48.09757" lon="-4.43111">
        <ele>46</ele>
        <time>2014-05-08T10:27:55Z</time>
      </trkpt>
      <trkpt lat="48.0975" lon="-4.4312">
        <ele>42</ele>
        <time>2014-05-08T10:29:24Z</time>
      </trkpt>
      <trkpt lat="48.09744" lon="-4.4314">
        <ele>46</ele>
        <time>2014-05-08T10:29:29Z</time>
      </trkpt>
      <trkpt lat="48.09732" lon="-4.43159">
        <ele>49</ele>
        <time>2014-05-08T10:29:33Z</time>
      </trkpt>
      <trkpt lat="48.0973" lon="-4.43171">
        <ele>42</ele>
        <time>2014-05-08T10:29:51Z</time>
      </trkpt>
      <trkpt lat="48.09726" lon="-4.43181">
        <ele>40</ele>
        <time>2014-05-08T10:29:55Z</time>
      </trkpt>
      <trkpt lat="48.0972" lon="-4.43183">
        <ele>36</ele>
        <time>2014-05-08T10:30:30Z</time>
      </trkpt>
      <trkpt lat="48.09714" lon="-4.43198">
        <ele>29</ele>
        <time>2014-05-08T10:30:35Z</time>
      </trkpt>
      <trkpt lat="48.09713" lon="-4.43211">
        <ele>13</ele>
        <time>2014-05-08T10:30:49Z</time>
      </trkpt>
      <trkpt lat="48.09714" lon="-4.43223">
        <ele>16</ele>
        <time>2014-05-08T10:30:59Z</time>
      </trkpt>
      <trkpt lat="48.09711" lon="-4.43234">
        <ele>11</ele>
        <time>2014-05-08T10:31:07Z</time>
      </trkpt>
      <trkpt lat="48.09708" lon="-4.43245">
        <ele>8</ele>
        <time>2014-05-08T10:31:14Z</time>
      </trkpt>
      <trkpt lat="48.09706" lon="-4.43257">
        <ele>12</ele>
        <time>2014-05-08T10:31:21Z</time>
      </trkpt>
      <trkpt lat="48.09699" lon="-4.43264">
        <ele>13</ele>
        <time>2014-05-08T10:31:28Z</time>
      </trkpt>
      <trkpt lat="48.09693" lon="-4.4328">
        <ele>13</ele>
        <time>2014-05-08T10:31:32Z</time>
      </trkpt>
      <trkpt lat="48.09685" lon="-4.43285">
        <ele>11</ele>
        <time>2014-05-08T10:31:42Z</time>
      </trkpt>
      <trkpt lat="48.09678" lon="-4.4329">
        <ele>9</ele>
        <time>2014-05-08T10:31:46Z</time>
      </trkpt>
      <trkpt lat="48.0967" lon="-4.43291">
        <ele>12</ele>
        <time>2014-05-08T10:31:55Z</time>
      </trkpt>
      <trkpt lat="48.09665" lon="-4.43301">
        <ele>14</ele>
        <time>2014-05-08T10:32:02Z</time>
      </trkpt>
      <trkpt lat="48.09658" lon="-4.43306">
        <ele>12</ele>
        <time>2014-05-08T10:32:07Z</time>
      </trkpt>
      <trkpt lat="48.0965" lon="-4.43309">
        <ele>11</ele>
        <time>2014-05-08T10:32:16Z</time>
      </trkpt>
      <trkpt lat="48.09643" lon="-4.43314">
        <ele>12</ele>
        <time>2014-05-08T10:32:25Z</time>
      </trkpt>
      <trkpt lat="48.09637" lon="-4.43319">
        <ele>12</ele>
        <time>2014-05-08T10:32:29Z</time>
      </trkpt>
      <trkpt lat="48.09634" lon="-4.43332">
        <ele>14</ele>
        <time>2014-05-08T10:32:37Z</time>
      </trkpt>
      <trkpt lat="48.0963" lon="-4.43344">
        <ele>16</ele>
        <time>2014-05-08T10:32:43Z</time>
      </trkpt>
      <trkpt lat="48.09625" lon="-4.43354">
        <ele>18</ele>
        <time>2014-05-08T10:32:51Z</time>
      </trkpt>
      <trkpt lat="48.0962" lon="-4.43366">
        <ele>13</ele>
        <time>2014-05-08T10:33:07Z</time>
      </trkpt>
      <trkpt lat="48.09629" lon="-4.4337">
        <ele>18</ele>
        <time>2014-05-08T10:33:35Z</time>
      </trkpt>
      <trkpt lat="48.09623" lon="-4.43379">
        <ele>20</ele>
        <time>2014-05-08T10:35:23Z</time>
      </trkpt>
      <trkpt lat="48.09617" lon="-4.43391">
        <ele>20</ele>
        <time>2014-05-08T10:35:27Z</time>
      </trkpt>
      <trkpt lat="48.09624" lon="-4.43389">
        <ele>35</ele>
        <time>2014-05-08T11:43:12Z</time>
      </trkpt>
      <trkpt lat="48.09621" lon="-4.43379">
        <ele>36</ele>
        <time>2014-05-08T11:43:35Z</time>
      </trkpt>
      <trkpt lat="48.09629" lon="-4.43379">
        <ele>31</ele>
        <time>2014-05-08T11:43:47Z</time>
      </trkpt>
      <trkpt lat="48.09636" lon="-4.43372">
        <ele>29</ele>
        <time>2014-05-08T11:44:00Z</time>
      </trkpt>
      <trkpt lat="48.09645" lon="-4.43372">
        <ele>27</ele>
        <time>2014-05-08T11:44:08Z</time>
      </trkpt>
      <trkpt lat="48.09652" lon="-4.43377">
        <ele>24</ele>
        <time>2014-05-08T11:44:18Z</time>
      </trkpt>
      <trkpt lat="48.09659" lon="-4.43383">
        <ele>24</ele>
        <time>2014-05-08T11:44:24Z</time>
      </trkpt>
      <trkpt lat="48.09667" lon="-4.43386">
        <ele>30</ele>
        <time>2014-05-08T11:44:30Z</time>
      </trkpt>
      <trkpt lat="48.09675" lon="-4.43392">
        <ele>33</ele>
        <time>2014-05-08T11:44:37Z</time>
      </trkpt>
      <trkpt lat="48.09681" lon="-4.434">
        <ele>26</ele>
        <time>2014-05-08T11:44:48Z</time>
      </trkpt>
      <trkpt lat="48.0969" lon="-4.43403">
        <ele>26</ele>
        <time>2014-05-08T11:44:55Z</time>
      </trkpt>
      <trkpt lat="48.09697" lon="-4.43409">
        <ele>25</ele>
        <time>2014-05-08T11:45:01Z</time>
      </trkpt>
      <trkpt lat="48.09703" lon="-4.43419">
        <ele>27</ele>
        <time>2014-05-08T11:45:08Z</time>
      </trkpt>
      <trkpt lat="48.09703" lon="-4.43431">
        <ele>28</ele>
        <time>2014-05-08T11:45:17Z</time>
      </trkpt>
      <trkpt lat="48.09699" lon="-4.43441">
        <ele>26</ele>
        <time>2014-05-08T11:45:26Z</time>
      </trkpt>
      <trkpt lat="48.09695" lon="-4.43453">
        <ele>23</ele>
        <time>2014-05-08T11:45:38Z</time>
      </trkpt>
      <trkpt lat="48.09694" lon="-4.43466">
        <ele>20</ele>
        <time>2014-05-08T11:45:51Z</time>
      </trkpt>
      <trkpt lat="48.09696" lon="-4.43479">
        <ele>22</ele>
        <time>2014-05-08T11:46:15Z</time>
      </trkpt>
      <trkpt lat="48.09701" lon="-4.43489">
        <ele>24</ele>
        <time>2014-05-08T11:46:28Z</time>
      </trkpt>
      <trkpt lat="48.09699" lon="-4.43501">
        <ele>24</ele>
        <time>2014-05-08T11:46:36Z</time>
      </trkpt>
      <trkpt lat="48.09698" lon="-4.43514">
        <ele>19</ele>
        <time>2014-05-08T11:46:43Z</time>
      </trkpt>
      <trkpt lat="48.09702" lon="-4.43524">
        <ele>22</ele>
        <time>2014-05-08T11:46:49Z</time>
      </trkpt>
      <trkpt lat="48.09707" lon="-4.43537">
        <ele>22</ele>
        <time>2014-05-08T11:46:54Z</time>
      </trkpt>
      <trkpt lat="48.09708" lon="-4.43549">
        <ele>19</ele>
        <time>2014-05-08T11:47:08Z</time>
      </trkpt>
      <trkpt lat="48.09712" lon="-4.43562">
        <ele>20</ele>
        <time>2014-05-08T11:47:20Z</time>
      </trkpt>
      <trkpt lat="48.09715" lon="-4.4357">
        <ele>20</ele>
        <time>2014-05-08T11:47:24Z</time>
      </trkpt>
      <trkpt lat="48.09725" lon="-4.43588">
        <ele>18</ele>
        <time>2014-05-08T11:47:28Z</time>
      </trkpt>
      <trkpt lat="48.0973" lon="-4.43599">
        <ele>18</ele>
        <time>2014-05-08T11:47:35Z</time>
      </trkpt>
      <trkpt lat="48.09734" lon="-4.43607">
        <ele>21</ele>
        <time>2014-05-08T11:47:39Z</time>
      </trkpt>
      <trkpt lat="48.09737" lon="-4.43618">
        <ele>20</ele>
        <time>2014-05-08T11:47:43Z</time>
      </trkpt>
      <trkpt lat="48.09738" lon="-4.43628">
        <ele>21</ele>
        <time>2014-05-08T11:48:15Z</time>
      </trkpt>
      <trkpt lat="48.09735" lon="-4.43654">
        <ele>21</ele>
        <time>2014-05-08T11:48:20Z</time>
      </trkpt>
      <trkpt lat="48.09731" lon="-4.43672">
        <ele>24</ele>
        <time>2014-05-08T11:48:24Z</time>
      </trkpt>
      <trkpt lat="48.09725" lon="-4.43681">
        <ele>28</ele>
        <time>2014-05-08T11:48:30Z</time>
      </trkpt>
      <trkpt lat="48.09717" lon="-4.43683">
        <ele>27</ele>
        <time>2014-05-08T11:48:38Z</time>
      </trkpt>
      <trkpt lat="48.09709" lon="-4.43679">
        <ele>30</ele>
        <time>2014-05-08T11:48:51Z</time>
      </trkpt>
      <trkpt lat="48.09702" lon="-4.43685">
        <ele>33</ele>
        <time>2014-05-08T11:48:57Z</time>
      </trkpt>
      <trkpt lat="48.09692" lon="-4.43688">
        <ele>33</ele>
        <time>2014-05-08T11:49:01Z</time>
      </trkpt>
      <trkpt lat="48.09688" lon="-4.43697">
        <ele>36</ele>
        <time>2014-05-08T11:49:09Z</time>
      </trkpt>
      <trkpt lat="48.09679" lon="-4.43705">
        <ele>36</ele>
        <time>2014-05-08T11:49:14Z</time>
      </trkpt>
      <trkpt lat="48.09679" lon="-4.4372">
        <ele>38</ele>
        <time>2014-05-08T11:49:19Z</time>
      </trkpt>
      <trkpt lat="48.09678" lon="-4.43733">
        <ele>41</ele>
        <time>2014-05-08T11:49:27Z</time>
      </trkpt>
      <trkpt lat="48.09673" lon="-4.43735">
        <ele>37</ele>
        <time>2014-05-08T11:49:36Z</time>
      </trkpt>
      <trkpt lat="48.09662" lon="-4.43743">
        <ele>40</ele>
        <time>2014-05-08T11:49:40Z</time>
      </trkpt>
      <trkpt lat="48.09658" lon="-4.43754">
        <ele>44</ele>
        <time>2014-05-08T11:49:46Z</time>
      </trkpt>
      <trkpt lat="48.09659" lon="-4.43762">
        <ele>44</ele>
        <time>2014-05-08T11:49:52Z</time>
      </trkpt>
      <trkpt lat="48.09664" lon="-4.43774">
        <ele>44</ele>
        <time>2014-05-08T11:49:57Z</time>
      </trkpt>
      <trkpt lat="48.09662" lon="-4.43784">
        <ele>44</ele>
        <time>2014-05-08T11:50:09Z</time>
      </trkpt>
      <trkpt lat="48.09661" lon="-4.43796">
        <ele>43</ele>
        <time>2014-05-08T11:50:13Z</time>
      </trkpt>
      <trkpt lat="48.09658" lon="-4.43808">
        <ele>41</ele>
        <time>2014-05-08T11:50:19Z</time>
      </trkpt>
      <trkpt lat="48.09653" lon="-4.43818">
        <ele>37</ele>
        <time>2014-05-08T11:50:27Z</time>
      </trkpt>
      <trkpt lat="48.09649" lon="-4.43836">
        <ele>35</ele>
        <time>2014-05-08T11:50:32Z</time>
      </trkpt>
      <trkpt lat="48.0965" lon="-4.43848">
        <ele>38</ele>
        <time>2014-05-08T11:50:39Z</time>
      </trkpt>
      <trkpt lat="48.09654" lon="-4.43859">
        <ele>37</ele>
        <time>2014-05-08T11:50:46Z</time>
      </trkpt>
      <trkpt lat="48.09663" lon="-4.43858">
        <ele>42</ele>
        <time>2014-05-08T11:50:59Z</time>
      </trkpt>
      <trkpt lat="48.09657" lon="-4.43867">
        <ele>39</ele>
        <time>2014-05-08T11:51:40Z</time>
      </trkpt>
      <trkpt lat="48.09651" lon="-4.43873">
        <ele>40</ele>
        <time>2014-05-08T11:51:50Z</time>
      </trkpt>
      <trkpt lat="48.09648" lon="-4.43885">
        <ele>39</ele>
        <time>2014-05-08T11:51:54Z</time>
      </trkpt>
      <trkpt lat="48.09645" lon="-4.43897">
        <ele>40</ele>
        <time>2014-05-08T11:52:03Z</time>
      </trkpt>
      <trkpt lat="48.09641" lon="-4.43905">
        <ele>38</ele>
        <time>2014-05-08T11:52:17Z</time>
      </trkpt>
      <trkpt lat="48.09637" lon="-4.43919">
        <ele>34</ele>
        <time>2014-05-08T11:52:21Z</time>
      </trkpt>
      <trkpt lat="48.09633" lon="-4.43931">
        <ele>32</ele>
        <time>2014-05-08T11:52:25Z</time>
      </trkpt>
      <trkpt lat="48.09635" lon="-4.4394">
        <ele>32</ele>
        <time>2014-05-08T11:52:33Z</time>
      </trkpt>
      <trkpt lat="48.09639" lon="-4.43959">
        <ele>33</ele>
        <time>2014-05-08T11:52:38Z</time>
      </trkpt>
      <trkpt lat="48.09644" lon="-4.4397">
        <ele>31</ele>
        <time>2014-05-08T11:52:44Z</time>
      </trkpt>
      <trkpt lat="48.09649" lon="-4.43977">
        <ele>29</ele>
        <time>2014-05-08T11:52:50Z</time>
      </trkpt>
      <trkpt lat="48.09654" lon="-4.43988">
        <ele>31</ele>
        <time>2014-05-08T11:52:59Z</time>
      </trkpt>
      <trkpt lat="48.09663" lon="-4.43994">
        <ele>34</ele>
        <time>2014-05-08T11:53:04Z</time>
      </trkpt>
      <trkpt lat="48.09661" lon="-4.43996">
        <ele>33</ele>
        <time>2014-05-08T11:53:14Z</time>
      </trkpt>
      <trkpt lat="48.09653" lon="-4.44014">
        <ele>33</ele>
        <time>2014-05-08T11:53:18Z</time>
      </trkpt>
      <trkpt lat="48.09647" lon="-4.44025">
        <ele>27</ele>
        <time>2014-05-08T11:53:23Z</time>
      </trkpt>
      <trkpt lat="48.0965" lon="-4.44037">
        <ele>25</ele>
        <time>2014-05-08T11:53:54Z</time>
      </trkpt>
      <trkpt lat="48.09653" lon="-4.44051">
        <ele>23</ele>
        <time>2014-05-08T11:53:58Z</time>
      </trkpt>
      <trkpt lat="48.09648" lon="-4.4407">
        <ele>23</ele>
        <time>2014-05-08T11:54:03Z</time>
      </trkpt>
      <trkpt lat="48.09652" lon="-4.44081">
        <ele>20</ele>
        <time>2014-05-08T11:54:08Z</time>
      </trkpt>
      <trkpt lat="48.09653" lon="-4.44094">
        <ele>23</ele>
        <time>2014-05-08T11:54:26Z</time>
      </trkpt>
      <trkpt lat="48.09645" lon="-4.441">
        <ele>22</ele>
        <time>2014-05-08T11:54:36Z</time>
      </trkpt>
      <trkpt lat="48.09637" lon="-4.44115">
        <ele>21</ele>
        <time>2014-05-08T11:54:41Z</time>
      </trkpt>
      <trkpt lat="48.09631" lon="-4.44121">
        <ele>20</ele>
        <time>2014-05-08T11:54:46Z</time>
      </trkpt>
      <trkpt lat="48.09622" lon="-4.44127">
        <ele>19</ele>
        <time>2014-05-08T11:54:50Z</time>
      </trkpt>
      <trkpt lat="48.09613" lon="-4.44129">
        <ele>18</ele>
        <time>2014-05-08T11:54:54Z</time>
      </trkpt>
      <trkpt lat="48.09614" lon="-4.44142">
        <ele>23</ele>
        <time>2014-05-08T11:55:20Z</time>
      </trkpt>
      <trkpt lat="48.09611" lon="-4.44161">
        <ele>21</ele>
        <time>2014-05-08T11:55:25Z</time>
      </trkpt>
      <trkpt lat="48.09617" lon="-4.44171">
        <ele>20</ele>
        <time>2014-05-08T11:55:29Z</time>
      </trkpt>
      <trkpt lat="48.09613" lon="-4.44183">
        <ele>17</ele>
        <time>2014-05-08T11:55:34Z</time>
      </trkpt>
      <trkpt lat="48.09608" lon="-4.44193">
        <ele>19</ele>
        <time>2014-05-08T11:56:02Z</time>
      </trkpt>
      <trkpt lat="48.09606" lon="-4.44208">
        <ele>21</ele>
        <time>2014-05-08T11:56:07Z</time>
      </trkpt>
      <trkpt lat="48.09604" lon="-4.4422">
        <ele>19</ele>
        <time>2014-05-08T11:56:40Z</time>
      </trkpt>
      <trkpt lat="48.09609" lon="-4.44244">
        <ele>16</ele>
        <time>2014-05-08T11:56:45Z</time>
      </trkpt>
      <trkpt lat="48.09606" lon="-4.44255">
        <ele>15</ele>
        <time>2014-05-08T11:56:54Z</time>
      </trkpt>
      <trkpt lat="48.09615" lon="-4.44257">
        <ele>18</ele>
        <time>2014-05-08T11:57:00Z</time>
      </trkpt>
      <trkpt lat="48.09622" lon="-4.44264">
        <ele>22</ele>
        <time>2014-05-08T11:57:07Z</time>
      </trkpt>
      <trkpt lat="48.09629" lon="-4.44258">
        <ele>24</ele>
        <time>2014-05-08T11:57:12Z</time>
      </trkpt>
      <trkpt lat="48.09638" lon="-4.44257">
        <ele>26</ele>
        <time>2014-05-08T11:57:16Z</time>
      </trkpt>
      <trkpt lat="48.09645" lon="-4.44264">
        <ele>24</ele>
        <time>2014-05-08T11:57:25Z</time>
      </trkpt>
      <trkpt lat="48.09653" lon="-4.44261">
        <ele>23</ele>
        <time>2014-05-08T11:57:31Z</time>
      </trkpt>
      <trkpt lat="48.0966" lon="-4.44262">
        <ele>25</ele>
        <time>2014-05-08T11:57:37Z</time>
      </trkpt>
      <trkpt lat="48.09668" lon="-4.44258">
        <ele>25</ele>
        <time>2014-05-08T11:57:45Z</time>
      </trkpt>
      <trkpt lat="48.09674" lon="-4.44249">
        <ele>23</ele>
        <time>2014-05-08T11:57:55Z</time>
      </trkpt>
      <trkpt lat="48.09683" lon="-4.4425">
        <ele>24</ele>
        <time>2014-05-08T11:58:00Z</time>
      </trkpt>
      <trkpt lat="48.0969" lon="-4.44256">
        <ele>25</ele>
        <time>2014-05-08T11:58:08Z</time>
      </trkpt>
      <trkpt lat="48.09689" lon="-4.44268">
        <ele>24</ele>
        <time>2014-05-08T11:58:48Z</time>
      </trkpt>
      <trkpt lat="48.0969" lon="-4.44289">
        <ele>22</ele>
        <time>2014-05-08T11:58:53Z</time>
      </trkpt>
      <trkpt lat="48.09693" lon="-4.44299">
        <ele>25</ele>
        <time>2014-05-08T11:59:00Z</time>
      </trkpt>
      <trkpt lat="48.09696" lon="-4.44313">
        <ele>23</ele>
        <time>2014-05-08T11:59:04Z</time>
      </trkpt>
      <trkpt lat="48.09696" lon="-4.44325">
        <ele>21</ele>
        <time>2014-05-08T11:59:09Z</time>
      </trkpt>
      <trkpt lat="48.097" lon="-4.44337">
        <ele>20</ele>
        <time>2014-05-08T11:59:15Z</time>
      </trkpt>
      <trkpt lat="48.09706" lon="-4.44342">
        <ele>22</ele>
        <time>2014-05-08T11:59:26Z</time>
      </trkpt>
      <trkpt lat="48.09708" lon="-4.44355">
        <ele>20</ele>
        <time>2014-05-08T11:59:31Z</time>
      </trkpt>
      <trkpt lat="48.09713" lon="-4.44365">
        <ele>23</ele>
        <time>2014-05-08T11:59:37Z</time>
      </trkpt>
      <trkpt lat="48.09721" lon="-4.4437">
        <ele>26</ele>
        <time>2014-05-08T11:59:43Z</time>
      </trkpt>
      <trkpt lat="48.09727" lon="-4.44376">
        <ele>26</ele>
        <time>2014-05-08T11:59:51Z</time>
      </trkpt>
      <trkpt lat="48.09735" lon="-4.44377">
        <ele>25</ele>
        <time>2014-05-08T11:59:58Z</time>
      </trkpt>
      <trkpt lat="48.09744" lon="-4.44381">
        <ele>23</ele>
        <time>2014-05-08T12:00:06Z</time>
      </trkpt>
      <trkpt lat="48.09749" lon="-4.44391">
        <ele>25</ele>
        <time>2014-05-08T12:00:13Z</time>
      </trkpt>
      <trkpt lat="48.09754" lon="-4.44401">
        <ele>26</ele>
        <time>2014-05-08T12:00:24Z</time>
      </trkpt>
      <trkpt lat="48.09761" lon="-4.44409">
        <ele>25</ele>
        <time>2014-05-08T12:00:37Z</time>
      </trkpt>
      <trkpt lat="48.09756" lon="-4.44421">
        <ele>20</ele>
        <time>2014-05-08T12:02:50Z</time>
      </trkpt>
      <trkpt lat="48.09749" lon="-4.44428">
        <ele>17</ele>
        <time>2014-05-08T12:03:02Z</time>
      </trkpt>
      <trkpt lat="48.09743" lon="-4.44432">
        <ele>18</ele>
        <time>2014-05-08T12:03:23Z</time>
      </trkpt>
      <trkpt lat="48.09735" lon="-4.44439">
        <ele>19</ele>
        <time>2014-05-08T12:03:30Z</time>
      </trkpt>
      <trkpt lat="48.09729" lon="-4.44444">
        <ele>19</ele>
        <time>2014-05-08T12:03:35Z</time>
      </trkpt>
      <trkpt lat="48.09721" lon="-4.44459">
        <ele>19</ele>
        <time>2014-05-08T12:03:39Z</time>
      </trkpt>
      <trkpt lat="48.09715" lon="-4.44468">
        <ele>19</ele>
        <time>2014-05-08T12:03:47Z</time>
      </trkpt>
      <trkpt lat="48.09712" lon="-4.44478">
        <ele>22</ele>
        <time>2014-05-08T12:03:57Z</time>
      </trkpt>
      <trkpt lat="48.09706" lon="-4.44492">
        <ele>23</ele>
        <time>2014-05-08T12:04:01Z</time>
      </trkpt>
      <trkpt lat="48.09708" lon="-4.44503">
        <ele>24</ele>
        <time>2014-05-08T12:04:07Z</time>
      </trkpt>
      <trkpt lat="48.09702" lon="-4.44513">
        <ele>18</ele>
        <time>2014-05-08T12:04:12Z</time>
      </trkpt>
      <trkpt lat="48.09698" lon="-4.44525">
        <ele>15</ele>
        <time>2014-05-08T12:04:23Z</time>
      </trkpt>
      <trkpt lat="48.09698" lon="-4.44536">
        <ele>10</ele>
        <time>2014-05-08T12:04:33Z</time>
      </trkpt>
      <trkpt lat="48.097" lon="-4.44547">
        <ele>9</ele>
        <time>2014-05-08T12:04:40Z</time>
      </trkpt>
      <trkpt lat="48.09707" lon="-4.4455">
        <ele>11</ele>
        <time>2014-05-08T12:04:51Z</time>
      </trkpt>
      <trkpt lat="48.09713" lon="-4.44559">
        <ele>12</ele>
        <time>2014-05-08T12:05:03Z</time>
      </trkpt>
      <trkpt lat="48.0972" lon="-4.44567">
        <ele>15</ele>
        <time>2014-05-08T12:05:15Z</time>
      </trkpt>
      <trkpt lat="48.09726" lon="-4.44577">
        <ele>14</ele>
        <time>2014-05-08T12:05:23Z</time>
      </trkpt>
      <trkpt lat="48.09732" lon="-4.44586">
        <ele>13</ele>
        <time>2014-05-08T12:05:33Z</time>
      </trkpt>
      <trkpt lat="48.09731" lon="-4.44599">
        <ele>16</ele>
        <time>2014-05-08T12:05:41Z</time>
      </trkpt>
      <trkpt lat="48.0973" lon="-4.44612">
        <ele>20</ele>
        <time>2014-05-08T12:06:01Z</time>
      </trkpt>
      <trkpt lat="48.0973" lon="-4.44623">
        <ele>21</ele>
        <time>2014-05-08T12:06:12Z</time>
      </trkpt>
      <trkpt lat="48.09729" lon="-4.44635">
        <ele>20</ele>
        <time>2014-05-08T12:06:16Z</time>
      </trkpt>
      <trkpt lat="48.09726" lon="-4.44647">
        <ele>21</ele>
        <time>2014-05-08T12:06:23Z</time>
      </trkpt>
      <trkpt lat="48.09724" lon="-4.44659">
        <ele>20</ele>
        <time>2014-05-08T12:06:47Z</time>
      </trkpt>
      <trkpt lat="48.09731" lon="-4.44665">
        <ele>25</ele>
        <time>2014-05-08T12:06:52Z</time>
      </trkpt>
      <trkpt lat="48.09737" lon="-4.44673">
        <ele>26</ele>
        <time>2014-05-08T12:06:57Z</time>
      </trkpt>
      <trkpt lat="48.09746" lon="-4.44679">
        <ele>28</ele>
        <time>2014-05-08T12:07:01Z</time>
      </trkpt>
      <trkpt lat="48.09749" lon="-4.44691">
        <ele>19</ele>
        <time>2014-05-08T12:07:13Z</time>
      </trkpt>
      <trkpt lat="48.09756" lon="-4.447">
        <ele>13</ele>
        <time>2014-05-08T12:07:23Z</time>
      </trkpt>
      <trkpt lat="48.09758" lon="-4.44711">
        <ele>12</ele>
        <time>2014-05-08T12:07:33Z</time>
      </trkpt>
      <trkpt lat="48.09754" lon="-4.44723">
        <ele>10</ele>
        <time>2014-05-08T12:07:52Z</time>
      </trkpt>
      <trkpt lat="48.0976" lon="-4.44733">
        <ele>7</ele>
        <time>2014-05-08T12:08:01Z</time>
      </trkpt>
      <trkpt lat="48.09768" lon="-4.44739">
        <ele>8</ele>
        <time>2014-05-08T12:08:10Z</time>
      </trkpt>
      <trkpt lat="48.09774" lon="-4.44747">
        <ele>10</ele>
        <time>2014-05-08T12:08:16Z</time>
      </trkpt>
      <trkpt lat="48.09776" lon="-4.44756">
        <ele>11</ele>
        <time>2014-05-08T12:08:38Z</time>
      </trkpt>
      <trkpt lat="48.09777" lon="-4.44775">
        <ele>12</ele>
        <time>2014-05-08T12:08:42Z</time>
      </trkpt>
      <trkpt lat="48.09779" lon="-4.44787">
        <ele>14</ele>
        <time>2014-05-08T12:08:47Z</time>
      </trkpt>
      <trkpt lat="48.09783" lon="-4.44797">
        <ele>14</ele>
        <time>2014-05-08T12:08:52Z</time>
      </trkpt>
      <trkpt lat="48.09791" lon="-4.44802">
        <ele>17</ele>
        <time>2014-05-08T12:08:57Z</time>
      </trkpt>
      <trkpt lat="48.09797" lon="-4.44812">
        <ele>18</ele>
        <time>2014-05-08T12:09:03Z</time>
      </trkpt>
      <trkpt lat="48.09793" lon="-4.44823">
        <ele>13</ele>
        <time>2014-05-08T12:09:08Z</time>
      </trkpt>
      <trkpt lat="48.09794" lon="-4.44836">
        <ele>13</ele>
        <time>2014-05-08T12:09:18Z</time>
      </trkpt>
      <trkpt lat="48.09797" lon="-4.44845">
        <ele>14</ele>
        <time>2014-05-08T12:09:24Z</time>
      </trkpt>
      <trkpt lat="48.09802" lon="-4.44855">
        <ele>15</ele>
        <time>2014-05-08T12:09:29Z</time>
      </trkpt>
      <trkpt lat="48.09801" lon="-4.44868">
        <ele>14</ele>
        <time>2014-05-08T12:09:34Z</time>
      </trkpt>
      <trkpt lat="48.098" lon="-4.44878">
        <ele>16</ele>
        <time>2014-05-08T12:09:40Z</time>
      </trkpt>
      <trkpt lat="48.09806" lon="-4.44879">
        <ele>19</ele>
        <time>2014-05-08T12:09:44Z</time>
      </trkpt>
      <trkpt lat="48.09815" lon="-4.44885">
        <ele>19</ele>
        <time>2014-05-08T12:09:48Z</time>
      </trkpt>
      <trkpt lat="48.09819" lon="-4.44894">
        <ele>22</ele>
        <time>2014-05-08T12:10:04Z</time>
      </trkpt>
      <trkpt lat="48.09831" lon="-4.44904">
        <ele>27</ele>
        <time>2014-05-08T12:10:09Z</time>
      </trkpt>
      <trkpt lat="48.09825" lon="-4.44912">
        <ele>26</ele>
        <time>2014-05-08T12:10:15Z</time>
      </trkpt>
      <trkpt lat="48.09819" lon="-4.44921">
        <ele>26</ele>
        <time>2014-05-08T12:10:38Z</time>
      </trkpt>
      <trkpt lat="48.09815" lon="-4.44933">
        <ele>26</ele>
        <time>2014-05-08T12:10:43Z</time>
      </trkpt>
      <trkpt lat="48.09809" lon="-4.44943">
        <ele>25</ele>
        <time>2014-05-08T12:10:47Z</time>
      </trkpt>
      <trkpt lat="48.09805" lon="-4.44954">
        <ele>28</ele>
        <time>2014-05-08T12:10:52Z</time>
      </trkpt>
      <trkpt lat="48.09806" lon="-4.44967">
        <ele>27</ele>
        <time>2014-05-08T12:10:58Z</time>
      </trkpt>
      <trkpt lat="48.09808" lon="-4.44977">
        <ele>27</ele>
        <time>2014-05-08T12:11:04Z</time>
      </trkpt>
      <trkpt lat="48.09813" lon="-4.44987">
        <ele>24</ele>
        <time>2014-05-08T12:11:10Z</time>
      </trkpt>
      <trkpt lat="48.09818" lon="-4.44997">
        <ele>21</ele>
        <time>2014-05-08T12:11:16Z</time>
      </trkpt>
      <trkpt lat="48.09822" lon="-4.45007">
        <ele>21</ele>
        <time>2014-05-08T12:11:32Z</time>
      </trkpt>
      <trkpt lat="48.09821" lon="-4.45024">
        <ele>23</ele>
        <time>2014-05-08T12:11:37Z</time>
      </trkpt>
      <trkpt lat="48.09819" lon="-4.45036">
        <ele>25</ele>
        <time>2014-05-08T12:11:51Z</time>
      </trkpt>
      <trkpt lat="48.09813" lon="-4.45051">
        <ele>25</ele>
        <time>2014-05-08T12:11:55Z</time>
      </trkpt>
      <trkpt lat="48.0981" lon="-4.45067">
        <ele>22</ele>
        <time>2014-05-08T12:12:00Z</time>
      </trkpt>
      <trkpt lat="48.09808" lon="-4.45079">
        <ele>24</ele>
        <time>2014-05-08T12:12:07Z</time>
      </trkpt>
      <trkpt lat="48.09812" lon="-4.4509">
        <ele>29</ele>
        <time>2014-05-08T12:12:12Z</time>
      </trkpt>
      <trkpt lat="48.09809" lon="-4.451">
        <ele>31</ele>
        <time>2014-05-08T12:12:22Z</time>
      </trkpt>
      <trkpt lat="48.09803" lon="-4.4511">
        <ele>31</ele>
        <time>2014-05-08T12:12:28Z</time>
      </trkpt>
      <trkpt lat="48.09794" lon="-4.4512">
        <ele>31</ele>
        <time>2014-05-08T12:12:33Z</time>
      </trkpt>
      <trkpt lat="48.09786" lon="-4.45125">
        <ele>33</ele>
        <time>2014-05-08T12:13:27Z</time>
      </trkpt>
      <trkpt lat="48.09773" lon="-4.45132">
        <ele>36</ele>
        <time>2014-05-08T12:13:32Z</time>
      </trkpt>
      <trkpt lat="48.09758" lon="-4.45145">
        <ele>36</ele>
        <time>2014-05-08T12:13:37Z</time>
      </trkpt>
      <trkpt lat="48.09743" lon="-4.45165">
        <ele>40</ele>
        <time>2014-05-08T12:13:41Z</time>
      </trkpt>
      <trkpt lat="48.09744" lon="-4.45176">
        <ele>40</ele>
        <time>2014-05-08T12:14:03Z</time>
      </trkpt>
      <trkpt lat="48.09745" lon="-4.45187">
        <ele>39</ele>
        <time>2014-05-08T12:14:09Z</time>
      </trkpt>
      <trkpt lat="48.09746" lon="-4.45199">
        <ele>38</ele>
        <time>2014-05-08T12:14:17Z</time>
      </trkpt>
      <trkpt lat="48.09749" lon="-4.45215">
        <ele>33</ele>
        <time>2014-05-08T12:14:22Z</time>
      </trkpt>
      <trkpt lat="48.09754" lon="-4.45224">
        <ele>30</ele>
        <time>2014-05-08T12:14:27Z</time>
      </trkpt>
      <trkpt lat="48.09755" lon="-4.4524">
        <ele>29</ele>
        <time>2014-05-08T12:14:32Z</time>
      </trkpt>
      <trkpt lat="48.09762" lon="-4.45246">
        <ele>31</ele>
        <time>2014-05-08T12:14:39Z</time>
      </trkpt>
      <trkpt lat="48.09763" lon="-4.45259">
        <ele>26</ele>
        <time>2014-05-08T12:14:51Z</time>
      </trkpt>
      <trkpt lat="48.09758" lon="-4.45271">
        <ele>24</ele>
        <time>2014-05-08T12:14:56Z</time>
      </trkpt>
      <trkpt lat="48.09754" lon="-4.45283">
        <ele>24</ele>
        <time>2014-05-08T12:15:15Z</time>
      </trkpt>
      <trkpt lat="48.09746" lon="-4.45287">
        <ele>28</ele>
        <time>2014-05-08T12:15:26Z</time>
      </trkpt>
      <trkpt lat="48.09738" lon="-4.45291">
        <ele>37</ele>
        <time>2014-05-08T12:15:41Z</time>
      </trkpt>
      <trkpt lat="48.09731" lon="-4.45298">
        <ele>39</ele>
        <time>2014-05-08T12:15:49Z</time>
      </trkpt>
      <trkpt lat="48.09726" lon="-4.45307">
        <ele>39</ele>
        <time>2014-05-08T12:15:59Z</time>
      </trkpt>
      <trkpt lat="48.09719" lon="-4.45315">
        <ele>38</ele>
        <time>2014-05-08T12:16:07Z</time>
      </trkpt>
      <trkpt lat="48.09709" lon="-4.4533">
        <ele>41</ele>
        <time>2014-05-08T12:16:12Z</time>
      </trkpt>
      <trkpt lat="48.0971" lon="-4.45343">
        <ele>39</ele>
        <time>2014-05-08T12:16:18Z</time>
      </trkpt>
      <trkpt lat="48.09718" lon="-4.45342">
        <ele>38</ele>
        <time>2014-05-08T12:16:22Z</time>
      </trkpt>
      <trkpt lat="48.09725" lon="-4.4535">
        <ele>33</ele>
        <time>2014-05-08T12:17:06Z</time>
      </trkpt>
      <trkpt lat="48.09727" lon="-4.45362">
        <ele>37</ele>
        <time>2014-05-08T12:17:12Z</time>
      </trkpt>
      <trkpt lat="48.09721" lon="-4.45371">
        <ele>34</ele>
        <time>2014-05-08T12:17:30Z</time>
      </trkpt>
      <trkpt lat="48.09712" lon="-4.45387">
        <ele>35</ele>
        <time>2014-05-08T12:17:34Z</time>
      </trkpt>
      <trkpt lat="48.09707" lon="-4.45402">
        <ele>34</ele>
        <time>2014-05-08T12:17:39Z</time>
      </trkpt>
      <trkpt lat="48.09702" lon="-4.45413">
        <ele>29</ele>
        <time>2014-05-08T12:17:45Z</time>
      </trkpt>
      <trkpt lat="48.09703" lon="-4.45426">
        <ele>27</ele>
        <time>2014-05-08T12:17:51Z</time>
      </trkpt>
      <trkpt lat="48.09703" lon="-4.45439">
        <ele>26</ele>
        <time>2014-05-08T12:17:55Z</time>
      </trkpt>
      <trkpt lat="48.09704" lon="-4.4545">
        <ele>27</ele>
        <time>2014-05-08T12:18:05Z</time>
      </trkpt>
      <trkpt lat="48.09699" lon="-4.45462">
        <ele>26</ele>
        <time>2014-05-08T12:18:15Z</time>
      </trkpt>
      <trkpt lat="48.09698" lon="-4.45475">
        <ele>27</ele>
        <time>2014-05-08T12:18:24Z</time>
      </trkpt>
      <trkpt lat="48.09692" lon="-4.45483">
        <ele>28</ele>
        <time>2014-05-08T12:18:28Z</time>
      </trkpt>
      <trkpt lat="48.09687" lon="-4.45491">
        <ele>28</ele>
        <time>2014-05-08T12:18:32Z</time>
      </trkpt>
      <trkpt lat="48.09682" lon="-4.45501">
        <ele>28</ele>
        <time>2014-05-08T12:18:38Z</time>
      </trkpt>
      <trkpt lat="48.09675" lon="-4.45508">
        <ele>31</ele>
        <time>2014-05-08T12:19:01Z</time>
      </trkpt>
      <trkpt lat="48.09668" lon="-4.45516">
        <ele>35</ele>
        <time>2014-05-08T12:19:08Z</time>
      </trkpt>
      <trkpt lat="48.09667" lon="-4.45528">
        <ele>33</ele>
        <time>2014-05-08T12:19:15Z</time>
      </trkpt>
      <trkpt lat="48.09665" lon="-4.45539">
        <ele>32</ele>
        <time>2014-05-08T12:19:20Z</time>
      </trkpt>
      <trkpt lat="48.09663" lon="-4.45555">
        <ele>26</ele>
        <time>2014-05-08T12:19:25Z</time>
      </trkpt>
      <trkpt lat="48.09665" lon="-4.45568">
        <ele>23</ele>
        <time>2014-05-08T12:19:34Z</time>
      </trkpt>
      <trkpt lat="48.09665" lon="-4.45579">
        <ele>24</ele>
        <time>2014-05-08T12:19:39Z</time>
      </trkpt>
      <trkpt lat="48.09666" lon="-4.45592">
        <ele>23</ele>
        <time>2014-05-08T12:19:46Z</time>
      </trkpt>
      <trkpt lat="48.09665" lon="-4.45605">
        <ele>23</ele>
        <time>2014-05-08T12:19:54Z</time>
      </trkpt>
      <trkpt lat="48.09659" lon="-4.45613">
        <ele>24</ele>
        <time>2014-05-08T12:20:04Z</time>
      </trkpt>
      <trkpt lat="48.09652" lon="-4.45618">
        <ele>26</ele>
        <time>2014-05-08T12:20:13Z</time>
      </trkpt>
      <trkpt lat="48.09644" lon="-4.45614">
        <ele>26</ele>
        <time>2014-05-08T12:20:23Z</time>
      </trkpt>
      <trkpt lat="48.09638" lon="-4.45618">
        <ele>26</ele>
        <time>2014-05-08T12:20:51Z</time>
      </trkpt>
      <trkpt lat="48.09631" lon="-4.45619">
        <ele>24</ele>
        <time>2014-05-08T12:20:56Z</time>
      </trkpt>
      <trkpt lat="48.09624" lon="-4.45623">
        <ele>26</ele>
        <time>2014-05-08T12:21:05Z</time>
      </trkpt>
      <trkpt lat="48.09616" lon="-4.45628">
        <ele>29</ele>
        <time>2014-05-08T12:21:11Z</time>
      </trkpt>
      <trkpt lat="48.09617" lon="-4.45641">
        <ele>27</ele>
        <time>2014-05-08T12:21:19Z</time>
      </trkpt>
      <trkpt lat="48.09615" lon="-4.45654">
        <ele>29</ele>
        <time>2014-05-08T12:21:26Z</time>
      </trkpt>
      <trkpt lat="48.09615" lon="-4.45665">
        <ele>28</ele>
        <time>2014-05-08T12:21:33Z</time>
      </trkpt>
      <trkpt lat="48.09615" lon="-4.45677">
        <ele>25</ele>
        <time>2014-05-08T12:21:45Z</time>
      </trkpt>
      <trkpt lat="48.09614" lon="-4.4569">
        <ele>26</ele>
        <time>2014-05-08T12:21:54Z</time>
      </trkpt>
      <trkpt lat="48.09619" lon="-4.45701">
        <ele>25</ele>
        <time>2014-05-08T12:22:02Z</time>
      </trkpt>
      <trkpt lat="48.09624" lon="-4.45707">
        <ele>23</ele>
        <time>2014-05-08T12:22:07Z</time>
      </trkpt>
      <trkpt lat="48.09621" lon="-4.45719">
        <ele>26</ele>
        <time>2014-05-08T12:22:12Z</time>
      </trkpt>
      <trkpt lat="48.09624" lon="-4.4573">
        <ele>23</ele>
        <time>2014-05-08T12:22:20Z</time>
      </trkpt>
      <trkpt lat="48.09629" lon="-4.45739">
        <ele>23</ele>
        <time>2014-05-08T12:22:37Z</time>
      </trkpt>
      <trkpt lat="48.09635" lon="-4.45745">
        <ele>22</ele>
        <time>2014-05-08T12:22:50Z</time>
      </trkpt>
      <trkpt lat="48.09641" lon="-4.45751">
        <ele>23</ele>
        <time>2014-05-08T12:22:58Z</time>
      </trkpt>
      <trkpt lat="48.09649" lon="-4.45755">
        <ele>20</ele>
        <time>2014-05-08T12:23:02Z</time>
      </trkpt>
      <trkpt lat="48.09656" lon="-4.45759">
        <ele>21</ele>
        <time>2014-05-08T12:23:07Z</time>
      </trkpt>
      <trkpt lat="48.09666" lon="-4.45767">
        <ele>20</ele>
        <time>2014-05-08T12:23:12Z</time>
      </trkpt>
      <trkpt lat="48.09672" lon="-4.45774">
        <ele>16</ele>
        <time>2014-05-08T12:23:19Z</time>
      </trkpt>
      <trkpt lat="48.09677" lon="-4.45781">
        <ele>16</ele>
        <time>2014-05-08T12:23:23Z</time>
      </trkpt>
      <trkpt lat="48.0968" lon="-4.45791">
        <ele>17</ele>
        <time>2014-05-08T12:23:40Z</time>
      </trkpt>
      <trkpt lat="48.09677" lon="-4.45805">
        <ele>16</ele>
        <time>2014-05-08T12:23:45Z</time>
      </trkpt>
      <trkpt lat="48.09672" lon="-4.45815">
        <ele>17</ele>
        <time>2014-05-08T12:23:50Z</time>
      </trkpt>
      <trkpt lat="48.09665" lon="-4.45822">
        <ele>17</ele>
        <time>2014-05-08T12:23:55Z</time>
      </trkpt>
      <trkpt lat="48.09663" lon="-4.45834">
        <ele>15</ele>
        <time>2014-05-08T12:24:03Z</time>
      </trkpt>
      <trkpt lat="48.09664" lon="-4.45845">
        <ele>16</ele>
        <time>2014-05-08T12:24:08Z</time>
      </trkpt>
      <trkpt lat="48.09666" lon="-4.45856">
        <ele>17</ele>
        <time>2014-05-08T12:24:16Z</time>
      </trkpt>
      <trkpt lat="48.09665" lon="-4.45869">
        <ele>17</ele>
        <time>2014-05-08T12:24:24Z</time>
      </trkpt>
      <trkpt lat="48.0966" lon="-4.4588">
        <ele>19</ele>
        <time>2014-05-08T12:24:31Z</time>
      </trkpt>
      <trkpt lat="48.09656" lon="-4.45889">
        <ele>19</ele>
        <time>2014-05-08T12:24:36Z</time>
      </trkpt>
      <trkpt lat="48.09656" lon="-4.45901">
        <ele>16</ele>
        <time>2014-05-08T12:24:45Z</time>
      </trkpt>
      <trkpt lat="48.0966" lon="-4.4591">
        <ele>16</ele>
        <time>2014-05-08T12:24:51Z</time>
      </trkpt>
      <trkpt lat="48.09658" lon="-4.45922">
        <ele>18</ele>
        <time>2014-05-08T12:25:10Z</time>
      </trkpt>
      <trkpt lat="48.09651" lon="-4.4594">
        <ele>20</ele>
        <time>2014-05-08T12:25:15Z</time>
      </trkpt>
      <trkpt lat="48.09646" lon="-4.45947">
        <ele>17</ele>
        <time>2014-05-08T12:25:25Z</time>
      </trkpt>
      <trkpt lat="48.09639" lon="-4.45954">
        <ele>16</ele>
        <time>2014-05-08T12:25:30Z</time>
      </trkpt>
      <trkpt lat="48.09644" lon="-4.45964">
        <ele>19</ele>
        <time>2014-05-08T12:25:52Z</time>
      </trkpt>
      <trkpt lat="48.09644" lon="-4.45984">
        <ele>21</ele>
        <time>2014-05-08T12:25:57Z</time>
      </trkpt>
      <trkpt lat="48.09649" lon="-4.45987">
        <ele>20</ele>
        <time>2014-05-08T12:26:01Z</time>
      </trkpt>
      <trkpt lat="48.09659" lon="-4.45997">
        <ele>18</ele>
        <time>2014-05-08T12:26:05Z</time>
      </trkpt>
      <trkpt lat="48.09668" lon="-4.46004">
        <ele>20</ele>
        <time>2014-05-08T12:26:10Z</time>
      </trkpt>
      <trkpt lat="48.09666" lon="-4.46017">
        <ele>17</ele>
        <time>2014-05-08T12:26:14Z</time>
      </trkpt>
      <trkpt lat="48.09669" lon="-4.46028">
        <ele>17</ele>
        <time>2014-05-08T12:26:20Z</time>
      </trkpt>
      <trkpt lat="48.09677" lon="-4.46035">
        <ele>19</ele>
        <time>2014-05-08T12:26:25Z</time>
      </trkpt>
      <trkpt lat="48.09684" lon="-4.46039">
        <ele>17</ele>
        <time>2014-05-08T12:26:29Z</time>
      </trkpt>
      <trkpt lat="48.09691" lon="-4.46044">
        <ele>16</ele>
        <time>2014-05-08T12:26:36Z</time>
      </trkpt>
      <trkpt lat="48.09695" lon="-4.46054">
        <ele>15</ele>
        <time>2014-05-08T12:26:47Z</time>
      </trkpt>
      <trkpt lat="48.09701" lon="-4.46064">
        <ele>13</ele>
        <time>2014-05-08T12:26:58Z</time>
      </trkpt>
      <trkpt lat="48.09704" lon="-4.46072">
        <ele>13</ele>
        <time>2014-05-08T12:27:04Z</time>
      </trkpt>
      <trkpt lat="48.09699" lon="-4.46091">
        <ele>11</ele>
        <time>2014-05-08T12:27:09Z</time>
      </trkpt>
      <trkpt lat="48.09701" lon="-4.46103">
        <ele>13</ele>
        <time>2014-05-08T12:27:17Z</time>
      </trkpt>
      <trkpt lat="48.09706" lon="-4.46113">
        <ele>10</ele>
        <time>2014-05-08T12:27:28Z</time>
      </trkpt>
      <trkpt lat="48.09708" lon="-4.46128">
        <ele>10</ele>
        <time>2014-05-08T12:27:33Z</time>
      </trkpt>
      <trkpt lat="48.09711" lon="-4.46139">
        <ele>8</ele>
        <time>2014-05-08T12:27:39Z</time>
      </trkpt>
      <trkpt lat="48.09705" lon="-4.46146">
        <ele>9</ele>
        <time>2014-05-08T12:27:46Z</time>
      </trkpt>
      <trkpt lat="48.09701" lon="-4.46152">
        <ele>10</ele>
        <time>2014-05-08T12:27:52Z</time>
      </trkpt>
      <trkpt lat="48.09694" lon="-4.46159">
        <ele>10</ele>
        <time>2014-05-08T12:27:57Z</time>
      </trkpt>
      <trkpt lat="48.09693" lon="-4.46172">
        <ele>3</ele>
        <time>2014-05-08T12:28:38Z</time>
      </trkpt>
      <trkpt lat="48.09701" lon="-4.46177">
        <ele>4.9</ele>
        <time>2014-05-08T12:28:57Z</time>
      </trkpt>
      <trkpt lat="48.09694" lon="-4.46173">
        <ele>6</ele>
        <time>2014-05-08T12:46:34Z</time>
      </trkpt>
      <trkpt lat="48.09688" lon="-4.46182">
        <ele>8</ele>
        <time>2014-05-08T12:46:40Z</time>
      </trkpt>
      <trkpt lat="48.09686" lon="-4.46194">
        <ele>8</ele>
        <time>2014-05-08T12:46:46Z</time>
      </trkpt>
      <trkpt lat="48.09686" lon="-4.46206">
        <ele>7</ele>
        <time>2014-05-08T12:46:54Z</time>
      </trkpt>
      <trkpt lat="48.09688" lon="-4.46219">
        <ele>7</ele>
        <time>2014-05-08T12:47:02Z</time>
      </trkpt>
      <trkpt lat="48.09693" lon="-4.46223">
        <ele>8</ele>
        <time>2014-05-08T12:47:11Z</time>
      </trkpt>
      <trkpt lat="48.097" lon="-4.46232">
        <ele>8</ele>
        <time>2014-05-08T12:47:18Z</time>
      </trkpt>
      <trkpt lat="48.09704" lon="-4.46239">
        <ele>8</ele>
        <time>2014-05-08T12:47:59Z</time>
      </trkpt>
      <trkpt lat="48.09713" lon="-4.46243">
        <ele>10</ele>
        <time>2014-05-08T12:48:03Z</time>
      </trkpt>
      <trkpt lat="48.09724" lon="-4.4625">
        <ele>9</ele>
        <time>2014-05-08T12:48:07Z</time>
      </trkpt>
      <trkpt lat="48.09733" lon="-4.4625">
        <ele>12</ele>
        <time>2014-05-08T12:48:21Z</time>
      </trkpt>
      <trkpt lat="48.09742" lon="-4.46249">
        <ele>16</ele>
        <time>2014-05-08T12:48:28Z</time>
      </trkpt>
      <trkpt lat="48.0975" lon="-4.46251">
        <ele>16</ele>
        <time>2014-05-08T12:48:33Z</time>
      </trkpt>
      <trkpt lat="48.09757" lon="-4.4625">
        <ele>14</ele>
        <time>2014-05-08T12:48:39Z</time>
      </trkpt>
      <trkpt lat="48.09766" lon="-4.46248">
        <ele>17</ele>
        <time>2014-05-08T12:48:44Z</time>
      </trkpt>
      <trkpt lat="48.09774" lon="-4.46249">
        <ele>19</ele>
        <time>2014-05-08T12:48:53Z</time>
      </trkpt>
      <trkpt lat="48.09782" lon="-4.46253">
        <ele>19</ele>
        <time>2014-05-08T12:49:00Z</time>
      </trkpt>
      <trkpt lat="48.0979" lon="-4.46253">
        <ele>20</ele>
        <time>2014-05-08T12:49:09Z</time>
      </trkpt>
      <trkpt lat="48.09797" lon="-4.46248">
        <ele>21</ele>
        <time>2014-05-08T12:49:19Z</time>
      </trkpt>
      <trkpt lat="48.09811" lon="-4.46258">
        <ele>20</ele>
        <time>2014-05-08T12:49:23Z</time>
      </trkpt>
      <trkpt lat="48.09819" lon="-4.46263">
        <ele>21</ele>
        <time>2014-05-08T12:49:32Z</time>
      </trkpt>
      <trkpt lat="48.09826" lon="-4.46265">
        <ele>23</ele>
        <time>2014-05-08T12:49:36Z</time>
      </trkpt>
      <trkpt lat="48.0983" lon="-4.46277">
        <ele>21</ele>
        <time>2014-05-08T12:49:46Z</time>
      </trkpt>
      <trkpt lat="48.09837" lon="-4.46285">
        <ele>27</ele>
        <time>2014-05-08T12:49:55Z</time>
      </trkpt>
      <trkpt lat="48.09842" lon="-4.46295">
        <ele>25</ele>
        <time>2014-05-08T12:50:11Z</time>
      </trkpt>
      <trkpt lat="48.09848" lon="-4.46303">
        <ele>24</ele>
        <time>2014-05-08T12:50:22Z</time>
      </trkpt>
      <trkpt lat="48.09855" lon="-4.4631">
        <ele>28</ele>
        <time>2014-05-08T12:50:45Z</time>
      </trkpt>
      <trkpt lat="48.09858" lon="-4.46322">
        <ele>29</ele>
        <time>2014-05-08T12:50:54Z</time>
      </trkpt>
      <trkpt lat="48.09856" lon="-4.46334">
        <ele>30</ele>
        <time>2014-05-08T12:50:59Z</time>
      </trkpt>
      <trkpt lat="48.09856" lon="-4.46346">
        <ele>29</ele>
        <time>2014-05-08T12:51:06Z</time>
      </trkpt>
      <trkpt lat="48.09855" lon="-4.46359">
        <ele>30</ele>
        <time>2014-05-08T12:51:11Z</time>
      </trkpt>
      <trkpt lat="48.09859" lon="-4.46371">
        <ele>30</ele>
        <time>2014-05-08T12:51:20Z</time>
      </trkpt>
      <trkpt lat="48.09862" lon="-4.46381">
        <ele>30</ele>
        <time>2014-05-08T12:51:26Z</time>
      </trkpt>
      <trkpt lat="48.09867" lon="-4.46391">
        <ele>29</ele>
        <time>2014-05-08T12:51:33Z</time>
      </trkpt>
      <trkpt lat="48.09872" lon="-4.46401">
        <ele>29</ele>
        <time>2014-05-08T12:51:40Z</time>
      </trkpt>
      <trkpt lat="48.09873" lon="-4.46412">
        <ele>29</ele>
        <time>2014-05-08T12:51:46Z</time>
      </trkpt>
      <trkpt lat="48.09876" lon="-4.46423">
        <ele>26</ele>
        <time>2014-05-08T12:51:53Z</time>
      </trkpt>
      <trkpt lat="48.09879" lon="-4.46435">
        <ele>25</ele>
        <time>2014-05-08T12:52:08Z</time>
      </trkpt>
      <trkpt lat="48.09879" lon="-4.46449">
        <ele>26</ele>
        <time>2014-05-08T12:52:14Z</time>
      </trkpt>
      <trkpt lat="48.09876" lon="-4.4646">
        <ele>30</ele>
        <time>2014-05-08T12:52:21Z</time>
      </trkpt>
      <trkpt lat="48.09873" lon="-4.46472">
        <ele>30</ele>
        <time>2014-05-08T12:52:43Z</time>
      </trkpt>
      <trkpt lat="48.09865" lon="-4.46475">
        <ele>32</ele>
        <time>2014-05-08T12:52:54Z</time>
      </trkpt>
      <trkpt lat="48.09857" lon="-4.46473">
        <ele>34</ele>
        <time>2014-05-08T12:53:09Z</time>
      </trkpt>
      <trkpt lat="48.0985" lon="-4.46478">
        <ele>34</ele>
        <time>2014-05-08T12:53:23Z</time>
      </trkpt>
      <trkpt lat="48.09844" lon="-4.4647">
        <ele>37</ele>
        <time>2014-05-08T12:53:28Z</time>
      </trkpt>
      <trkpt lat="48.09837" lon="-4.46472">
        <ele>41</ele>
        <time>2014-05-08T12:53:36Z</time>
      </trkpt>
      <trkpt lat="48.09829" lon="-4.46473">
        <ele>40</ele>
        <time>2014-05-08T12:53:43Z</time>
      </trkpt>
      <trkpt lat="48.0982" lon="-4.46474">
        <ele>40</ele>
        <time>2014-05-08T12:53:53Z</time>
      </trkpt>
      <trkpt lat="48.09818" lon="-4.46487">
        <ele>38</ele>
        <time>2014-05-08T12:54:01Z</time>
      </trkpt>
      <trkpt lat="48.09814" lon="-4.46498">
        <ele>38</ele>
        <time>2014-05-08T12:54:08Z</time>
      </trkpt>
      <trkpt lat="48.09814" lon="-4.4651">
        <ele>38</ele>
        <time>2014-05-08T12:54:14Z</time>
      </trkpt>
      <trkpt lat="48.09811" lon="-4.46521">
        <ele>37</ele>
        <time>2014-05-08T12:54:21Z</time>
      </trkpt>
      <trkpt lat="48.09807" lon="-4.46532">
        <ele>39</ele>
        <time>2014-05-08T12:54:27Z</time>
      </trkpt>
      <trkpt lat="48.09803" lon="-4.46542">
        <ele>38</ele>
        <time>2014-05-08T12:54:33Z</time>
      </trkpt>
      <trkpt lat="48.098" lon="-4.46554">
        <ele>39</ele>
        <time>2014-05-08T12:54:39Z</time>
      </trkpt>
      <trkpt lat="48.09795" lon="-4.46567">
        <ele>39</ele>
        <time>2014-05-08T12:54:43Z</time>
      </trkpt>
      <trkpt lat="48.09793" lon="-4.46578">
        <ele>44</ele>
        <time>2014-05-08T12:54:48Z</time>
      </trkpt>
      <trkpt lat="48.09787" lon="-4.46588">
        <ele>42</ele>
        <time>2014-05-08T12:55:00Z</time>
      </trkpt>
      <trkpt lat="48.0978" lon="-4.46593">
        <ele>42</ele>
        <time>2014-05-08T12:55:07Z</time>
      </trkpt>
      <trkpt lat="48.09771" lon="-4.46594">
        <ele>41</ele>
        <time>2014-05-08T12:55:14Z</time>
      </trkpt>
      <trkpt lat="48.09763" lon="-4.46594">
        <ele>42</ele>
        <time>2014-05-08T12:55:24Z</time>
      </trkpt>
      <trkpt lat="48.09755" lon="-4.46599">
        <ele>42</ele>
        <time>2014-05-08T12:55:30Z</time>
      </trkpt>
      <trkpt lat="48.09748" lon="-4.46601">
        <ele>45</ele>
        <time>2014-05-08T12:55:38Z</time>
      </trkpt>
      <trkpt lat="48.0974" lon="-4.46606">
        <ele>47</ele>
        <time>2014-05-08T12:55:44Z</time>
      </trkpt>
      <trkpt lat="48.09731" lon="-4.46605">
        <ele>42</ele>
        <time>2014-05-08T12:55:56Z</time>
      </trkpt>
      <trkpt lat="48.09722" lon="-4.46608">
        <ele>39</ele>
        <time>2014-05-08T12:56:14Z</time>
      </trkpt>
      <trkpt lat="48.09714" lon="-4.4661">
        <ele>38</ele>
        <time>2014-05-08T12:56:38Z</time>
      </trkpt>
      <trkpt lat="48.09708" lon="-4.46616">
        <ele>35</ele>
        <time>2014-05-08T12:56:48Z</time>
      </trkpt>
      <trkpt lat="48.09705" lon="-4.46628">
        <ele>31</ele>
        <time>2014-05-08T12:56:56Z</time>
      </trkpt>
      <trkpt lat="48.09708" lon="-4.4664">
        <ele>30</ele>
        <time>2014-05-08T13:03:56Z</time>
      </trkpt>
      <trkpt lat="48.09708" lon="-4.46629">
        <ele>36</ele>
        <time>2014-05-08T13:20:14Z</time>
      </trkpt>
      <trkpt lat="48.09702" lon="-4.46613">
        <ele>34</ele>
        <time>2014-05-08T13:20:19Z</time>
      </trkpt>
      <trkpt lat="48.09696" lon="-4.46603">
        <ele>35</ele>
        <time>2014-05-08T13:20:25Z</time>
      </trkpt>
      <trkpt lat="48.09692" lon="-4.46591">
        <ele>35</ele>
        <time>2014-05-08T13:20:37Z</time>
      </trkpt>
      <trkpt lat="48.09685" lon="-4.46587">
        <ele>34</ele>
        <time>2014-05-08T13:20:43Z</time>
      </trkpt>
      <trkpt lat="48.09681" lon="-4.46578">
        <ele>31</ele>
        <time>2014-05-08T13:20:50Z</time>
      </trkpt>
      <trkpt lat="48.09675" lon="-4.46569">
        <ele>31</ele>
        <time>2014-05-08T13:20:54Z</time>
      </trkpt>
      <trkpt lat="48.09669" lon="-4.46565">
        <ele>22</ele>
        <time>2014-05-08T13:21:05Z</time>
      </trkpt>
      <trkpt lat="48.0966" lon="-4.46559">
        <ele>19</ele>
        <time>2014-05-08T13:21:12Z</time>
      </trkpt>
      <trkpt lat="48.09653" lon="-4.46554">
        <ele>21</ele>
        <time>2014-05-08T13:21:17Z</time>
      </trkpt>
      <trkpt lat="48.09646" lon="-4.4655">
        <ele>23</ele>
        <time>2014-05-08T13:21:22Z</time>
      </trkpt>
      <trkpt lat="48.09638" lon="-4.46546">
        <ele>26</ele>
        <time>2014-05-08T13:21:29Z</time>
      </trkpt>
      <trkpt lat="48.09631" lon="-4.46547">
        <ele>27</ele>
        <time>2014-05-08T13:21:35Z</time>
      </trkpt>
      <trkpt lat="48.09622" lon="-4.46546">
        <ele>27</ele>
        <time>2014-05-08T13:21:43Z</time>
      </trkpt>
      <trkpt lat="48.09614" lon="-4.4655">
        <ele>29</ele>
        <time>2014-05-08T13:21:51Z</time>
      </trkpt>
      <trkpt lat="48.09607" lon="-4.46551">
        <ele>27</ele>
        <time>2014-05-08T13:21:56Z</time>
      </trkpt>
      <trkpt lat="48.09598" lon="-4.46554">
        <ele>26</ele>
        <time>2014-05-08T13:22:07Z</time>
      </trkpt>
      <trkpt lat="48.09591" lon="-4.46561">
        <ele>25</ele>
        <time>2014-05-08T13:22:13Z</time>
      </trkpt>
      <trkpt lat="48.09585" lon="-4.46569">
        <ele>27</ele>
        <time>2014-05-08T13:22:18Z</time>
      </trkpt>
      <trkpt lat="48.0958" lon="-4.4658">
        <ele>27</ele>
        <time>2014-05-08T13:22:24Z</time>
      </trkpt>
      <trkpt lat="48.09573" lon="-4.46587">
        <ele>24</ele>
        <time>2014-05-08T13:22:31Z</time>
      </trkpt>
      <trkpt lat="48.09567" lon="-4.46596">
        <ele>22</ele>
        <time>2014-05-08T13:22:37Z</time>
      </trkpt>
      <trkpt lat="48.09561" lon="-4.46605">
        <ele>23</ele>
        <time>2014-05-08T13:22:44Z</time>
      </trkpt>
      <trkpt lat="48.09558" lon="-4.46616">
        <ele>23</ele>
        <time>2014-05-08T13:22:50Z</time>
      </trkpt>
      <trkpt lat="48.09559" lon="-4.4663">
        <ele>21</ele>
        <time>2014-05-08T13:22:54Z</time>
      </trkpt>
      <trkpt lat="48.09561" lon="-4.46641">
        <ele>17</ele>
        <time>2014-05-08T13:23:03Z</time>
      </trkpt>
      <trkpt lat="48.0956" lon="-4.46653">
        <ele>16</ele>
        <time>2014-05-08T13:23:09Z</time>
      </trkpt>
      <trkpt lat="48.09561" lon="-4.46667">
        <ele>11</ele>
        <time>2014-05-08T13:23:18Z</time>
      </trkpt>
      <trkpt lat="48.09557" lon="-4.46678">
        <ele>11</ele>
        <time>2014-05-08T13:23:24Z</time>
      </trkpt>
      <trkpt lat="48.09554" lon="-4.46691">
        <ele>11</ele>
        <time>2014-05-08T13:23:33Z</time>
      </trkpt>
      <trkpt lat="48.09552" lon="-4.46704">
        <ele>12</ele>
        <time>2014-05-08T13:23:45Z</time>
      </trkpt>
      <trkpt lat="48.09546" lon="-4.46709">
        <ele>10</ele>
        <time>2014-05-08T13:23:51Z</time>
      </trkpt>
      <trkpt lat="48.09542" lon="-4.46721">
        <ele>18</ele>
        <time>2014-05-08T13:23:56Z</time>
      </trkpt>
      <trkpt lat="48.09537" lon="-4.46731">
        <ele>19</ele>
        <time>2014-05-08T13:24:03Z</time>
      </trkpt>
      <trkpt lat="48.09536" lon="-4.46743">
        <ele>23</ele>
        <time>2014-05-08T13:24:11Z</time>
      </trkpt>
      <trkpt lat="48.09536" lon="-4.46755">
        <ele>22</ele>
        <time>2014-05-08T13:24:16Z</time>
      </trkpt>
      <trkpt lat="48.09535" lon="-4.46767">
        <ele>24</ele>
        <time>2014-05-08T13:24:21Z</time>
      </trkpt>
      <trkpt lat="48.09534" lon="-4.46779">
        <ele>24</ele>
        <time>2014-05-08T13:24:27Z</time>
      </trkpt>
      <trkpt lat="48.0953" lon="-4.46791">
        <ele>19</ele>
        <time>2014-05-08T13:24:43Z</time>
      </trkpt>
      <trkpt lat="48.09529" lon="-4.46803">
        <ele>19</ele>
        <time>2014-05-08T13:24:55Z</time>
      </trkpt>
      <trkpt lat="48.09529" lon="-4.46815">
        <ele>22</ele>
        <time>2014-05-08T13:25:02Z</time>
      </trkpt>
      <trkpt lat="48.09527" lon="-4.46828">
        <ele>23</ele>
        <time>2014-05-08T13:25:09Z</time>
      </trkpt>
      <trkpt lat="48.09527" lon="-4.46841">
        <ele>23</ele>
        <time>2014-05-08T13:25:15Z</time>
      </trkpt>
      <trkpt lat="48.09525" lon="-4.4685">
        <ele>27</ele>
        <time>2014-05-08T13:25:20Z</time>
      </trkpt>
      <trkpt lat="48.09524" lon="-4.46864">
        <ele>25</ele>
        <time>2014-05-08T13:25:31Z</time>
      </trkpt>
      <trkpt lat="48.09526" lon="-4.46876">
        <ele>25</ele>
        <time>2014-05-08T13:25:37Z</time>
      </trkpt>
      <trkpt lat="48.09527" lon="-4.46889">
        <ele>26</ele>
        <time>2014-05-08T13:25:57Z</time>
      </trkpt>
      <trkpt lat="48.09535" lon="-4.46895">
        <ele>25</ele>
        <time>2014-05-08T13:26:09Z</time>
      </trkpt>
      <trkpt lat="48.09542" lon="-4.46905">
        <ele>25</ele>
        <time>2014-05-08T13:26:14Z</time>
      </trkpt>
      <trkpt lat="48.09546" lon="-4.46919">
        <ele>23</ele>
        <time>2014-05-08T13:26:19Z</time>
      </trkpt>
      <trkpt lat="48.09552" lon="-4.46928">
        <ele>24</ele>
        <time>2014-05-08T13:26:25Z</time>
      </trkpt>
      <trkpt lat="48.09555" lon="-4.46942">
        <ele>26</ele>
        <time>2014-05-08T13:26:30Z</time>
      </trkpt>
      <trkpt lat="48.09552" lon="-4.46954">
        <ele>28</ele>
        <time>2014-05-08T13:26:37Z</time>
      </trkpt>
      <trkpt lat="48.09552" lon="-4.46966">
        <ele>31</ele>
        <time>2014-05-08T13:26:46Z</time>
      </trkpt>
      <trkpt lat="48.09551" lon="-4.46977">
        <ele>29</ele>
        <time>2014-05-08T13:26:51Z</time>
      </trkpt>
      <trkpt lat="48.09553" lon="-4.4699">
        <ele>28</ele>
        <time>2014-05-08T13:26:57Z</time>
      </trkpt>
      <trkpt lat="48.09553" lon="-4.47001">
        <ele>27</ele>
        <time>2014-05-08T13:27:03Z</time>
      </trkpt>
      <trkpt lat="48.09554" lon="-4.47012">
        <ele>28</ele>
        <time>2014-05-08T13:27:08Z</time>
      </trkpt>
      <trkpt lat="48.09559" lon="-4.4702">
        <ele>25</ele>
        <time>2014-05-08T13:27:16Z</time>
      </trkpt>
      <trkpt lat="48.09562" lon="-4.4703">
        <ele>22</ele>
        <time>2014-05-08T13:27:22Z</time>
      </trkpt>
      <trkpt lat="48.09568" lon="-4.47039">
        <ele>22</ele>
        <time>2014-05-08T13:27:28Z</time>
      </trkpt>
      <trkpt lat="48.09567" lon="-4.47052">
        <ele>24</ele>
        <time>2014-05-08T13:27:36Z</time>
      </trkpt>
      <trkpt lat="48.09563" lon="-4.47063">
        <ele>24</ele>
        <time>2014-05-08T13:27:42Z</time>
      </trkpt>
      <trkpt lat="48.09561" lon="-4.47074">
        <ele>24</ele>
        <time>2014-05-08T13:27:52Z</time>
      </trkpt>
      <trkpt lat="48.09554" lon="-4.4708">
        <ele>28</ele>
        <time>2014-05-08T13:28:05Z</time>
      </trkpt>
      <trkpt lat="48.09547" lon="-4.47088">
        <ele>31</ele>
        <time>2014-05-08T13:28:13Z</time>
      </trkpt>
      <trkpt lat="48.09541" lon="-4.47096">
        <ele>29</ele>
        <time>2014-05-08T13:28:17Z</time>
      </trkpt>
      <trkpt lat="48.09539" lon="-4.47109">
        <ele>33</ele>
        <time>2014-05-08T13:28:33Z</time>
      </trkpt>
      <trkpt lat="48.09536" lon="-4.4712">
        <ele>33</ele>
        <time>2014-05-08T13:28:38Z</time>
      </trkpt>
      <trkpt lat="48.09533" lon="-4.47131">
        <ele>34</ele>
        <time>2014-05-08T13:28:45Z</time>
      </trkpt>
      <trkpt lat="48.09529" lon="-4.47143">
        <ele>34</ele>
        <time>2014-05-08T13:28:52Z</time>
      </trkpt>
      <trkpt lat="48.09526" lon="-4.47156">
        <ele>34</ele>
        <time>2014-05-08T13:28:59Z</time>
      </trkpt>
      <trkpt lat="48.09529" lon="-4.47168">
        <ele>30</ele>
        <time>2014-05-08T13:29:08Z</time>
      </trkpt>
      <trkpt lat="48.09533" lon="-4.47179">
        <ele>26</ele>
        <time>2014-05-08T13:29:16Z</time>
      </trkpt>
      <trkpt lat="48.09538" lon="-4.47188">
        <ele>25</ele>
        <time>2014-05-08T13:29:22Z</time>
      </trkpt>
      <trkpt lat="48.09543" lon="-4.47197">
        <ele>26</ele>
        <time>2014-05-08T13:29:29Z</time>
      </trkpt>
      <trkpt lat="48.09547" lon="-4.47208">
        <ele>25</ele>
        <time>2014-05-08T13:29:35Z</time>
      </trkpt>
      <trkpt lat="48.09545" lon="-4.47219">
        <ele>26</ele>
        <time>2014-05-08T13:29:40Z</time>
      </trkpt>
      <trkpt lat="48.09545" lon="-4.47231">
        <ele>26</ele>
        <time>2014-05-08T13:29:45Z</time>
      </trkpt>
      <trkpt lat="48.09543" lon="-4.47244">
        <ele>26</ele>
        <time>2014-05-08T13:29:54Z</time>
      </trkpt>
      <trkpt lat="48.09541" lon="-4.47255">
        <ele>17</ele>
        <time>2014-05-08T13:30:08Z</time>
      </trkpt>
      <trkpt lat="48.09544" lon="-4.47266">
        <ele>17</ele>
        <time>2014-05-08T13:30:15Z</time>
      </trkpt>
      <trkpt lat="48.09542" lon="-4.47278">
        <ele>17</ele>
        <time>2014-05-08T13:30:22Z</time>
      </trkpt>
      <trkpt lat="48.09544" lon="-4.47291">
        <ele>17</ele>
        <time>2014-05-08T13:30:29Z</time>
      </trkpt>
      <trkpt lat="48.09542" lon="-4.47301">
        <ele>22</ele>
        <time>2014-05-08T13:30:33Z</time>
      </trkpt>
      <trkpt lat="48.09534" lon="-4.47306">
        <ele>22</ele>
        <time>2014-05-08T13:30:43Z</time>
      </trkpt>
      <trkpt lat="48.09531" lon="-4.47315">
        <ele>25</ele>
        <time>2014-05-08T13:31:13Z</time>
      </trkpt>
      <trkpt lat="48.09523" lon="-4.47327">
        <ele>25</ele>
        <time>2014-05-08T13:31:18Z</time>
      </trkpt>
      <trkpt lat="48.09515" lon="-4.4733">
        <ele>25</ele>
        <time>2014-05-08T13:31:26Z</time>
      </trkpt>
      <trkpt lat="48.0951" lon="-4.47339">
        <ele>21</ele>
        <time>2014-05-08T13:31:30Z</time>
      </trkpt>
      <trkpt lat="48.09503" lon="-4.47347">
        <ele>20</ele>
        <time>2014-05-08T13:31:35Z</time>
      </trkpt>
      <trkpt lat="48.09498" lon="-4.47358">
        <ele>23</ele>
        <time>2014-05-08T13:31:44Z</time>
      </trkpt>
      <trkpt lat="48.09493" lon="-4.47367">
        <ele>22</ele>
        <time>2014-05-08T13:31:52Z</time>
      </trkpt>
      <trkpt lat="48.09486" lon="-4.47374">
        <ele>20</ele>
        <time>2014-05-08T13:31:59Z</time>
      </trkpt>
      <trkpt lat="48.09482" lon="-4.47384">
        <ele>23</ele>
        <time>2014-05-08T13:32:04Z</time>
      </trkpt>
      <trkpt lat="48.09478" lon="-4.47393">
        <ele>21</ele>
        <time>2014-05-08T13:32:11Z</time>
      </trkpt>
      <trkpt lat="48.09475" lon="-4.47405">
        <ele>24</ele>
        <time>2014-05-08T13:32:18Z</time>
      </trkpt>
      <trkpt lat="48.09473" lon="-4.47417">
        <ele>26</ele>
        <time>2014-05-08T13:32:26Z</time>
      </trkpt>
      <trkpt lat="48.09473" lon="-4.47427">
        <ele>30</ele>
        <time>2014-05-08T13:32:32Z</time>
      </trkpt>
      <trkpt lat="48.09476" lon="-4.4744">
        <ele>33</ele>
        <time>2014-05-08T13:32:38Z</time>
      </trkpt>
      <trkpt lat="48.09479" lon="-4.4745">
        <ele>31</ele>
        <time>2014-05-08T13:32:45Z</time>
      </trkpt>
      <trkpt lat="48.09483" lon="-4.47461">
        <ele>32</ele>
        <time>2014-05-08T13:32:52Z</time>
      </trkpt>
      <trkpt lat="48.09488" lon="-4.47471">
        <ele>31</ele>
        <time>2014-05-08T13:32:56Z</time>
      </trkpt>
      <trkpt lat="48.09494" lon="-4.4748">
        <ele>34</ele>
        <time>2014-05-08T13:33:01Z</time>
      </trkpt>
      <trkpt lat="48.095" lon="-4.47486">
        <ele>36</ele>
        <time>2014-05-08T13:33:06Z</time>
      </trkpt>
      <trkpt lat="48.09507" lon="-4.47493">
        <ele>35</ele>
        <time>2014-05-08T13:33:12Z</time>
      </trkpt>
      <trkpt lat="48.09513" lon="-4.47502">
        <ele>35</ele>
        <time>2014-05-08T13:33:18Z</time>
      </trkpt>
      <trkpt lat="48.09519" lon="-4.4751">
        <ele>36</ele>
        <time>2014-05-08T13:33:22Z</time>
      </trkpt>
      <trkpt lat="48.09523" lon="-4.47521">
        <ele>38</ele>
        <time>2014-05-08T13:33:30Z</time>
      </trkpt>
      <trkpt lat="48.0953" lon="-4.47528">
        <ele>39</ele>
        <time>2014-05-08T13:33:37Z</time>
      </trkpt>
      <trkpt lat="48.09532" lon="-4.4754">
        <ele>36</ele>
        <time>2014-05-08T13:33:46Z</time>
      </trkpt>
      <trkpt lat="48.09533" lon="-4.47553">
        <ele>36</ele>
        <time>2014-05-08T13:33:57Z</time>
      </trkpt>
      <trkpt lat="48.09534" lon="-4.47565">
        <ele>39</ele>
        <time>2014-05-08T13:34:03Z</time>
      </trkpt>
      <trkpt lat="48.09533" lon="-4.47576">
        <ele>40</ele>
        <time>2014-05-08T13:34:09Z</time>
      </trkpt>
      <trkpt lat="48.09531" lon="-4.47588">
        <ele>45</ele>
        <time>2014-05-08T13:34:18Z</time>
      </trkpt>
      <trkpt lat="48.09526" lon="-4.47599">
        <ele>43</ele>
        <time>2014-05-08T13:34:30Z</time>
      </trkpt>
      <trkpt lat="48.09519" lon="-4.47607">
        <ele>41</ele>
        <time>2014-05-08T13:34:40Z</time>
      </trkpt>
      <trkpt lat="48.09516" lon="-4.47619">
        <ele>42</ele>
        <time>2014-05-08T13:34:50Z</time>
      </trkpt>
      <trkpt lat="48.09516" lon="-4.47631">
        <ele>40</ele>
        <time>2014-05-08T13:35:01Z</time>
      </trkpt>
      <trkpt lat="48.0951" lon="-4.47639">
        <ele>52</ele>
        <time>2014-05-08T13:35:33Z</time>
      </trkpt>
      <trkpt lat="48.09502" lon="-4.47642">
        <ele>53</ele>
        <time>2014-05-08T13:35:50Z</time>
      </trkpt>
      <trkpt lat="48.09493" lon="-4.47645">
        <ele>54</ele>
        <time>2014-05-08T13:35:55Z</time>
      </trkpt>
      <trkpt lat="48.09487" lon="-4.47653">
        <ele>54</ele>
        <time>2014-05-08T13:36:00Z</time>
      </trkpt>
      <trkpt lat="48.0948" lon="-4.4766">
        <ele>52</ele>
        <time>2014-05-08T13:36:06Z</time>
      </trkpt>
      <trkpt lat="48.09471" lon="-4.47668">
        <ele>55</ele>
        <time>2014-05-08T13:36:10Z</time>
      </trkpt>
      <trkpt lat="48.09463" lon="-4.47666">
        <ele>55</ele>
        <time>2014-05-08T13:36:25Z</time>
      </trkpt>
      <trkpt lat="48.09455" lon="-4.47663">
        <ele>56</ele>
        <time>2014-05-08T13:36:36Z</time>
      </trkpt>
      <trkpt lat="48.09446" lon="-4.47658">
        <ele>60</ele>
        <time>2014-05-08T13:36:44Z</time>
      </trkpt>
      <trkpt lat="48.09437" lon="-4.47659">
        <ele>64</ele>
        <time>2014-05-08T13:36:51Z</time>
      </trkpt>
      <trkpt lat="48.09429" lon="-4.47661">
        <ele>70</ele>
        <time>2014-05-08T13:37:00Z</time>
      </trkpt>
      <trkpt lat="48.0942" lon="-4.47662">
        <ele>72</ele>
        <time>2014-05-08T13:37:09Z</time>
      </trkpt>
      <trkpt lat="48.09413" lon="-4.47666">
        <ele>63</ele>
        <time>2014-05-08T13:37:22Z</time>
      </trkpt>
      <trkpt lat="48.09405" lon="-4.47668">
        <ele>62</ele>
        <time>2014-05-08T13:37:31Z</time>
      </trkpt>
      <trkpt lat="48.09396" lon="-4.47668">
        <ele>58</ele>
        <time>2014-05-08T13:37:39Z</time>
      </trkpt>
      <trkpt lat="48.09387" lon="-4.47668">
        <ele>59</ele>
        <time>2014-05-08T13:37:50Z</time>
      </trkpt>
      <trkpt lat="48.09379" lon="-4.47665">
        <ele>58</ele>
        <time>2014-05-08T13:37:57Z</time>
      </trkpt>
      <trkpt lat="48.09372" lon="-4.47661">
        <ele>60</ele>
        <time>2014-05-08T13:38:03Z</time>
      </trkpt>
      <trkpt lat="48.09363" lon="-4.4766">
        <ele>59</ele>
        <time>2014-05-08T13:38:09Z</time>
      </trkpt>
      <trkpt lat="48.09357" lon="-4.47669">
        <ele>59</ele>
        <time>2014-05-08T13:38:21Z</time>
      </trkpt>
      <trkpt lat="48.09349" lon="-4.47666">
        <ele>54</ele>
        <time>2014-05-08T13:38:30Z</time>
      </trkpt>
      <trkpt lat="48.09343" lon="-4.47659">
        <ele>57</ele>
        <time>2014-05-08T13:38:34Z</time>
      </trkpt>
      <trkpt lat="48.09336" lon="-4.47651">
        <ele>53</ele>
        <time>2014-05-08T13:38:45Z</time>
      </trkpt>
      <trkpt lat="48.09328" lon="-4.4765">
        <ele>49</ele>
        <time>2014-05-08T13:38:56Z</time>
      </trkpt>
      <trkpt lat="48.09321" lon="-4.47653">
        <ele>47</ele>
        <time>2014-05-08T13:39:04Z</time>
      </trkpt>
      <trkpt lat="48.09313" lon="-4.47654">
        <ele>46</ele>
        <time>2014-05-08T13:39:08Z</time>
      </trkpt>
      <trkpt lat="48.09305" lon="-4.47652">
        <ele>42</ele>
        <time>2014-05-08T13:39:15Z</time>
      </trkpt>
      <trkpt lat="48.09296" lon="-4.47652">
        <ele>43</ele>
        <time>2014-05-08T13:39:22Z</time>
      </trkpt>
      <trkpt lat="48.09288" lon="-4.47646">
        <ele>41</ele>
        <time>2014-05-08T13:39:30Z</time>
      </trkpt>
      <trkpt lat="48.09281" lon="-4.4764">
        <ele>40</ele>
        <time>2014-05-08T13:39:38Z</time>
      </trkpt>
      <trkpt lat="48.09276" lon="-4.47629">
        <ele>40</ele>
        <time>2014-05-08T13:39:53Z</time>
      </trkpt>
      <trkpt lat="48.0927" lon="-4.4762">
        <ele>38</ele>
        <time>2014-05-08T13:40:12Z</time>
      </trkpt>
      <trkpt lat="48.09263" lon="-4.47618">
        <ele>38</ele>
        <time>2014-05-08T13:40:18Z</time>
      </trkpt>
      <trkpt lat="48.09252" lon="-4.47626">
        <ele>36</ele>
        <time>2014-05-08T13:40:23Z</time>
      </trkpt>
      <trkpt lat="48.09243" lon="-4.4763">
        <ele>40</ele>
        <time>2014-05-08T13:40:33Z</time>
      </trkpt>
      <trkpt lat="48.09237" lon="-4.47633">
        <ele>43</ele>
        <time>2014-05-08T13:40:47Z</time>
      </trkpt>
      <trkpt lat="48.09231" lon="-4.47636">
        <ele>42</ele>
        <time>2014-05-08T13:40:51Z</time>
      </trkpt>
      <trkpt lat="48.09228" lon="-4.47648">
        <ele>42</ele>
        <time>2014-05-08T13:41:06Z</time>
      </trkpt>
      <trkpt lat="48.09221" lon="-4.47656">
        <ele>40</ele>
        <time>2014-05-08T13:41:14Z</time>
      </trkpt>
      <trkpt lat="48.09219" lon="-4.47668">
        <ele>34</ele>
        <time>2014-05-08T13:41:24Z</time>
      </trkpt>
      <trkpt lat="48.09219" lon="-4.4768">
        <ele>28</ele>
        <time>2014-05-08T13:41:32Z</time>
      </trkpt>
      <trkpt lat="48.09222" lon="-4.47692">
        <ele>27</ele>
        <time>2014-05-08T13:41:38Z</time>
      </trkpt>
      <trkpt lat="48.09223" lon="-4.47704">
        <ele>26</ele>
        <time>2014-05-08T13:41:55Z</time>
      </trkpt>
      <trkpt lat="48.09224" lon="-4.47716">
        <ele>32</ele>
        <time>2014-05-08T13:42:09Z</time>
      </trkpt>
      <trkpt lat="48.09224" lon="-4.47729">
        <ele>33</ele>
        <time>2014-05-08T13:42:28Z</time>
      </trkpt>
      <trkpt lat="48.09223" lon="-4.47741">
        <ele>35</ele>
        <time>2014-05-08T13:42:34Z</time>
      </trkpt>
      <trkpt lat="48.09222" lon="-4.47754">
        <ele>37</ele>
        <time>2014-05-08T13:42:41Z</time>
      </trkpt>
      <trkpt lat="48.09217" lon="-4.47765">
        <ele>37</ele>
        <time>2014-05-08T13:42:47Z</time>
      </trkpt>
      <trkpt lat="48.09211" lon="-4.47773">
        <ele>38</ele>
        <time>2014-05-08T13:42:58Z</time>
      </trkpt>
      <trkpt lat="48.09205" lon="-4.47782">
        <ele>38</ele>
        <time>2014-05-08T13:43:04Z</time>
      </trkpt>
      <trkpt lat="48.09199" lon="-4.47792">
        <ele>39</ele>
        <time>2014-05-08T13:43:09Z</time>
      </trkpt>
      <trkpt lat="48.09195" lon="-4.47802">
        <ele>39</ele>
        <time>2014-05-08T13:43:15Z</time>
      </trkpt>
      <trkpt lat="48.09191" lon="-4.47814">
        <ele>41</ele>
        <time>2014-05-08T13:43:23Z</time>
      </trkpt>
      <trkpt lat="48.09189" lon="-4.47825">
        <ele>39</ele>
        <time>2014-05-08T13:43:32Z</time>
      </trkpt>
      <trkpt lat="48.09185" lon="-4.47836">
        <ele>39</ele>
        <time>2014-05-08T13:43:39Z</time>
      </trkpt>
      <trkpt lat="48.09181" lon="-4.47848">
        <ele>40</ele>
        <time>2014-05-08T13:43:46Z</time>
      </trkpt>
      <trkpt lat="48.09179" lon="-4.47861">
        <ele>40</ele>
        <time>2014-05-08T13:43:54Z</time>
      </trkpt>
      <trkpt lat="48.09175" lon="-4.47872">
        <ele>39</ele>
        <time>2014-05-08T13:44:05Z</time>
      </trkpt>
      <trkpt lat="48.09171" lon="-4.47883">
        <ele>39</ele>
        <time>2014-05-08T13:44:13Z</time>
      </trkpt>
      <trkpt lat="48.09166" lon="-4.47894">
        <ele>40</ele>
        <time>2014-05-08T13:44:20Z</time>
      </trkpt>
      <trkpt lat="48.09162" lon="-4.47904">
        <ele>42</ele>
        <time>2014-05-08T13:44:27Z</time>
      </trkpt>
      <trkpt lat="48.09157" lon="-4.47915">
        <ele>41</ele>
        <time>2014-05-08T13:44:35Z</time>
      </trkpt>
      <trkpt lat="48.09153" lon="-4.47925">
        <ele>40</ele>
        <time>2014-05-08T13:44:41Z</time>
      </trkpt>
      <trkpt lat="48.09148" lon="-4.47934">
        <ele>41</ele>
        <time>2014-05-08T13:44:48Z</time>
      </trkpt>
      <trkpt lat="48.09143" lon="-4.47944">
        <ele>40</ele>
        <time>2014-05-08T13:45:01Z</time>
      </trkpt>
      <trkpt lat="48.09142" lon="-4.47958">
        <ele>40</ele>
        <time>2014-05-08T13:45:08Z</time>
      </trkpt>
      <trkpt lat="48.09142" lon="-4.47971">
        <ele>39</ele>
        <time>2014-05-08T13:45:15Z</time>
      </trkpt>
      <trkpt lat="48.09142" lon="-4.47984">
        <ele>41</ele>
        <time>2014-05-08T13:45:23Z</time>
      </trkpt>
      <trkpt lat="48.09137" lon="-4.47995">
        <ele>42</ele>
        <time>2014-05-08T13:45:30Z</time>
      </trkpt>
      <trkpt lat="48.09133" lon="-4.48007">
        <ele>42</ele>
        <time>2014-05-08T13:45:39Z</time>
      </trkpt>
      <trkpt lat="48.09132" lon="-4.4802">
        <ele>42</ele>
        <time>2014-05-08T13:45:48Z</time>
      </trkpt>
      <trkpt lat="48.09131" lon="-4.48033">
        <ele>44</ele>
        <time>2014-05-08T13:45:57Z</time>
      </trkpt>
      <trkpt lat="48.09127" lon="-4.48043">
        <ele>44</ele>
        <time>2014-05-08T13:46:04Z</time>
      </trkpt>
      <trkpt lat="48.09122" lon="-4.48053">
        <ele>46</ele>
        <time>2014-05-08T13:46:16Z</time>
      </trkpt>
      <trkpt lat="48.09115" lon="-4.48061">
        <ele>45</ele>
        <time>2014-05-08T13:46:24Z</time>
      </trkpt>
      <trkpt lat="48.09112" lon="-4.48073">
        <ele>44</ele>
        <time>2014-05-08T13:46:31Z</time>
      </trkpt>
      <trkpt lat="48.09106" lon="-4.48081">
        <ele>45</ele>
        <time>2014-05-08T13:46:37Z</time>
      </trkpt>
      <trkpt lat="48.09101" lon="-4.48091">
        <ele>48</ele>
        <time>2014-05-08T13:46:44Z</time>
      </trkpt>
      <trkpt lat="48.09095" lon="-4.48101">
        <ele>48</ele>
        <time>2014-05-08T13:46:51Z</time>
      </trkpt>
      <trkpt lat="48.09091" lon="-4.48112">
        <ele>48</ele>
        <time>2014-05-08T13:46:59Z</time>
      </trkpt>
      <trkpt lat="48.09085" lon="-4.4812">
        <ele>48</ele>
        <time>2014-05-08T13:47:09Z</time>
      </trkpt>
      <trkpt lat="48.0908" lon="-4.4813">
        <ele>48</ele>
        <time>2014-05-08T13:47:17Z</time>
      </trkpt>
      <trkpt lat="48.09075" lon="-4.4814">
        <ele>45</ele>
        <time>2014-05-08T13:47:31Z</time>
      </trkpt>
      <trkpt lat="48.09073" lon="-4.48152">
        <ele>41</ele>
        <time>2014-05-08T13:47:43Z</time>
      </trkpt>
      <trkpt lat="48.09066" lon="-4.48161">
        <ele>41</ele>
        <time>2014-05-08T13:47:54Z</time>
      </trkpt>
      <trkpt lat="48.09059" lon="-4.48165">
        <ele>40</ele>
        <time>2014-05-08T13:48:09Z</time>
      </trkpt>
      <trkpt lat="48.09052" lon="-4.48169">
        <ele>38</ele>
        <time>2014-05-08T13:48:14Z</time>
      </trkpt>
      <trkpt lat="48.09045" lon="-4.48175">
        <ele>39</ele>
        <time>2014-05-08T13:48:19Z</time>
      </trkpt>
      <trkpt lat="48.09037" lon="-4.48178">
        <ele>41</ele>
        <time>2014-05-08T13:48:25Z</time>
      </trkpt>
      <trkpt lat="48.09028" lon="-4.48181">
        <ele>40</ele>
        <time>2014-05-08T13:48:31Z</time>
      </trkpt>
      <trkpt lat="48.0902" lon="-4.48179">
        <ele>36</ele>
        <time>2014-05-08T13:48:39Z</time>
      </trkpt>
      <trkpt lat="48.09011" lon="-4.4818">
        <ele>34</ele>
        <time>2014-05-08T13:48:46Z</time>
      </trkpt>
      <trkpt lat="48.09003" lon="-4.4818">
        <ele>34</ele>
        <time>2014-05-08T13:48:53Z</time>
      </trkpt>
      <trkpt lat="48.08996" lon="-4.48181">
        <ele>35</ele>
        <time>2014-05-08T13:49:03Z</time>
      </trkpt>
      <trkpt lat="48.08989" lon="-4.48187">
        <ele>37</ele>
        <time>2014-05-08T13:49:09Z</time>
      </trkpt>
      <trkpt lat="48.08983" lon="-4.48196">
        <ele>40</ele>
        <time>2014-05-08T13:49:15Z</time>
      </trkpt>
      <trkpt lat="48.08977" lon="-4.482">
        <ele>37</ele>
        <time>2014-05-08T13:49:23Z</time>
      </trkpt>
      <trkpt lat="48.08971" lon="-4.48206">
        <ele>36</ele>
        <time>2014-05-08T13:49:28Z</time>
      </trkpt>
      <trkpt lat="48.08964" lon="-4.48215">
        <ele>35</ele>
        <time>2014-05-08T13:49:35Z</time>
      </trkpt>
      <trkpt lat="48.08961" lon="-4.48227">
        <ele>32</ele>
        <time>2014-05-08T13:49:44Z</time>
      </trkpt>
      <trkpt lat="48.08957" lon="-4.48239">
        <ele>31</ele>
        <time>2014-05-08T13:49:51Z</time>
      </trkpt>
      <trkpt lat="48.08952" lon="-4.48249">
        <ele>30</ele>
        <time>2014-05-08T13:49:59Z</time>
      </trkpt>
      <trkpt lat="48.08947" lon="-4.48259">
        <ele>32</ele>
        <time>2014-05-08T13:50:08Z</time>
      </trkpt>
      <trkpt lat="48.08941" lon="-4.48269">
        <ele>32</ele>
        <time>2014-05-08T13:50:13Z</time>
      </trkpt>
      <trkpt lat="48.08933" lon="-4.48271">
        <ele>34</ele>
        <time>2014-05-08T13:50:20Z</time>
      </trkpt>
      <trkpt lat="48.08927" lon="-4.48271">
        <ele>34</ele>
        <time>2014-05-08T13:50:25Z</time>
      </trkpt>
      <trkpt lat="48.08922" lon="-4.4826">
        <ele>30</ele>
        <time>2014-05-08T13:50:36Z</time>
      </trkpt>
      <trkpt lat="48.08916" lon="-4.48253">
        <ele>32</ele>
        <time>2014-05-08T13:50:49Z</time>
      </trkpt>
      <trkpt lat="48.08908" lon="-4.4825">
        <ele>36</ele>
        <time>2014-05-08T13:50:56Z</time>
      </trkpt>
      <trkpt lat="48.08903" lon="-4.48241">
        <ele>36</ele>
        <time>2014-05-08T13:51:02Z</time>
      </trkpt>
      <trkpt lat="48.08898" lon="-4.4823">
        <ele>37</ele>
        <time>2014-05-08T13:51:08Z</time>
      </trkpt>
      <trkpt lat="48.0889" lon="-4.48226">
        <ele>36</ele>
        <time>2014-05-08T13:51:20Z</time>
      </trkpt>
      <trkpt lat="48.08882" lon="-4.48223">
        <ele>37</ele>
        <time>2014-05-08T13:51:31Z</time>
      </trkpt>
      <trkpt lat="48.08875" lon="-4.48221">
        <ele>38</ele>
        <time>2014-05-08T13:51:38Z</time>
      </trkpt>
      <trkpt lat="48.08868" lon="-4.48223">
        <ele>37</ele>
        <time>2014-05-08T13:51:45Z</time>
      </trkpt>
      <trkpt lat="48.08863" lon="-4.48236">
        <ele>32</ele>
        <time>2014-05-08T13:51:49Z</time>
      </trkpt>
      <trkpt lat="48.08861" lon="-4.48249">
        <ele>35</ele>
        <time>2014-05-08T13:51:58Z</time>
      </trkpt>
      <trkpt lat="48.08859" lon="-4.48261">
        <ele>36</ele>
        <time>2014-05-08T13:52:05Z</time>
      </trkpt>
      <trkpt lat="48.08858" lon="-4.48271">
        <ele>33</ele>
        <time>2014-05-08T13:52:11Z</time>
      </trkpt>
      <trkpt lat="48.08858" lon="-4.48284">
        <ele>34</ele>
        <time>2014-05-08T13:52:17Z</time>
      </trkpt>
      <trkpt lat="48.08859" lon="-4.48297">
        <ele>30</ele>
        <time>2014-05-08T13:52:25Z</time>
      </trkpt>
      <trkpt lat="48.08861" lon="-4.48308">
        <ele>31</ele>
        <time>2014-05-08T13:52:31Z</time>
      </trkpt>
      <trkpt lat="48.08861" lon="-4.4832">
        <ele>32</ele>
        <time>2014-05-08T13:52:37Z</time>
      </trkpt>
      <trkpt lat="48.08862" lon="-4.48332">
        <ele>32</ele>
        <time>2014-05-08T13:52:45Z</time>
      </trkpt>
      <trkpt lat="48.08859" lon="-4.48343">
        <ele>33</ele>
        <time>2014-05-08T13:52:52Z</time>
      </trkpt>
      <trkpt lat="48.08854" lon="-4.48354">
        <ele>34</ele>
        <time>2014-05-08T13:52:59Z</time>
      </trkpt>
      <trkpt lat="48.0885" lon="-4.48365">
        <ele>36</ele>
        <time>2014-05-08T13:53:08Z</time>
      </trkpt>
      <trkpt lat="48.08844" lon="-4.48374">
        <ele>35</ele>
        <time>2014-05-08T13:53:17Z</time>
      </trkpt>
      <trkpt lat="48.08836" lon="-4.4838">
        <ele>36</ele>
        <time>2014-05-08T13:53:25Z</time>
      </trkpt>
      <trkpt lat="48.08828" lon="-4.48387">
        <ele>34</ele>
        <time>2014-05-08T13:53:31Z</time>
      </trkpt>
      <trkpt lat="48.08822" lon="-4.48396">
        <ele>30</ele>
        <time>2014-05-08T13:53:41Z</time>
      </trkpt>
      <trkpt lat="48.08815" lon="-4.48406">
        <ele>31</ele>
        <time>2014-05-08T13:53:47Z</time>
      </trkpt>
      <trkpt lat="48.08808" lon="-4.48411">
        <ele>29</ele>
        <time>2014-05-08T13:53:56Z</time>
      </trkpt>
      <trkpt lat="48.088" lon="-4.48417">
        <ele>26</ele>
        <time>2014-05-08T13:54:06Z</time>
      </trkpt>
      <trkpt lat="48.08792" lon="-4.48422">
        <ele>26</ele>
        <time>2014-05-08T13:54:15Z</time>
      </trkpt>
      <trkpt lat="48.08784" lon="-4.48427">
        <ele>29</ele>
        <time>2014-05-08T13:54:22Z</time>
      </trkpt>
      <trkpt lat="48.08776" lon="-4.48425">
        <ele>30</ele>
        <time>2014-05-08T13:54:31Z</time>
      </trkpt>
      <trkpt lat="48.08768" lon="-4.4843">
        <ele>30</ele>
        <time>2014-05-08T13:54:39Z</time>
      </trkpt>
      <trkpt lat="48.08761" lon="-4.48439">
        <ele>30</ele>
        <time>2014-05-08T13:54:46Z</time>
      </trkpt>
      <trkpt lat="48.08758" lon="-4.48451">
        <ele>30</ele>
        <time>2014-05-08T13:54:55Z</time>
      </trkpt>
      <trkpt lat="48.08754" lon="-4.48463">
        <ele>28</ele>
        <time>2014-05-08T13:55:02Z</time>
      </trkpt>
      <trkpt lat="48.08751" lon="-4.48474">
        <ele>31</ele>
        <time>2014-05-08T13:55:08Z</time>
      </trkpt>
      <trkpt lat="48.08746" lon="-4.48484">
        <ele>32</ele>
        <time>2014-05-08T13:55:14Z</time>
      </trkpt>
      <trkpt lat="48.08744" lon="-4.48492">
        <ele>30</ele>
        <time>2014-05-08T13:55:22Z</time>
      </trkpt>
      <trkpt lat="48.08744" lon="-4.48506">
        <ele>36</ele>
        <time>2014-05-08T13:55:27Z</time>
      </trkpt>
      <trkpt lat="48.0874" lon="-4.48517">
        <ele>34</ele>
        <time>2014-05-08T13:55:45Z</time>
      </trkpt>
      <trkpt lat="48.08741" lon="-4.4853">
        <ele>32</ele>
        <time>2014-05-08T13:55:57Z</time>
      </trkpt>
      <trkpt lat="48.08746" lon="-4.4854">
        <ele>29</ele>
        <time>2014-05-08T13:56:11Z</time>
      </trkpt>
      <trkpt lat="48.08749" lon="-4.48552">
        <ele>30</ele>
        <time>2014-05-08T14:01:56Z</time>
      </trkpt>
      <trkpt lat="48.08752" lon="-4.48564">
        <ele>26</ele>
        <time>2014-05-08T14:02:14Z</time>
      </trkpt>
      <trkpt lat="48.08744" lon="-4.48571">
        <ele>24</ele>
        <time>2014-05-08T14:02:23Z</time>
      </trkpt>
      <trkpt lat="48.08737" lon="-4.48573">
        <ele>19</ele>
        <time>2014-05-08T14:02:30Z</time>
      </trkpt>
      <trkpt lat="48.08728" lon="-4.48573">
        <ele>19</ele>
        <time>2014-05-08T14:02:37Z</time>
      </trkpt>
      <trkpt lat="48.08722" lon="-4.48567">
        <ele>19</ele>
        <time>2014-05-08T14:02:47Z</time>
      </trkpt>
      <trkpt lat="48.08715" lon="-4.48559">
        <ele>15</ele>
        <time>2014-05-08T14:02:54Z</time>
      </trkpt>
      <trkpt lat="48.08707" lon="-4.48557">
        <ele>16</ele>
        <time>2014-05-08T14:02:59Z</time>
      </trkpt>
      <trkpt lat="48.08699" lon="-4.48552">
        <ele>14</ele>
        <time>2014-05-08T14:03:07Z</time>
      </trkpt>
      <trkpt lat="48.0869" lon="-4.48551">
        <ele>12</ele>
        <time>2014-05-08T14:03:18Z</time>
      </trkpt>
      <trkpt lat="48.08682" lon="-4.48549">
        <ele>10</ele>
        <time>2014-05-08T14:03:29Z</time>
      </trkpt>
      <trkpt lat="48.08673" lon="-4.48549">
        <ele>8</ele>
        <time>2014-05-08T14:03:36Z</time>
      </trkpt>
      <trkpt lat="48.08665" lon="-4.48551">
        <ele>2</ele>
        <time>2014-05-08T14:03:46Z</time>
      </trkpt>
      <trkpt lat="48.08657" lon="-4.48557">
        <ele>3</ele>
        <time>2014-05-08T14:03:53Z</time>
      </trkpt>
      <trkpt lat="48.08653" lon="-4.48568">
        <ele>9.4</ele>
        <time>2014-05-08T14:04:00Z</time>
      </trkpt>
      <trkpt lat="48.08652" lon="-4.48581">
        <ele>6</ele>
        <time>2014-05-08T14:04:12Z</time>
      </trkpt>
      <trkpt lat="48.08648" lon="-4.48592">
        <ele>5</ele>
        <time>2014-05-08T14:04:19Z</time>
      </trkpt>
      <trkpt lat="48.0864" lon="-4.48598">
        <ele>3</ele>
        <time>2014-05-08T14:04:26Z</time>
      </trkpt>
      <trkpt lat="48.08632" lon="-4.48595">
        <ele>1</ele>
        <time>2014-05-08T14:04:38Z</time>
      </trkpt>
      <trkpt lat="48.08624" lon="-4.48589">
        <ele>5</ele>
        <time>2014-05-08T14:04:47Z</time>
      </trkpt>
      <trkpt lat="48.08617" lon="-4.48583">
        <ele>2</ele>
        <time>2014-05-08T14:04:55Z</time>
      </trkpt>
      <trkpt lat="48.08608" lon="-4.4858">
        <ele>3</ele>
        <time>2014-05-08T14:05:05Z</time>
      </trkpt>
      <trkpt lat="48.08602" lon="-4.48578">
        <ele>2</ele>
        <time>2014-05-08T14:05:11Z</time>
      </trkpt>
      <trkpt lat="48.08594" lon="-4.48577">
        <ele>5</ele>
        <time>2014-05-08T14:05:16Z</time>
      </trkpt>
      <trkpt lat="48.08586" lon="-4.48574">
        <ele>5</ele>
        <time>2014-05-08T14:05:22Z</time>
      </trkpt>
      <trkpt lat="48.08581" lon="-4.48585">
        <ele>8</ele>
        <time>2014-05-08T14:05:29Z</time>
      </trkpt>
      <trkpt lat="48.08579" lon="-4.48597">
        <ele>12</ele>
        <time>2014-05-08T14:05:36Z</time>
      </trkpt>
      <trkpt lat="48.08578" lon="-4.4861">
        <ele>15</ele>
        <time>2014-05-08T14:05:46Z</time>
      </trkpt>
      <trkpt lat="48.0858" lon="-4.48622">
        <ele>15</ele>
        <time>2014-05-08T14:05:53Z</time>
      </trkpt>
      <trkpt lat="48.08588" lon="-4.48629">
        <ele>15</ele>
        <time>2014-05-08T14:05:58Z</time>
      </trkpt>
      <trkpt lat="48.08592" lon="-4.4864">
        <ele>16</ele>
        <time>2014-05-08T14:06:03Z</time>
      </trkpt>
      <trkpt lat="48.08598" lon="-4.48648">
        <ele>15</ele>
        <time>2014-05-08T14:06:11Z</time>
      </trkpt>
      <trkpt lat="48.08603" lon="-4.48657">
        <ele>16</ele>
        <time>2014-05-08T14:06:20Z</time>
      </trkpt>
      <trkpt lat="48.08611" lon="-4.48664">
        <ele>17</ele>
        <time>2014-05-08T14:06:25Z</time>
      </trkpt>
      <trkpt lat="48.08618" lon="-4.48673">
        <ele>15</ele>
        <time>2014-05-08T14:06:34Z</time>
      </trkpt>
      <trkpt lat="48.08622" lon="-4.48683">
        <ele>12</ele>
        <time>2014-05-08T14:06:40Z</time>
      </trkpt>
      <trkpt lat="48.08625" lon="-4.48695">
        <ele>10</ele>
        <time>2014-05-08T14:06:50Z</time>
      </trkpt>
      <trkpt lat="48.08624" lon="-4.48708">
        <ele>14</ele>
        <time>2014-05-08T14:06:57Z</time>
      </trkpt>
      <trkpt lat="48.08628" lon="-4.48719">
        <ele>9</ele>
        <time>2014-05-08T14:07:06Z</time>
      </trkpt>
      <trkpt lat="48.08631" lon="-4.48732">
        <ele>9</ele>
        <time>2014-05-08T14:07:17Z</time>
      </trkpt>
      <trkpt lat="48.08633" lon="-4.48745">
        <ele>8</ele>
        <time>2014-05-08T14:07:29Z</time>
      </trkpt>
      <trkpt lat="48.08634" lon="-4.48754">
        <ele>8</ele>
        <time>2014-05-08T14:07:34Z</time>
      </trkpt>
      <trkpt lat="48.08637" lon="-4.48767">
        <ele>8</ele>
        <time>2014-05-08T14:07:40Z</time>
      </trkpt>
      <trkpt lat="48.08642" lon="-4.48777">
        <ele>8</ele>
        <time>2014-05-08T14:07:48Z</time>
      </trkpt>
      <trkpt lat="48.08643" lon="-4.4879">
        <ele>16</ele>
        <time>2014-05-08T14:07:58Z</time>
      </trkpt>
      <trkpt lat="48.08635" lon="-4.48798">
        <ele>18</ele>
        <time>2014-05-08T14:08:08Z</time>
      </trkpt>
      <trkpt lat="48.08628" lon="-4.48803">
        <ele>18</ele>
        <time>2014-05-08T14:08:16Z</time>
      </trkpt>
      <trkpt lat="48.08621" lon="-4.48811">
        <ele>17</ele>
        <time>2014-05-08T14:08:24Z</time>
      </trkpt>
      <trkpt lat="48.08616" lon="-4.4882">
        <ele>17</ele>
        <time>2014-05-08T14:08:30Z</time>
      </trkpt>
      <trkpt lat="48.08609" lon="-4.48828">
        <ele>18</ele>
        <time>2014-05-08T14:08:38Z</time>
      </trkpt>
      <trkpt lat="48.08602" lon="-4.48834">
        <ele>18</ele>
        <time>2014-05-08T14:08:44Z</time>
      </trkpt>
      <trkpt lat="48.08596" lon="-4.48843">
        <ele>17</ele>
        <time>2014-05-08T14:08:52Z</time>
      </trkpt>
      <trkpt lat="48.0859" lon="-4.48852">
        <ele>18</ele>
        <time>2014-05-08T14:09:00Z</time>
      </trkpt>
      <trkpt lat="48.08586" lon="-4.48862">
        <ele>18</ele>
        <time>2014-05-08T14:09:06Z</time>
      </trkpt>
      <trkpt lat="48.08583" lon="-4.48871">
        <ele>14</ele>
        <time>2014-05-08T14:09:15Z</time>
      </trkpt>
      <trkpt lat="48.08581" lon="-4.48884">
        <ele>17</ele>
        <time>2014-05-08T14:09:22Z</time>
      </trkpt>
      <trkpt lat="48.08579" lon="-4.48896">
        <ele>16</ele>
        <time>2014-05-08T14:09:31Z</time>
      </trkpt>
      <trkpt lat="48.08582" lon="-4.48906">
        <ele>18</ele>
        <time>2014-05-08T14:09:35Z</time>
      </trkpt>
      <trkpt lat="48.08584" lon="-4.4892">
        <ele>19</ele>
        <time>2014-05-08T14:09:39Z</time>
      </trkpt>
      <trkpt lat="48.08592" lon="-4.48927">
        <ele>20</ele>
        <time>2014-05-08T14:09:43Z</time>
      </trkpt>
      <trkpt lat="48.08597" lon="-4.48939">
        <ele>23</ele>
        <time>2014-05-08T14:09:50Z</time>
      </trkpt>
      <trkpt lat="48.08601" lon="-4.48945">
        <ele>20</ele>
        <time>2014-05-08T14:09:56Z</time>
      </trkpt>
      <trkpt lat="48.08608" lon="-4.48952">
        <ele>23</ele>
        <time>2014-05-08T14:10:09Z</time>
      </trkpt>
      <trkpt lat="48.08614" lon="-4.48957">
        <ele>22</ele>
        <time>2014-05-08T14:10:15Z</time>
      </trkpt>
      <trkpt lat="48.08623" lon="-4.48959">
        <ele>22</ele>
        <time>2014-05-08T14:10:21Z</time>
      </trkpt>
      <trkpt lat="48.0862" lon="-4.48971">
        <ele>22</ele>
        <time>2014-05-08T14:10:38Z</time>
      </trkpt>
      <trkpt lat="48.08619" lon="-4.48984">
        <ele>22</ele>
        <time>2014-05-08T14:10:50Z</time>
      </trkpt>
      <trkpt lat="48.08617" lon="-4.48995">
        <ele>22</ele>
        <time>2014-05-08T14:11:04Z</time>
      </trkpt>
      <trkpt lat="48.08619" lon="-4.49">
        <ele>23</ele>
        <time>2014-05-08T14:11:09Z</time>
      </trkpt>
      <trkpt lat="48.08626" lon="-4.49014">
        <ele>23</ele>
        <time>2014-05-08T14:11:14Z</time>
      </trkpt>
      <trkpt lat="48.08631" lon="-4.49023">
        <ele>23</ele>
        <time>2014-05-08T14:11:20Z</time>
      </trkpt>
      <trkpt lat="48.08638" lon="-4.49031">
        <ele>24</ele>
        <time>2014-05-08T14:11:26Z</time>
      </trkpt>
      <trkpt lat="48.08637" lon="-4.49045">
        <ele>27</ele>
        <time>2014-05-08T14:11:33Z</time>
      </trkpt>
      <trkpt lat="48.08642" lon="-4.49053">
        <ele>32</ele>
        <time>2014-05-08T14:11:40Z</time>
      </trkpt>
      <trkpt lat="48.08648" lon="-4.49059">
        <ele>34</ele>
        <time>2014-05-08T14:12:04Z</time>
      </trkpt>
      <trkpt lat="48.08653" lon="-4.49063">
        <ele>33</ele>
        <time>2014-05-08T14:12:09Z</time>
      </trkpt>
      <trkpt lat="48.08657" lon="-4.49076">
        <ele>31</ele>
        <time>2014-05-08T14:12:13Z</time>
      </trkpt>
      <trkpt lat="48.08651" lon="-4.49085">
        <ele>33</ele>
        <time>2014-05-08T14:12:22Z</time>
      </trkpt>
      <trkpt lat="48.08645" lon="-4.49092">
        <ele>33</ele>
        <time>2014-05-08T14:12:36Z</time>
      </trkpt>
      <trkpt lat="48.08639" lon="-4.49102">
        <ele>30</ele>
        <time>2014-05-08T14:12:43Z</time>
      </trkpt>
      <trkpt lat="48.08634" lon="-4.49112">
        <ele>29</ele>
        <time>2014-05-08T14:12:52Z</time>
      </trkpt>
      <trkpt lat="48.08629" lon="-4.49123">
        <ele>27</ele>
        <time>2014-05-08T14:13:00Z</time>
      </trkpt>
      <trkpt lat="48.08623" lon="-4.49133">
        <ele>22</ele>
        <time>2014-05-08T14:13:23Z</time>
      </trkpt>
      <trkpt lat="48.08619" lon="-4.49145">
        <ele>20</ele>
        <time>2014-05-08T14:13:32Z</time>
      </trkpt>
      <trkpt lat="48.08616" lon="-4.49157">
        <ele>20</ele>
        <time>2014-05-08T14:13:44Z</time>
      </trkpt>
      <trkpt lat="48.08611" lon="-4.49165">
        <ele>18</ele>
        <time>2014-05-08T14:13:51Z</time>
      </trkpt>
      <trkpt lat="48.08607" lon="-4.49177">
        <ele>19</ele>
        <time>2014-05-08T14:14:06Z</time>
      </trkpt>
      <trkpt lat="48.08599" lon="-4.49181">
        <ele>20</ele>
        <time>2014-05-08T14:14:14Z</time>
      </trkpt>
      <trkpt lat="48.08598" lon="-4.49193">
        <ele>16</ele>
        <time>2014-05-08T14:14:20Z</time>
      </trkpt>
      <trkpt lat="48.08591" lon="-4.49196">
        <ele>10</ele>
        <time>2014-05-08T14:14:34Z</time>
      </trkpt>
      <trkpt lat="48.08582" lon="-4.49196">
        <ele>10</ele>
        <time>2014-05-08T14:14:42Z</time>
      </trkpt>
      <trkpt lat="48.08574" lon="-4.49195">
        <ele>8</ele>
        <time>2014-05-08T14:16:23Z</time>
      </trkpt>
      <trkpt lat="48.0856" lon="-4.4918">
        <ele>12</ele>
        <time>2014-05-08T14:16:28Z</time>
      </trkpt>
      <trkpt lat="48.08557" lon="-4.49169">
        <ele>13</ele>
        <time>2014-05-08T14:16:34Z</time>
      </trkpt>
      <trkpt lat="48.08555" lon="-4.49157">
        <ele>14</ele>
        <time>2014-05-08T14:16:42Z</time>
      </trkpt>
      <trkpt lat="48.08544" lon="-4.49148">
        <ele>15</ele>
        <time>2014-05-08T14:16:47Z</time>
      </trkpt>
      <trkpt lat="48.08538" lon="-4.4914">
        <ele>17</ele>
        <time>2014-05-08T14:16:54Z</time>
      </trkpt>
      <trkpt lat="48.08532" lon="-4.49131">
        <ele>17</ele>
        <time>2014-05-08T14:17:00Z</time>
      </trkpt>
      <trkpt lat="48.08525" lon="-4.49123">
        <ele>17</ele>
        <time>2014-05-08T14:17:12Z</time>
      </trkpt>
      <trkpt lat="48.08518" lon="-4.49116">
        <ele>17</ele>
        <time>2014-05-08T14:17:27Z</time>
      </trkpt>
      <trkpt lat="48.08511" lon="-4.4911">
        <ele>19</ele>
        <time>2014-05-08T14:17:34Z</time>
      </trkpt>
      <trkpt lat="48.08504" lon="-4.49103">
        <ele>19</ele>
        <time>2014-05-08T14:17:43Z</time>
      </trkpt>
      <trkpt lat="48.08498" lon="-4.49095">
        <ele>21</ele>
        <time>2014-05-08T14:17:50Z</time>
      </trkpt>
      <trkpt lat="48.08492" lon="-4.49087">
        <ele>22</ele>
        <time>2014-05-08T14:18:00Z</time>
      </trkpt>
      <trkpt lat="48.08484" lon="-4.4908">
        <ele>24</ele>
        <time>2014-05-08T14:18:06Z</time>
      </trkpt>
      <trkpt lat="48.08478" lon="-4.4907">
        <ele>25</ele>
        <time>2014-05-08T14:18:15Z</time>
      </trkpt>
      <trkpt lat="48.08472" lon="-4.49061">
        <ele>24</ele>
        <time>2014-05-08T14:18:25Z</time>
      </trkpt>
      <trkpt lat="48.08466" lon="-4.49052">
        <ele>25</ele>
        <time>2014-05-08T14:18:34Z</time>
      </trkpt>
      <trkpt lat="48.0846" lon="-4.49043">
        <ele>25</ele>
        <time>2014-05-08T14:18:41Z</time>
      </trkpt>
      <trkpt lat="48.08455" lon="-4.49033">
        <ele>27</ele>
        <time>2014-05-08T14:18:50Z</time>
      </trkpt>
      <trkpt lat="48.08448" lon="-4.49029">
        <ele>30</ele>
        <time>2014-05-08T14:18:56Z</time>
      </trkpt>
      <trkpt lat="48.08442" lon="-4.49022">
        <ele>32</ele>
        <time>2014-05-08T14:19:02Z</time>
      </trkpt>
      <trkpt lat="48.08436" lon="-4.49014">
        <ele>32</ele>
        <time>2014-05-08T14:19:08Z</time>
      </trkpt>
      <trkpt lat="48.08428" lon="-4.49009">
        <ele>30</ele>
        <time>2014-05-08T14:20:17Z</time>
      </trkpt>
      <trkpt lat="48.0842" lon="-4.49006">
        <ele>32</ele>
        <time>2014-05-08T14:20:24Z</time>
      </trkpt>
      <trkpt lat="48.08412" lon="-4.49006">
        <ele>32</ele>
        <time>2014-05-08T14:20:32Z</time>
      </trkpt>
      <trkpt lat="48.08404" lon="-4.49002">
        <ele>33</ele>
        <time>2014-05-08T14:20:39Z</time>
      </trkpt>
      <trkpt lat="48.08396" lon="-4.49">
        <ele>32</ele>
        <time>2014-05-08T14:20:45Z</time>
      </trkpt>
      <trkpt lat="48.08388" lon="-4.49">
        <ele>33</ele>
        <time>2014-05-08T14:20:53Z</time>
      </trkpt>
      <trkpt lat="48.08379" lon="-4.48999">
        <ele>34</ele>
        <time>2014-05-08T14:20:58Z</time>
      </trkpt>
      <trkpt lat="48.08371" lon="-4.48999">
        <ele>36</ele>
        <time>2014-05-08T14:21:02Z</time>
      </trkpt>
      <trkpt lat="48.08364" lon="-4.49007">
        <ele>36</ele>
        <time>2014-05-08T14:21:10Z</time>
      </trkpt>
      <trkpt lat="48.08362" lon="-4.4902">
        <ele>34</ele>
        <time>2014-05-08T14:21:19Z</time>
      </trkpt>
      <trkpt lat="48.08357" lon="-4.49031">
        <ele>32</ele>
        <time>2014-05-08T14:21:26Z</time>
      </trkpt>
      <trkpt lat="48.08351" lon="-4.49023">
        <ele>30</ele>
        <time>2014-05-08T14:21:36Z</time>
      </trkpt>
      <trkpt lat="48.08343" lon="-4.49019">
        <ele>29</ele>
        <time>2014-05-08T14:21:42Z</time>
      </trkpt>
      <trkpt lat="48.08336" lon="-4.49011">
        <ele>30</ele>
        <time>2014-05-08T14:21:51Z</time>
      </trkpt>
      <trkpt lat="48.08332" lon="-4.49005">
        <ele>29</ele>
        <time>2014-05-08T14:22:42Z</time>
      </trkpt>
      <trkpt lat="48.08315" lon="-4.48989">
        <ele>29</ele>
        <time>2014-05-08T14:22:47Z</time>
      </trkpt>
      <trkpt lat="48.08304" lon="-4.48985">
        <ele>31</ele>
        <time>2014-05-08T14:22:52Z</time>
      </trkpt>
      <trkpt lat="48.08295" lon="-4.48977">
        <ele>34</ele>
        <time>2014-05-08T14:22:56Z</time>
      </trkpt>
      <trkpt lat="48.08284" lon="-4.48973">
        <ele>37</ele>
        <time>2014-05-08T14:23:00Z</time>
      </trkpt>
      <trkpt lat="48.08276" lon="-4.48969">
        <ele>41</ele>
        <time>2014-05-08T14:23:17Z</time>
      </trkpt>
      <trkpt lat="48.08271" lon="-4.48974">
        <ele>41</ele>
        <time>2014-05-08T14:23:35Z</time>
      </trkpt>
      <trkpt lat="48.08248" lon="-4.4898">
        <ele>42</ele>
        <time>2014-05-08T14:23:40Z</time>
      </trkpt>
      <trkpt lat="48.0824" lon="-4.48977">
        <ele>43</ele>
        <time>2014-05-08T14:23:45Z</time>
      </trkpt>
      <trkpt lat="48.08234" lon="-4.48977">
        <ele>46</ele>
        <time>2014-05-08T14:23:59Z</time>
      </trkpt>
      <trkpt lat="48.08218" lon="-4.48973">
        <ele>46</ele>
        <time>2014-05-08T14:24:03Z</time>
      </trkpt>
      <trkpt lat="48.08208" lon="-4.48975">
        <ele>46</ele>
        <time>2014-05-08T14:24:07Z</time>
      </trkpt>
      <trkpt lat="48.08198" lon="-4.48974">
        <ele>44</ele>
        <time>2014-05-08T14:24:12Z</time>
      </trkpt>
      <trkpt lat="48.08191" lon="-4.48978">
        <ele>45</ele>
        <time>2014-05-08T14:24:17Z</time>
      </trkpt>
      <trkpt lat="48.08185" lon="-4.48987">
        <ele>45</ele>
        <time>2014-05-08T14:24:21Z</time>
      </trkpt>
      <trkpt lat="48.08179" lon="-4.48997">
        <ele>45</ele>
        <time>2014-05-08T14:24:26Z</time>
      </trkpt>
      <trkpt lat="48.08172" lon="-4.49003">
        <ele>46</ele>
        <time>2014-05-08T14:24:33Z</time>
      </trkpt>
      <trkpt lat="48.08167" lon="-4.49013">
        <ele>46</ele>
        <time>2014-05-08T14:24:40Z</time>
      </trkpt>
      <trkpt lat="48.0816" lon="-4.49021">
        <ele>46</ele>
        <time>2014-05-08T14:24:44Z</time>
      </trkpt>
      <trkpt lat="48.08156" lon="-4.49032">
        <ele>48</ele>
        <time>2014-05-08T14:24:53Z</time>
      </trkpt>
      <trkpt lat="48.08152" lon="-4.49041">
        <ele>50</ele>
        <time>2014-05-08T14:24:59Z</time>
      </trkpt>
      <trkpt lat="48.08148" lon="-4.49055">
        <ele>53</ele>
        <time>2014-05-08T14:25:04Z</time>
      </trkpt>
      <trkpt lat="48.08148" lon="-4.49067">
        <ele>55</ele>
        <time>2014-05-08T14:25:10Z</time>
      </trkpt>
      <trkpt lat="48.08146" lon="-4.49079">
        <ele>53</ele>
        <time>2014-05-08T14:25:17Z</time>
      </trkpt>
      <trkpt lat="48.08144" lon="-4.4909">
        <ele>54</ele>
        <time>2014-05-08T14:25:24Z</time>
      </trkpt>
      <trkpt lat="48.08137" lon="-4.49099">
        <ele>54</ele>
        <time>2014-05-08T14:25:31Z</time>
      </trkpt>
      <trkpt lat="48.0813" lon="-4.49107">
        <ele>53</ele>
        <time>2014-05-08T14:25:39Z</time>
      </trkpt>
      <trkpt lat="48.08123" lon="-4.49109">
        <ele>51</ele>
        <time>2014-05-08T14:26:19Z</time>
      </trkpt>
      <trkpt lat="48.08116" lon="-4.49106">
        <ele>52</ele>
        <time>2014-05-08T14:26:23Z</time>
      </trkpt>
      <trkpt lat="48.08108" lon="-4.49099">
        <ele>48</ele>
        <time>2014-05-08T14:26:28Z</time>
      </trkpt>
      <trkpt lat="48.08101" lon="-4.49101">
        <ele>46</ele>
        <time>2014-05-08T14:26:32Z</time>
      </trkpt>
      <trkpt lat="48.08089" lon="-4.49098">
        <ele>48</ele>
        <time>2014-05-08T14:26:36Z</time>
      </trkpt>
      <trkpt lat="48.08082" lon="-4.49099">
        <ele>52</ele>
        <time>2014-05-08T14:26:41Z</time>
      </trkpt>
      <trkpt lat="48.08074" lon="-4.49094">
        <ele>51</ele>
        <time>2014-05-08T14:26:47Z</time>
      </trkpt>
      <trkpt lat="48.08066" lon="-4.49095">
        <ele>50</ele>
        <time>2014-05-08T14:26:53Z</time>
      </trkpt>
      <trkpt lat="48.08058" lon="-4.49088">
        <ele>50</ele>
        <time>2014-05-08T14:27:03Z</time>
      </trkpt>
      <trkpt lat="48.0805" lon="-4.49086">
        <ele>52</ele>
        <time>2014-05-08T14:27:07Z</time>
      </trkpt>
      <trkpt lat="48.08043" lon="-4.49085">
        <ele>54</ele>
        <time>2014-05-08T14:27:12Z</time>
      </trkpt>
      <trkpt lat="48.08034" lon="-4.49082">
        <ele>54</ele>
        <time>2014-05-08T14:27:20Z</time>
      </trkpt>
      <trkpt lat="48.08026" lon="-4.49077">
        <ele>54</ele>
        <time>2014-05-08T14:27:28Z</time>
      </trkpt>
      <trkpt lat="48.08019" lon="-4.49071">
        <ele>54</ele>
        <time>2014-05-08T14:27:38Z</time>
      </trkpt>
      <trkpt lat="48.08011" lon="-4.49067">
        <ele>54</ele>
        <time>2014-05-08T14:27:44Z</time>
      </trkpt>
      <trkpt lat="48.08003" lon="-4.49065">
        <ele>55</ele>
        <time>2014-05-08T14:27:49Z</time>
      </trkpt>
      <trkpt lat="48.07995" lon="-4.49059">
        <ele>54</ele>
        <time>2014-05-08T14:27:56Z</time>
      </trkpt>
      <trkpt lat="48.07988" lon="-4.49053">
        <ele>55</ele>
        <time>2014-05-08T14:28:01Z</time>
      </trkpt>
      <trkpt lat="48.0798" lon="-4.49051">
        <ele>59</ele>
        <time>2014-05-08T14:28:07Z</time>
      </trkpt>
      <trkpt lat="48.07972" lon="-4.49048">
        <ele>59</ele>
        <time>2014-05-08T14:28:15Z</time>
      </trkpt>
      <trkpt lat="48.07963" lon="-4.49046">
        <ele>59</ele>
        <time>2014-05-08T14:28:21Z</time>
      </trkpt>
      <trkpt lat="48.07955" lon="-4.49044">
        <ele>58</ele>
        <time>2014-05-08T14:28:28Z</time>
      </trkpt>
      <trkpt lat="48.07947" lon="-4.49038">
        <ele>58</ele>
        <time>2014-05-08T14:28:34Z</time>
      </trkpt>
      <trkpt lat="48.0794" lon="-4.49033">
        <ele>59</ele>
        <time>2014-05-08T14:28:41Z</time>
      </trkpt>
      <trkpt lat="48.07933" lon="-4.49032">
        <ele>57</ele>
        <time>2014-05-08T14:28:47Z</time>
      </trkpt>
      <trkpt lat="48.07925" lon="-4.49039">
        <ele>56</ele>
        <time>2014-05-08T14:28:54Z</time>
      </trkpt>
      <trkpt lat="48.07917" lon="-4.49045">
        <ele>56</ele>
        <time>2014-05-08T14:29:02Z</time>
      </trkpt>
      <trkpt lat="48.07911" lon="-4.49049">
        <ele>55</ele>
        <time>2014-05-08T14:29:09Z</time>
      </trkpt>
      <trkpt lat="48.07903" lon="-4.49052">
        <ele>56</ele>
        <time>2014-05-08T14:29:16Z</time>
      </trkpt>
      <trkpt lat="48.07895" lon="-4.49057">
        <ele>58</ele>
        <time>2014-05-08T14:29:21Z</time>
      </trkpt>
      <trkpt lat="48.07887" lon="-4.49061">
        <ele>59</ele>
        <time>2014-05-08T14:29:28Z</time>
      </trkpt>
      <trkpt lat="48.07879" lon="-4.49065">
        <ele>60</ele>
        <time>2014-05-08T14:29:36Z</time>
      </trkpt>
      <trkpt lat="48.07873" lon="-4.49068">
        <ele>60</ele>
        <time>2014-05-08T14:29:41Z</time>
      </trkpt>
      <trkpt lat="48.07865" lon="-4.49077">
        <ele>61</ele>
        <time>2014-05-08T14:29:46Z</time>
      </trkpt>
      <trkpt lat="48.07857" lon="-4.49078">
        <ele>62</ele>
        <time>2014-05-08T14:29:51Z</time>
      </trkpt>
      <trkpt lat="48.0785" lon="-4.49083">
        <ele>64</ele>
        <time>2014-05-08T14:29:56Z</time>
      </trkpt>
      <trkpt lat="48.07842" lon="-4.49084">
        <ele>64</ele>
        <time>2014-05-08T14:30:02Z</time>
      </trkpt>
      <trkpt lat="48.07835" lon="-4.49086">
        <ele>68</ele>
        <time>2014-05-08T14:30:12Z</time>
      </trkpt>
      <trkpt lat="48.07827" lon="-4.49086">
        <ele>69</ele>
        <time>2014-05-08T14:30:18Z</time>
      </trkpt>
      <trkpt lat="48.07819" lon="-4.49091">
        <ele>68</ele>
        <time>2014-05-08T14:30:23Z</time>
      </trkpt>
      <trkpt lat="48.07814" lon="-4.49101">
        <ele>68</ele>
        <time>2014-05-08T14:30:30Z</time>
      </trkpt>
      <trkpt lat="48.07808" lon="-4.4911">
        <ele>68</ele>
        <time>2014-05-08T14:30:41Z</time>
      </trkpt>
      <trkpt lat="48.07804" lon="-4.49118">
        <ele>70</ele>
        <time>2014-05-08T14:30:45Z</time>
      </trkpt>
      <trkpt lat="48.07794" lon="-4.49121">
        <ele>72</ele>
        <time>2014-05-08T14:30:50Z</time>
      </trkpt>
      <trkpt lat="48.07786" lon="-4.49123">
        <ele>69</ele>
        <time>2014-05-08T14:31:35Z</time>
      </trkpt>
      <trkpt lat="48.07778" lon="-4.49127">
        <ele>67</ele>
        <time>2014-05-08T14:31:41Z</time>
      </trkpt>
      <trkpt lat="48.07773" lon="-4.49128">
        <ele>65</ele>
        <time>2014-05-08T14:31:46Z</time>
      </trkpt>
      <trkpt lat="48.07763" lon="-4.49131">
        <ele>67</ele>
        <time>2014-05-08T14:31:51Z</time>
      </trkpt>
      <trkpt lat="48.07755" lon="-4.49135">
        <ele>67</ele>
        <time>2014-05-08T14:31:58Z</time>
      </trkpt>
      <trkpt lat="48.07748" lon="-4.4914">
        <ele>65</ele>
        <time>2014-05-08T14:32:07Z</time>
      </trkpt>
      <trkpt lat="48.07741" lon="-4.49142">
        <ele>68</ele>
        <time>2014-05-08T14:32:11Z</time>
      </trkpt>
      <trkpt lat="48.0773" lon="-4.49146">
        <ele>69</ele>
        <time>2014-05-08T14:32:16Z</time>
      </trkpt>
      <trkpt lat="48.07722" lon="-4.49152">
        <ele>68</ele>
        <time>2014-05-08T14:32:27Z</time>
      </trkpt>
      <trkpt lat="48.07717" lon="-4.49159">
        <ele>68</ele>
        <time>2014-05-08T14:32:49Z</time>
      </trkpt>
      <trkpt lat="48.0771" lon="-4.4917">
        <ele>68</ele>
        <time>2014-05-08T14:32:54Z</time>
      </trkpt>
      <trkpt lat="48.077" lon="-4.49177">
        <ele>69</ele>
        <time>2014-05-08T14:32:58Z</time>
      </trkpt>
      <trkpt lat="48.07692" lon="-4.49182">
        <ele>70</ele>
        <time>2014-05-08T14:33:16Z</time>
      </trkpt>
      <trkpt lat="48.07686" lon="-4.49192">
        <ele>68</ele>
        <time>2014-05-08T14:33:20Z</time>
      </trkpt>
      <trkpt lat="48.07675" lon="-4.492">
        <ele>68</ele>
        <time>2014-05-08T14:33:25Z</time>
      </trkpt>
      <trkpt lat="48.07669" lon="-4.49208">
        <ele>69</ele>
        <time>2014-05-08T14:33:29Z</time>
      </trkpt>
      <trkpt lat="48.07662" lon="-4.49214">
        <ele>68</ele>
        <time>2014-05-08T14:33:33Z</time>
      </trkpt>
      <trkpt lat="48.07655" lon="-4.4922">
        <ele>69</ele>
        <time>2014-05-08T14:33:38Z</time>
      </trkpt>
      <trkpt lat="48.0765" lon="-4.49228">
        <ele>69</ele>
        <time>2014-05-08T14:33:43Z</time>
      </trkpt>
      <trkpt lat="48.07645" lon="-4.49236">
        <ele>69</ele>
        <time>2014-05-08T14:33:49Z</time>
      </trkpt>
      <trkpt lat="48.07639" lon="-4.49245">
        <ele>70</ele>
        <time>2014-05-08T14:33:54Z</time>
      </trkpt>
      <trkpt lat="48.07632" lon="-4.49254">
        <ele>68</ele>
        <time>2014-05-08T14:34:08Z</time>
      </trkpt>
      <trkpt lat="48.07627" lon="-4.49261">
        <ele>69</ele>
        <time>2014-05-08T14:34:12Z</time>
      </trkpt>
      <trkpt lat="48.07622" lon="-4.49271">
        <ele>68</ele>
        <time>2014-05-08T14:34:18Z</time>
      </trkpt>
      <trkpt lat="48.07617" lon="-4.49281">
        <ele>68</ele>
        <time>2014-05-08T14:34:25Z</time>
      </trkpt>
      <trkpt lat="48.07612" lon="-4.49292">
        <ele>69</ele>
        <time>2014-05-08T14:34:31Z</time>
      </trkpt>
      <trkpt lat="48.07607" lon="-4.49302">
        <ele>70</ele>
        <time>2014-05-08T14:34:38Z</time>
      </trkpt>
      <trkpt lat="48.07602" lon="-4.49313">
        <ele>71</ele>
        <time>2014-05-08T14:34:45Z</time>
      </trkpt>
      <trkpt lat="48.07598" lon="-4.49324">
        <ele>71</ele>
        <time>2014-05-08T14:34:52Z</time>
      </trkpt>
      <trkpt lat="48.07594" lon="-4.49336">
        <ele>71</ele>
        <time>2014-05-08T14:35:00Z</time>
      </trkpt>
      <trkpt lat="48.0759" lon="-4.49346">
        <ele>72</ele>
        <time>2014-05-08T14:35:07Z</time>
      </trkpt>
      <trkpt lat="48.07586" lon="-4.49358">
        <ele>72</ele>
        <time>2014-05-08T14:35:14Z</time>
      </trkpt>
      <trkpt lat="48.07582" lon="-4.4937">
        <ele>72</ele>
        <time>2014-05-08T14:35:21Z</time>
      </trkpt>
      <trkpt lat="48.07579" lon="-4.49381">
        <ele>72</ele>
        <time>2014-05-08T14:35:29Z</time>
      </trkpt>
      <trkpt lat="48.07575" lon="-4.49392">
        <ele>73</ele>
        <time>2014-05-08T14:35:35Z</time>
      </trkpt>
      <trkpt lat="48.07571" lon="-4.49403">
        <ele>74</ele>
        <time>2014-05-08T14:35:43Z</time>
      </trkpt>
      <trkpt lat="48.07568" lon="-4.49415">
        <ele>74</ele>
        <time>2014-05-08T14:35:51Z</time>
      </trkpt>
      <trkpt lat="48.07562" lon="-4.49426">
        <ele>75</ele>
        <time>2014-05-08T14:35:59Z</time>
      </trkpt>
      <trkpt lat="48.07558" lon="-4.49436">
        <ele>76</ele>
        <time>2014-05-08T14:36:06Z</time>
      </trkpt>
      <trkpt lat="48.07555" lon="-4.49448">
        <ele>78</ele>
        <time>2014-05-08T14:36:13Z</time>
      </trkpt>
      <trkpt lat="48.07551" lon="-4.49459">
        <ele>80</ele>
        <time>2014-05-08T14:36:21Z</time>
      </trkpt>
      <trkpt lat="48.07548" lon="-4.49471">
        <ele>80</ele>
        <time>2014-05-08T14:36:28Z</time>
      </trkpt>
      <trkpt lat="48.07547" lon="-4.49483">
        <ele>82</ele>
        <time>2014-05-08T14:36:35Z</time>
      </trkpt>
      <trkpt lat="48.07542" lon="-4.49493">
        <ele>81</ele>
        <time>2014-05-08T14:36:41Z</time>
      </trkpt>
      <trkpt lat="48.07537" lon="-4.49502">
        <ele>85</ele>
        <time>2014-05-08T14:36:52Z</time>
      </trkpt>
      <trkpt lat="48.07534" lon="-4.49513">
        <ele>86</ele>
        <time>2014-05-08T14:36:59Z</time>
      </trkpt>
      <trkpt lat="48.07532" lon="-4.49524">
        <ele>84</ele>
        <time>2014-05-08T14:37:06Z</time>
      </trkpt>
      <trkpt lat="48.07529" lon="-4.49536">
        <ele>84</ele>
        <time>2014-05-08T14:37:12Z</time>
      </trkpt>
      <trkpt lat="48.07525" lon="-4.49547">
        <ele>86</ele>
        <time>2014-05-08T14:37:24Z</time>
      </trkpt>
      <trkpt lat="48.07522" lon="-4.49561">
        <ele>85</ele>
        <time>2014-05-08T14:37:28Z</time>
      </trkpt>
      <trkpt lat="48.0752" lon="-4.49572">
        <ele>87</ele>
        <time>2014-05-08T14:37:34Z</time>
      </trkpt>
      <trkpt lat="48.07515" lon="-4.49583">
        <ele>89</ele>
        <time>2014-05-08T14:37:40Z</time>
      </trkpt>
      <trkpt lat="48.07506" lon="-4.4959">
        <ele>90</ele>
        <time>2014-05-08T14:37:44Z</time>
      </trkpt>
      <trkpt lat="48.07504" lon="-4.49602">
        <ele>91</ele>
        <time>2014-05-08T14:37:54Z</time>
      </trkpt>
      <trkpt lat="48.07506" lon="-4.49614">
        <ele>88</ele>
        <time>2014-05-08T14:38:00Z</time>
      </trkpt>
      <trkpt lat="48.07502" lon="-4.49624">
        <ele>90</ele>
        <time>2014-05-08T14:38:05Z</time>
      </trkpt>
      <trkpt lat="48.07499" lon="-4.49637">
        <ele>87</ele>
        <time>2014-05-08T14:38:14Z</time>
      </trkpt>
      <trkpt lat="48.07498" lon="-4.49648">
        <ele>91</ele>
        <time>2014-05-08T14:38:19Z</time>
      </trkpt>
      <trkpt lat="48.07496" lon="-4.49661">
        <ele>88</ele>
        <time>2014-05-08T14:38:29Z</time>
      </trkpt>
      <trkpt lat="48.07494" lon="-4.49671">
        <ele>86</ele>
        <time>2014-05-08T14:38:34Z</time>
      </trkpt>
      <trkpt lat="48.07496" lon="-4.49684">
        <ele>85</ele>
        <time>2014-05-08T14:38:41Z</time>
      </trkpt>
      <trkpt lat="48.07496" lon="-4.49696">
        <ele>83</ele>
        <time>2014-05-08T14:38:48Z</time>
      </trkpt>
      <trkpt lat="48.07494" lon="-4.49707">
        <ele>85</ele>
        <time>2014-05-08T14:38:54Z</time>
      </trkpt>
      <trkpt lat="48.07494" lon="-4.49719">
        <ele>86</ele>
        <time>2014-05-08T14:39:00Z</time>
      </trkpt>
      <trkpt lat="48.07495" lon="-4.49731">
        <ele>87</ele>
        <time>2014-05-08T14:39:06Z</time>
      </trkpt>
      <trkpt lat="48.07495" lon="-4.49743">
        <ele>87</ele>
        <time>2014-05-08T14:39:13Z</time>
      </trkpt>
      <trkpt lat="48.07496" lon="-4.49756">
        <ele>88</ele>
        <time>2014-05-08T14:39:19Z</time>
      </trkpt>
      <trkpt lat="48.07495" lon="-4.49769">
        <ele>90</ele>
        <time>2014-05-08T14:39:26Z</time>
      </trkpt>
      <trkpt lat="48.07497" lon="-4.49781">
        <ele>89</ele>
        <time>2014-05-08T14:39:33Z</time>
      </trkpt>
      <trkpt lat="48.07497" lon="-4.49794">
        <ele>89</ele>
        <time>2014-05-08T14:39:39Z</time>
      </trkpt>
      <trkpt lat="48.07497" lon="-4.49806">
        <ele>89</ele>
        <time>2014-05-08T14:39:45Z</time>
      </trkpt>
      <trkpt lat="48.07499" lon="-4.49818">
        <ele>88</ele>
        <time>2014-05-08T14:39:52Z</time>
      </trkpt>
      <trkpt lat="48.07501" lon="-4.4983">
        <ele>87</ele>
        <time>2014-05-08T14:39:58Z</time>
      </trkpt>
      <trkpt lat="48.07502" lon="-4.49843">
        <ele>83</ele>
        <time>2014-05-08T14:40:06Z</time>
      </trkpt>
      <trkpt lat="48.07502" lon="-4.49856">
        <ele>83</ele>
        <time>2014-05-08T14:40:13Z</time>
      </trkpt>
      <trkpt lat="48.07501" lon="-4.49869">
        <ele>84</ele>
        <time>2014-05-08T14:40:20Z</time>
      </trkpt>
      <trkpt lat="48.07502" lon="-4.49882">
        <ele>86</ele>
        <time>2014-05-08T14:40:29Z</time>
      </trkpt>
      <trkpt lat="48.07497" lon="-4.49894">
        <ele>88</ele>
        <time>2014-05-08T14:40:33Z</time>
      </trkpt>
      <trkpt lat="48.07494" lon="-4.49906">
        <ele>91</ele>
        <time>2014-05-08T14:40:37Z</time>
      </trkpt>
      <trkpt lat="48.07498" lon="-4.49916">
        <ele>90</ele>
        <time>2014-05-08T14:40:43Z</time>
      </trkpt>
      <trkpt lat="48.07499" lon="-4.49928">
        <ele>90</ele>
        <time>2014-05-08T14:40:49Z</time>
      </trkpt>
      <trkpt lat="48.07504" lon="-4.49939">
        <ele>83</ele>
        <time>2014-05-08T14:41:00Z</time>
      </trkpt>
      <trkpt lat="48.07502" lon="-4.4995">
        <ele>84</ele>
        <time>2014-05-08T14:41:07Z</time>
      </trkpt>
      <trkpt lat="48.07502" lon="-4.49967">
        <ele>85</ele>
        <time>2014-05-08T14:41:11Z</time>
      </trkpt>
      <trkpt lat="48.07501" lon="-4.49979">
        <ele>85</ele>
        <time>2014-05-08T14:41:15Z</time>
      </trkpt>
      <trkpt lat="48.07504" lon="-4.49992">
        <ele>82</ele>
        <time>2014-05-08T14:41:22Z</time>
      </trkpt>
      <trkpt lat="48.07504" lon="-4.50004">
        <ele>79</ele>
        <time>2014-05-08T14:41:31Z</time>
      </trkpt>
      <trkpt lat="48.07508" lon="-4.50013">
        <ele>79</ele>
        <time>2014-05-08T14:41:35Z</time>
      </trkpt>
      <trkpt lat="48.07508" lon="-4.50025">
        <ele>79</ele>
        <time>2014-05-08T14:41:40Z</time>
      </trkpt>
      <trkpt lat="48.07508" lon="-4.50037">
        <ele>77</ele>
        <time>2014-05-08T14:41:48Z</time>
      </trkpt>
      <trkpt lat="48.07507" lon="-4.5005">
        <ele>81</ele>
        <time>2014-05-08T14:41:54Z</time>
      </trkpt>
      <trkpt lat="48.07506" lon="-4.50062">
        <ele>82</ele>
        <time>2014-05-08T14:42:01Z</time>
      </trkpt>
      <trkpt lat="48.07508" lon="-4.50072">
        <ele>82</ele>
        <time>2014-05-08T14:42:10Z</time>
      </trkpt>
      <trkpt lat="48.07507" lon="-4.50082">
        <ele>82</ele>
        <time>2014-05-08T14:42:24Z</time>
      </trkpt>
      <trkpt lat="48.07505" lon="-4.50096">
        <ele>79</ele>
        <time>2014-05-08T14:42:28Z</time>
      </trkpt>
      <trkpt lat="48.0751" lon="-4.5011">
        <ele>79</ele>
        <time>2014-05-08T14:42:33Z</time>
      </trkpt>
      <trkpt lat="48.07511" lon="-4.50123">
        <ele>77</ele>
        <time>2014-05-08T14:42:38Z</time>
      </trkpt>
      <trkpt lat="48.07511" lon="-4.50134">
        <ele>77</ele>
        <time>2014-05-08T14:42:44Z</time>
      </trkpt>
      <trkpt lat="48.07512" lon="-4.50148">
        <ele>79</ele>
        <time>2014-05-08T14:42:49Z</time>
      </trkpt>
      <trkpt lat="48.07513" lon="-4.50158">
        <ele>81</ele>
        <time>2014-05-08T14:42:54Z</time>
      </trkpt>
      <trkpt lat="48.07513" lon="-4.50171">
        <ele>82</ele>
        <time>2014-05-08T14:42:59Z</time>
      </trkpt>
      <trkpt lat="48.07514" lon="-4.50183">
        <ele>81</ele>
        <time>2014-05-08T14:43:05Z</time>
      </trkpt>
      <trkpt lat="48.07512" lon="-4.50196">
        <ele>81</ele>
        <time>2014-05-08T14:43:11Z</time>
      </trkpt>
      <trkpt lat="48.07513" lon="-4.50207">
        <ele>81</ele>
        <time>2014-05-08T14:43:18Z</time>
      </trkpt>
      <trkpt lat="48.07511" lon="-4.50219">
        <ele>81</ele>
        <time>2014-05-08T14:43:24Z</time>
      </trkpt>
      <trkpt lat="48.0751" lon="-4.50232">
        <ele>81</ele>
        <time>2014-05-08T14:43:30Z</time>
      </trkpt>
      <trkpt lat="48.07512" lon="-4.50245">
        <ele>79</ele>
        <time>2014-05-08T14:43:38Z</time>
      </trkpt>
      <trkpt lat="48.07514" lon="-4.50258">
        <ele>80</ele>
        <time>2014-05-08T14:43:44Z</time>
      </trkpt>
      <trkpt lat="48.07513" lon="-4.50269">
        <ele>81</ele>
        <time>2014-05-08T14:43:49Z</time>
      </trkpt>
      <trkpt lat="48.07511" lon="-4.50282">
        <ele>80</ele>
        <time>2014-05-08T14:43:56Z</time>
      </trkpt>
      <trkpt lat="48.07512" lon="-4.50295">
        <ele>80</ele>
        <time>2014-05-08T14:44:04Z</time>
      </trkpt>
      <trkpt lat="48.07513" lon="-4.50306">
        <ele>79</ele>
        <time>2014-05-08T14:44:11Z</time>
      </trkpt>
      <trkpt lat="48.07509" lon="-4.50317">
        <ele>78</ele>
        <time>2014-05-08T14:44:16Z</time>
      </trkpt>
      <trkpt lat="48.07502" lon="-4.50325">
        <ele>78</ele>
        <time>2014-05-08T14:44:27Z</time>
      </trkpt>
      <trkpt lat="48.07501" lon="-4.50333">
        <ele>75</ele>
        <time>2014-05-08T14:44:31Z</time>
      </trkpt>
      <trkpt lat="48.07499" lon="-4.50346">
        <ele>73</ele>
        <time>2014-05-08T14:44:36Z</time>
      </trkpt>
      <trkpt lat="48.07496" lon="-4.50357">
        <ele>75</ele>
        <time>2014-05-08T14:44:41Z</time>
      </trkpt>
      <trkpt lat="48.07492" lon="-4.50369">
        <ele>76</ele>
        <time>2014-05-08T14:44:48Z</time>
      </trkpt>
      <trkpt lat="48.07493" lon="-4.50381">
        <ele>70</ele>
        <time>2014-05-08T14:44:58Z</time>
      </trkpt>
      <trkpt lat="48.07492" lon="-4.50393">
        <ele>71</ele>
        <time>2014-05-08T14:45:03Z</time>
      </trkpt>
      <trkpt lat="48.07487" lon="-4.50403">
        <ele>71</ele>
        <time>2014-05-08T14:45:08Z</time>
      </trkpt>
      <trkpt lat="48.07485" lon="-4.50414">
        <ele>72</ele>
        <time>2014-05-08T14:45:15Z</time>
      </trkpt>
      <trkpt lat="48.07487" lon="-4.50426">
        <ele>73</ele>
        <time>2014-05-08T14:45:20Z</time>
      </trkpt>
      <trkpt lat="48.07489" lon="-4.50439">
        <ele>74</ele>
        <time>2014-05-08T14:45:25Z</time>
      </trkpt>
      <trkpt lat="48.07486" lon="-4.50448">
        <ele>74</ele>
        <time>2014-05-08T14:45:29Z</time>
      </trkpt>
      <trkpt lat="48.07487" lon="-4.50463">
        <ele>76</ele>
        <time>2014-05-08T14:45:34Z</time>
      </trkpt>
      <trkpt lat="48.07491" lon="-4.50474">
        <ele>72</ele>
        <time>2014-05-08T14:45:46Z</time>
      </trkpt>
      <trkpt lat="48.07488" lon="-4.50484">
        <ele>72</ele>
        <time>2014-05-08T14:45:51Z</time>
      </trkpt>
      <trkpt lat="48.0749" lon="-4.50493">
        <ele>71</ele>
        <time>2014-05-08T14:46:08Z</time>
      </trkpt>
      <trkpt lat="48.07487" lon="-4.50513">
        <ele>73</ele>
        <time>2014-05-08T14:46:12Z</time>
      </trkpt>
      <trkpt lat="48.07489" lon="-4.50524">
        <ele>74</ele>
        <time>2014-05-08T14:46:16Z</time>
      </trkpt>
      <trkpt lat="48.07489" lon="-4.50536">
        <ele>75</ele>
        <time>2014-05-08T14:46:22Z</time>
      </trkpt>
      <trkpt lat="48.07488" lon="-4.50549">
        <ele>77</ele>
        <time>2014-05-08T14:46:29Z</time>
      </trkpt>
      <trkpt lat="48.07491" lon="-4.50561">
        <ele>75</ele>
        <time>2014-05-08T14:46:37Z</time>
      </trkpt>
      <trkpt lat="48.07489" lon="-4.50572">
        <ele>79</ele>
        <time>2014-05-08T14:46:42Z</time>
      </trkpt>
      <trkpt lat="48.07489" lon="-4.50586">
        <ele>79</ele>
        <time>2014-05-08T14:46:56Z</time>
      </trkpt>
      <trkpt lat="48.0749" lon="-4.50595">
        <ele>75</ele>
        <time>2014-05-08T14:47:04Z</time>
      </trkpt>
      <trkpt lat="48.07495" lon="-4.50614">
        <ele>75</ele>
        <time>2014-05-08T14:47:08Z</time>
      </trkpt>
      <trkpt lat="48.07499" lon="-4.50622">
        <ele>72</ele>
        <time>2014-05-08T14:47:14Z</time>
      </trkpt>
      <trkpt lat="48.07505" lon="-4.50633">
        <ele>73</ele>
        <time>2014-05-08T14:47:22Z</time>
      </trkpt>
      <trkpt lat="48.07508" lon="-4.50645">
        <ele>72</ele>
        <time>2014-05-08T14:47:29Z</time>
      </trkpt>
      <trkpt lat="48.07509" lon="-4.50658">
        <ele>73</ele>
        <time>2014-05-08T14:47:37Z</time>
      </trkpt>
      <trkpt lat="48.07507" lon="-4.50668">
        <ele>72</ele>
        <time>2014-05-08T14:47:41Z</time>
      </trkpt>
      <trkpt lat="48.07507" lon="-4.5068">
        <ele>74</ele>
        <time>2014-05-08T14:47:45Z</time>
      </trkpt>
      <trkpt lat="48.07511" lon="-4.50691">
        <ele>74</ele>
        <time>2014-05-08T14:47:51Z</time>
      </trkpt>
      <trkpt lat="48.07513" lon="-4.50704">
        <ele>72</ele>
        <time>2014-05-08T14:48:01Z</time>
      </trkpt>
      <trkpt lat="48.0752" lon="-4.50712">
        <ele>73</ele>
        <time>2014-05-08T14:48:07Z</time>
      </trkpt>
      <trkpt lat="48.07518" lon="-4.50722">
        <ele>73</ele>
        <time>2014-05-08T14:48:14Z</time>
      </trkpt>
      <trkpt lat="48.07518" lon="-4.50735">
        <ele>75</ele>
        <time>2014-05-08T14:48:19Z</time>
      </trkpt>
      <trkpt lat="48.07521" lon="-4.50746">
        <ele>74</ele>
        <time>2014-05-08T14:48:27Z</time>
      </trkpt>
      <trkpt lat="48.0752" lon="-4.50759">
        <ele>75</ele>
        <time>2014-05-08T14:48:34Z</time>
      </trkpt>
      <trkpt lat="48.07526" lon="-4.50767">
        <ele>75</ele>
        <time>2014-05-08T14:48:39Z</time>
      </trkpt>
      <trkpt lat="48.0753" lon="-4.50775">
        <ele>78</ele>
        <time>2014-05-08T14:48:46Z</time>
      </trkpt>
      <trkpt lat="48.07538" lon="-4.50784">
        <ele>82</ele>
        <time>2014-05-08T14:48:51Z</time>
      </trkpt>
      <trkpt lat="48.07536" lon="-4.50793">
        <ele>85</ele>
        <time>2014-05-08T14:49:05Z</time>
      </trkpt>
      <trkpt lat="48.07542" lon="-4.50815">
        <ele>83</ele>
        <time>2014-05-08T14:49:10Z</time>
      </trkpt>
      <trkpt lat="48.07545" lon="-4.50827">
        <ele>84</ele>
        <time>2014-05-08T14:49:16Z</time>
      </trkpt>
      <trkpt lat="48.07549" lon="-4.50838">
        <ele>84</ele>
        <time>2014-05-08T14:49:25Z</time>
      </trkpt>
      <trkpt lat="48.07553" lon="-4.50852">
        <ele>83</ele>
        <time>2014-05-08T14:49:30Z</time>
      </trkpt>
      <trkpt lat="48.07558" lon="-4.50863">
        <ele>82</ele>
        <time>2014-05-08T14:49:37Z</time>
      </trkpt>
      <trkpt lat="48.07556" lon="-4.50872">
        <ele>95</ele>
        <time>2014-05-08T14:49:55Z</time>
      </trkpt>
      <trkpt lat="48.07557" lon="-4.50885">
        <ele>91</ele>
        <time>2014-05-08T14:50:02Z</time>
      </trkpt>
      <trkpt lat="48.07562" lon="-4.50893">
        <ele>84</ele>
        <time>2014-05-08T14:50:08Z</time>
      </trkpt>
      <trkpt lat="48.07561" lon="-4.5091">
        <ele>87</ele>
        <time>2014-05-08T14:50:13Z</time>
      </trkpt>
      <trkpt lat="48.07557" lon="-4.50922">
        <ele>88</ele>
        <time>2014-05-08T14:50:20Z</time>
      </trkpt>
      <trkpt lat="48.07557" lon="-4.50934">
        <ele>87</ele>
        <time>2014-05-08T14:50:27Z</time>
      </trkpt>
      <trkpt lat="48.07558" lon="-4.50947">
        <ele>87</ele>
        <time>2014-05-08T14:50:34Z</time>
      </trkpt>
      <trkpt lat="48.07559" lon="-4.50959">
        <ele>87</ele>
        <time>2014-05-08T14:50:42Z</time>
      </trkpt>
      <trkpt lat="48.07558" lon="-4.50971">
        <ele>87</ele>
        <time>2014-05-08T14:50:49Z</time>
      </trkpt>
      <trkpt lat="48.07558" lon="-4.50984">
        <ele>86</ele>
        <time>2014-05-08T14:50:56Z</time>
      </trkpt>
      <trkpt lat="48.07561" lon="-4.50997">
        <ele>86</ele>
        <time>2014-05-08T14:51:04Z</time>
      </trkpt>
      <trkpt lat="48.07564" lon="-4.51006">
        <ele>85</ele>
        <time>2014-05-08T14:51:10Z</time>
      </trkpt>
      <trkpt lat="48.07561" lon="-4.51019">
        <ele>86</ele>
        <time>2014-05-08T14:51:15Z</time>
      </trkpt>
      <trkpt lat="48.0756" lon="-4.51032">
        <ele>86</ele>
        <time>2014-05-08T14:51:24Z</time>
      </trkpt>
      <trkpt lat="48.07559" lon="-4.51044">
        <ele>85</ele>
        <time>2014-05-08T14:51:33Z</time>
      </trkpt>
      <trkpt lat="48.07553" lon="-4.51054">
        <ele>86</ele>
        <time>2014-05-08T14:51:38Z</time>
      </trkpt>
      <trkpt lat="48.07554" lon="-4.51066">
        <ele>83</ele>
        <time>2014-05-08T14:51:43Z</time>
      </trkpt>
      <trkpt lat="48.07557" lon="-4.51077">
        <ele>83</ele>
        <time>2014-05-08T14:51:47Z</time>
      </trkpt>
      <trkpt lat="48.07562" lon="-4.51089">
        <ele>82</ele>
        <time>2014-05-08T14:51:54Z</time>
      </trkpt>
      <trkpt lat="48.0756" lon="-4.51102">
        <ele>85</ele>
        <time>2014-05-08T14:52:00Z</time>
      </trkpt>
      <trkpt lat="48.07557" lon="-4.51114">
        <ele>90</ele>
        <time>2014-05-08T14:52:10Z</time>
      </trkpt>
      <trkpt lat="48.07553" lon="-4.51126">
        <ele>89</ele>
        <time>2014-05-08T14:52:17Z</time>
      </trkpt>
      <trkpt lat="48.07558" lon="-4.51134">
        <ele>89</ele>
        <time>2014-05-08T14:52:24Z</time>
      </trkpt>
      <trkpt lat="48.07556" lon="-4.51147">
        <ele>93</ele>
        <time>2014-05-08T14:52:30Z</time>
      </trkpt>
      <trkpt lat="48.07557" lon="-4.5116">
        <ele>94</ele>
        <time>2014-05-08T14:52:39Z</time>
      </trkpt>
      <trkpt lat="48.07552" lon="-4.51171">
        <ele>93</ele>
        <time>2014-05-08T14:52:54Z</time>
      </trkpt>
      <trkpt lat="48.07544" lon="-4.51175">
        <ele>92</ele>
        <time>2014-05-08T14:53:02Z</time>
      </trkpt>
      <trkpt lat="48.07535" lon="-4.51176">
        <ele>91</ele>
        <time>2014-05-08T14:53:08Z</time>
      </trkpt>
      <trkpt lat="48.07528" lon="-4.51178">
        <ele>91</ele>
        <time>2014-05-08T14:53:17Z</time>
      </trkpt>
      <trkpt lat="48.07518" lon="-4.51183">
        <ele>92</ele>
        <time>2014-05-08T14:53:22Z</time>
      </trkpt>
      <trkpt lat="48.07511" lon="-4.51187">
        <ele>91</ele>
        <time>2014-05-08T14:53:30Z</time>
      </trkpt>
      <trkpt lat="48.07503" lon="-4.51193">
        <ele>91</ele>
        <time>2014-05-08T14:53:37Z</time>
      </trkpt>
      <trkpt lat="48.07496" lon="-4.51199">
        <ele>92</ele>
        <time>2014-05-08T14:53:47Z</time>
      </trkpt>
      <trkpt lat="48.07487" lon="-4.51197">
        <ele>91</ele>
        <time>2014-05-08T14:54:09Z</time>
      </trkpt>
      <trkpt lat="48.0748" lon="-4.51199">
        <ele>91</ele>
        <time>2014-05-08T14:54:14Z</time>
      </trkpt>
      <trkpt lat="48.07473" lon="-4.51204">
        <ele>91</ele>
        <time>2014-05-08T14:54:19Z</time>
      </trkpt>
      <trkpt lat="48.0746" lon="-4.51205">
        <ele>90</ele>
        <time>2014-05-08T14:54:24Z</time>
      </trkpt>
      <trkpt lat="48.0745" lon="-4.51209">
        <ele>90</ele>
        <time>2014-05-08T14:54:26Z</time>
      </trkpt>
      <trkpt lat="48.07444" lon="-4.51212">
        <ele>88</ele>
        <time>2014-05-08T14:54:50Z</time>
      </trkpt>
      <trkpt lat="48.07465" lon="-4.51198">
        <ele>77</ele>
        <time>2014-05-08T14:54:54Z</time>
      </trkpt>
      <trkpt lat="48.07471" lon="-4.51191">
        <ele>74</ele>
        <time>2014-05-08T14:54:58Z</time>
      </trkpt>
      <trkpt lat="48.07464" lon="-4.51187">
        <ele>68</ele>
        <time>2014-05-08T14:55:07Z</time>
      </trkpt>
      <trkpt lat="48.07456" lon="-4.51184">
        <ele>65</ele>
        <time>2014-05-08T14:55:18Z</time>
      </trkpt>
      <trkpt lat="48.07462" lon="-4.51184">
        <ele>68</ele>
        <time>2014-05-08T14:55:24Z</time>
      </trkpt>
      <trkpt lat="48.07483" lon="-4.51189">
        <ele>73</ele>
        <time>2014-05-08T14:55:28Z</time>
      </trkpt>
      <trkpt lat="48.0751" lon="-4.51204">
        <ele>80</ele>
        <time>2014-05-08T14:55:33Z</time>
      </trkpt>
      <trkpt lat="48.07503" lon="-4.51203">
        <ele>87</ele>
        <time>2014-05-08T14:55:43Z</time>
      </trkpt>
      <trkpt lat="48.07495" lon="-4.51201">
        <ele>89</ele>
        <time>2014-05-08T14:57:15Z</time>
      </trkpt>
      <trkpt lat="48.07498" lon="-4.51201">
        <ele>90</ele>
        <time>2014-05-08T14:58:02Z</time>
      </trkpt>
      <trkpt lat="48.07516" lon="-4.51195">
        <ele>87</ele>
        <time>2014-05-08T14:58:06Z</time>
      </trkpt>
      <trkpt lat="48.07524" lon="-4.5119">
        <ele>89</ele>
        <time>2014-05-08T14:58:17Z</time>
      </trkpt>
      <trkpt lat="48.0753" lon="-4.51197">
        <ele>90</ele>
        <time>2014-05-08T14:58:22Z</time>
      </trkpt>
      <trkpt lat="48.07539" lon="-4.51198">
        <ele>86</ele>
        <time>2014-05-08T14:58:26Z</time>
      </trkpt>
      <trkpt lat="48.07546" lon="-4.51201">
        <ele>86</ele>
        <time>2014-05-08T14:58:33Z</time>
      </trkpt>
      <trkpt lat="48.07554" lon="-4.51198">
        <ele>87</ele>
        <time>2014-05-08T14:58:37Z</time>
      </trkpt>
      <trkpt lat="48.07559" lon="-4.51206">
        <ele>89</ele>
        <time>2014-05-08T14:58:45Z</time>
      </trkpt>
      <trkpt lat="48.07553" lon="-4.51216">
        <ele>91</ele>
        <time>2014-05-08T14:58:55Z</time>
      </trkpt>
      <trkpt lat="48.07555" lon="-4.51226">
        <ele>90</ele>
        <time>2014-05-08T14:59:11Z</time>
      </trkpt>
      <trkpt lat="48.07554" lon="-4.51245">
        <ele>86</ele>
        <time>2014-05-08T14:59:16Z</time>
      </trkpt>
      <trkpt lat="48.07554" lon="-4.51258">
        <ele>84</ele>
        <time>2014-05-08T14:59:22Z</time>
      </trkpt>
      <trkpt lat="48.07555" lon="-4.5127">
        <ele>86</ele>
        <time>2014-05-08T14:59:28Z</time>
      </trkpt>
      <trkpt lat="48.07556" lon="-4.5129">
        <ele>84</ele>
        <time>2014-05-08T14:59:33Z</time>
      </trkpt>
      <trkpt lat="48.07554" lon="-4.51303">
        <ele>83</ele>
        <time>2014-05-08T14:59:41Z</time>
      </trkpt>
      <trkpt lat="48.07555" lon="-4.51317">
        <ele>85</ele>
        <time>2014-05-08T14:59:45Z</time>
      </trkpt>
      <trkpt lat="48.07553" lon="-4.5133">
        <ele>80</ele>
        <time>2014-05-08T14:59:52Z</time>
      </trkpt>
      <trkpt lat="48.0755" lon="-4.5134">
        <ele>82</ele>
        <time>2014-05-08T15:00:02Z</time>
      </trkpt>
      <trkpt lat="48.07553" lon="-4.51352">
        <ele>77</ele>
        <time>2014-05-08T15:00:08Z</time>
      </trkpt>
      <trkpt lat="48.07559" lon="-4.51361">
        <ele>80</ele>
        <time>2014-05-08T15:00:15Z</time>
      </trkpt>
      <trkpt lat="48.07558" lon="-4.51373">
        <ele>82</ele>
        <time>2014-05-08T15:00:20Z</time>
      </trkpt>
      <trkpt lat="48.07555" lon="-4.51383">
        <ele>85</ele>
        <time>2014-05-08T15:00:28Z</time>
      </trkpt>
      <trkpt lat="48.07555" lon="-4.51397">
        <ele>87</ele>
        <time>2014-05-08T15:00:35Z</time>
      </trkpt>
      <trkpt lat="48.07562" lon="-4.51405">
        <ele>92</ele>
        <time>2014-05-08T15:00:40Z</time>
      </trkpt>
      <trkpt lat="48.07563" lon="-4.51416">
        <ele>89</ele>
        <time>2014-05-08T15:00:47Z</time>
      </trkpt>
      <trkpt lat="48.07568" lon="-4.51425">
        <ele>83</ele>
        <time>2014-05-08T15:00:56Z</time>
      </trkpt>
      <trkpt lat="48.07564" lon="-4.51425">
        <ele>90</ele>
        <time>2014-05-08T15:10:43Z</time>
      </trkpt>
      <trkpt lat="48.07564" lon="-4.51425">
        <ele>90</ele>
        <time>2014-05-08T15:14:45Z</time>
      </trkpt>
    </trkseg>
  </trk>
</gpx>